<?xml version="1.0" encoding="UTF-8" standalone="no" ?>
<gpx xmlns="http://www.topografix.com/GPX/1/1" xmlns:xsi="http://www.w3.org/2001/XMLSchema-instance" xsi:schemaLocation="http://www.topografix.com/GPX/1/1 http://www.topografix.com/GPX/1/1/gpx.xsd" version="1.1" creator="VisuGPX - https://www.visugpx.com">
  <metadata>
    <name>randonnée des badrais</name>
    <desc><![CDATA[joli parcour vtt , quasi exclusivement du chemin (bois, ...)]]></desc>
  </metadata>
  <trk>
    <name><![CDATA[2015-04-26 RÀNDO BADRI]]></name>
    <trkseg>
      <trkpt lat="45.6123" lon="4.61661">
        <ele>637.49</ele>
        <time>2015-04-25T18:39:11Z</time>
      </trkpt>
      <trkpt lat="45.61199" lon="4.61657">
        <ele>626.92</ele>
        <time>2015-04-25T18:39:34Z</time>
      </trkpt>
      <trkpt lat="45.59926" lon="4.6052">
        <ele>537.51</ele>
        <time>2015-04-26T06:17:37Z</time>
      </trkpt>
      <trkpt lat="45.59926" lon="4.60523">
        <ele>538.96</ele>
        <time>2015-04-26T06:18:00Z</time>
      </trkpt>
      <trkpt lat="45.59922" lon="4.60531">
        <ele>538.96</ele>
        <time>2015-04-26T06:18:11Z</time>
      </trkpt>
      <trkpt lat="45.59921" lon="4.6053">
        <ele>537.99</ele>
        <time>2015-04-26T06:18:32Z</time>
      </trkpt>
      <trkpt lat="45.59918" lon="4.60536">
        <ele>537.99</ele>
        <time>2015-04-26T06:18:36Z</time>
      </trkpt>
      <trkpt lat="45.59917" lon="4.6054">
        <ele>539.92</ele>
        <time>2015-04-26T06:18:49Z</time>
      </trkpt>
      <trkpt lat="45.59917" lon="4.6054">
        <ele>538.96</ele>
        <time>2015-04-26T06:19:21Z</time>
      </trkpt>
      <trkpt lat="45.59917" lon="4.60541">
        <ele>544.72</ele>
        <time>2015-04-26T06:19:37Z</time>
      </trkpt>
      <trkpt lat="45.59916" lon="4.60541">
        <ele>547.61</ele>
        <time>2015-04-26T06:19:54Z</time>
      </trkpt>
      <trkpt lat="45.59913" lon="4.60543">
        <ele>547.13</ele>
        <time>2015-04-26T06:19:57Z</time>
      </trkpt>
      <trkpt lat="45.59911" lon="4.60546">
        <ele>546.65</ele>
        <time>2015-04-26T06:19:58Z</time>
      </trkpt>
      <trkpt lat="45.5991" lon="4.60548">
        <ele>546.17</ele>
        <time>2015-04-26T06:19:59Z</time>
      </trkpt>
      <trkpt lat="45.59909" lon="4.60551">
        <ele>546.17</ele>
        <time>2015-04-26T06:20:00Z</time>
      </trkpt>
      <trkpt lat="45.59889" lon="4.60578">
        <ele>543.76</ele>
        <time>2015-04-26T06:20:07Z</time>
      </trkpt>
      <trkpt lat="45.59886" lon="4.60583">
        <ele>543.76</ele>
        <time>2015-04-26T06:20:08Z</time>
      </trkpt>
      <trkpt lat="45.59883" lon="4.60588">
        <ele>543.28</ele>
        <time>2015-04-26T06:20:09Z</time>
      </trkpt>
      <trkpt lat="45.59857" lon="4.60631">
        <ele>540.88</ele>
        <time>2015-04-26T06:20:17Z</time>
      </trkpt>
      <trkpt lat="45.59844" lon="4.60647">
        <ele>539.44</ele>
        <time>2015-04-26T06:20:21Z</time>
      </trkpt>
      <trkpt lat="45.59841" lon="4.60646">
        <ele>539.44</ele>
        <time>2015-04-26T06:20:22Z</time>
      </trkpt>
      <trkpt lat="45.59838" lon="4.60644">
        <ele>538.96</ele>
        <time>2015-04-26T06:20:23Z</time>
      </trkpt>
      <trkpt lat="45.59836" lon="4.60641">
        <ele>538.96</ele>
        <time>2015-04-26T06:20:24Z</time>
      </trkpt>
      <trkpt lat="45.59835" lon="4.60637">
        <ele>538.96</ele>
        <time>2015-04-26T06:20:32Z</time>
      </trkpt>
      <trkpt lat="45.59834" lon="4.60635">
        <ele>539.44</ele>
        <time>2015-04-26T06:20:53Z</time>
      </trkpt>
      <trkpt lat="45.59833" lon="4.60636">
        <ele>540.4</ele>
        <time>2015-04-26T06:21:05Z</time>
      </trkpt>
      <trkpt lat="45.59833" lon="4.60639">
        <ele>540.88</ele>
        <time>2015-04-26T06:21:06Z</time>
      </trkpt>
      <trkpt lat="45.59834" lon="4.60644">
        <ele>540.4</ele>
        <time>2015-04-26T06:21:08Z</time>
      </trkpt>
      <trkpt lat="45.59837" lon="4.60646">
        <ele>540.4</ele>
        <time>2015-04-26T06:21:09Z</time>
      </trkpt>
      <trkpt lat="45.59838" lon="4.60648">
        <ele>539.92</ele>
        <time>2015-04-26T06:21:10Z</time>
      </trkpt>
      <trkpt lat="45.59839" lon="4.60652">
        <ele>539.92</ele>
        <time>2015-04-26T06:21:11Z</time>
      </trkpt>
      <trkpt lat="45.59838" lon="4.60658">
        <ele>539.44</ele>
        <time>2015-04-26T06:21:12Z</time>
      </trkpt>
      <trkpt lat="45.59837" lon="4.6066">
        <ele>539.44</ele>
        <time>2015-04-26T06:21:13Z</time>
      </trkpt>
      <trkpt lat="45.59835" lon="4.60665">
        <ele>538.96</ele>
        <time>2015-04-26T06:21:14Z</time>
      </trkpt>
      <trkpt lat="45.59833" lon="4.6067">
        <ele>538.48</ele>
        <time>2015-04-26T06:21:15Z</time>
      </trkpt>
      <trkpt lat="45.5983" lon="4.60675">
        <ele>537.99</ele>
        <time>2015-04-26T06:21:16Z</time>
      </trkpt>
      <trkpt lat="45.5982" lon="4.6069">
        <ele>537.03</ele>
        <time>2015-04-26T06:21:19Z</time>
      </trkpt>
      <trkpt lat="45.59817" lon="4.60697">
        <ele>537.03</ele>
        <time>2015-04-26T06:21:20Z</time>
      </trkpt>
      <trkpt lat="45.59764" lon="4.60779">
        <ele>531.27</ele>
        <time>2015-04-26T06:21:32Z</time>
      </trkpt>
      <trkpt lat="45.59754" lon="4.60792">
        <ele>530.3</ele>
        <time>2015-04-26T06:21:34Z</time>
      </trkpt>
      <trkpt lat="45.59746" lon="4.608">
        <ele>529.82</ele>
        <time>2015-04-26T06:21:35Z</time>
      </trkpt>
      <trkpt lat="45.59742" lon="4.60805">
        <ele>529.82</ele>
        <time>2015-04-26T06:21:36Z</time>
      </trkpt>
      <trkpt lat="45.59669" lon="4.60882">
        <ele>526.94</ele>
        <time>2015-04-26T06:21:48Z</time>
      </trkpt>
      <trkpt lat="45.59639" lon="4.60918">
        <ele>528.86</ele>
        <time>2015-04-26T06:21:54Z</time>
      </trkpt>
      <trkpt lat="45.59638" lon="4.6092">
        <ele>528.86</ele>
        <time>2015-04-26T06:21:55Z</time>
      </trkpt>
      <trkpt lat="45.59636" lon="4.60921">
        <ele>529.34</ele>
        <time>2015-04-26T06:21:56Z</time>
      </trkpt>
      <trkpt lat="45.59635" lon="4.60922">
        <ele>529.34</ele>
        <time>2015-04-26T06:21:57Z</time>
      </trkpt>
      <trkpt lat="45.59633" lon="4.60921">
        <ele>529.34</ele>
        <time>2015-04-26T06:21:58Z</time>
      </trkpt>
      <trkpt lat="45.59631" lon="4.60922">
        <ele>529.34</ele>
        <time>2015-04-26T06:21:59Z</time>
      </trkpt>
      <trkpt lat="45.59631" lon="4.60924">
        <ele>528.86</ele>
        <time>2015-04-26T06:22:00Z</time>
      </trkpt>
      <trkpt lat="45.59632" lon="4.60926">
        <ele>528.86</ele>
        <time>2015-04-26T06:22:01Z</time>
      </trkpt>
      <trkpt lat="45.59633" lon="4.60926">
        <ele>528.86</ele>
        <time>2015-04-26T06:22:02Z</time>
      </trkpt>
      <trkpt lat="45.59635" lon="4.60925">
        <ele>528.38</ele>
        <time>2015-04-26T06:22:03Z</time>
      </trkpt>
      <trkpt lat="45.59637" lon="4.60923">
        <ele>528.38</ele>
        <time>2015-04-26T06:22:04Z</time>
      </trkpt>
      <trkpt lat="45.59638" lon="4.60921">
        <ele>528.86</ele>
        <time>2015-04-26T06:22:05Z</time>
      </trkpt>
      <trkpt lat="45.5964" lon="4.6092">
        <ele>528.86</ele>
        <time>2015-04-26T06:22:06Z</time>
      </trkpt>
      <trkpt lat="45.59641" lon="4.60921">
        <ele>527.42</ele>
        <time>2015-04-26T06:22:16Z</time>
      </trkpt>
      <trkpt lat="45.59641" lon="4.60919">
        <ele>527.42</ele>
        <time>2015-04-26T06:22:22Z</time>
      </trkpt>
      <trkpt lat="45.59642" lon="4.60918">
        <ele>526.94</ele>
        <time>2015-04-26T06:22:31Z</time>
      </trkpt>
      <trkpt lat="45.59643" lon="4.6092">
        <ele>526.46</ele>
        <time>2015-04-26T06:22:33Z</time>
      </trkpt>
      <trkpt lat="45.59644" lon="4.60922">
        <ele>526.46</ele>
        <time>2015-04-26T06:22:34Z</time>
      </trkpt>
      <trkpt lat="45.59646" lon="4.60924">
        <ele>525.98</ele>
        <time>2015-04-26T06:22:35Z</time>
      </trkpt>
      <trkpt lat="45.59648" lon="4.60927">
        <ele>525.98</ele>
        <time>2015-04-26T06:22:36Z</time>
      </trkpt>
      <trkpt lat="45.5965" lon="4.60929">
        <ele>525.5</ele>
        <time>2015-04-26T06:22:37Z</time>
      </trkpt>
      <trkpt lat="45.59652" lon="4.60931">
        <ele>525.5</ele>
        <time>2015-04-26T06:22:38Z</time>
      </trkpt>
      <trkpt lat="45.59654" lon="4.60933">
        <ele>525.02</ele>
        <time>2015-04-26T06:22:39Z</time>
      </trkpt>
      <trkpt lat="45.59657" lon="4.60935">
        <ele>524.54</ele>
        <time>2015-04-26T06:22:40Z</time>
      </trkpt>
      <trkpt lat="45.59659" lon="4.60936">
        <ele>524.06</ele>
        <time>2015-04-26T06:22:41Z</time>
      </trkpt>
      <trkpt lat="45.59661" lon="4.60937">
        <ele>523.58</ele>
        <time>2015-04-26T06:22:42Z</time>
      </trkpt>
      <trkpt lat="45.59663" lon="4.60938">
        <ele>522.61</ele>
        <time>2015-04-26T06:22:43Z</time>
      </trkpt>
      <trkpt lat="45.59665" lon="4.60938">
        <ele>522.13</ele>
        <time>2015-04-26T06:22:44Z</time>
      </trkpt>
      <trkpt lat="45.59667" lon="4.60939">
        <ele>521.17</ele>
        <time>2015-04-26T06:22:45Z</time>
      </trkpt>
      <trkpt lat="45.59669" lon="4.60939">
        <ele>520.69</ele>
        <time>2015-04-26T06:22:46Z</time>
      </trkpt>
      <trkpt lat="45.59674" lon="4.60941">
        <ele>519.73</ele>
        <time>2015-04-26T06:22:48Z</time>
      </trkpt>
      <trkpt lat="45.59676" lon="4.60939">
        <ele>519.25</ele>
        <time>2015-04-26T06:22:49Z</time>
      </trkpt>
      <trkpt lat="45.59677" lon="4.60936">
        <ele>519.73</ele>
        <time>2015-04-26T06:22:50Z</time>
      </trkpt>
      <trkpt lat="45.59679" lon="4.60932">
        <ele>520.21</ele>
        <time>2015-04-26T06:22:52Z</time>
      </trkpt>
      <trkpt lat="45.5968" lon="4.6093">
        <ele>520.21</ele>
        <time>2015-04-26T06:22:53Z</time>
      </trkpt>
      <trkpt lat="45.59681" lon="4.60928">
        <ele>520.21</ele>
        <time>2015-04-26T06:22:54Z</time>
      </trkpt>
      <trkpt lat="45.59681" lon="4.60926">
        <ele>520.21</ele>
        <time>2015-04-26T06:22:55Z</time>
      </trkpt>
      <trkpt lat="45.59682" lon="4.60924">
        <ele>520.69</ele>
        <time>2015-04-26T06:22:56Z</time>
      </trkpt>
      <trkpt lat="45.59683" lon="4.60922">
        <ele>520.69</ele>
        <time>2015-04-26T06:22:57Z</time>
      </trkpt>
      <trkpt lat="45.59684" lon="4.6092">
        <ele>521.17</ele>
        <time>2015-04-26T06:22:58Z</time>
      </trkpt>
      <trkpt lat="45.59684" lon="4.60918">
        <ele>521.17</ele>
        <time>2015-04-26T06:22:59Z</time>
      </trkpt>
      <trkpt lat="45.59686" lon="4.60913">
        <ele>519.73</ele>
        <time>2015-04-26T06:23:11Z</time>
      </trkpt>
      <trkpt lat="45.59687" lon="4.60912">
        <ele>519.25</ele>
        <time>2015-04-26T06:23:12Z</time>
      </trkpt>
      <trkpt lat="45.59688" lon="4.6091">
        <ele>519.25</ele>
        <time>2015-04-26T06:23:13Z</time>
      </trkpt>
      <trkpt lat="45.59716" lon="4.60896">
        <ele>515.4</ele>
        <time>2015-04-26T06:23:22Z</time>
      </trkpt>
      <trkpt lat="45.59731" lon="4.60897">
        <ele>513</ele>
        <time>2015-04-26T06:23:25Z</time>
      </trkpt>
      <trkpt lat="45.59737" lon="4.60899">
        <ele>512.52</ele>
        <time>2015-04-26T06:23:26Z</time>
      </trkpt>
      <trkpt lat="45.59766" lon="4.6092">
        <ele>509.16</ele>
        <time>2015-04-26T06:23:36Z</time>
      </trkpt>
      <trkpt lat="45.59764" lon="4.6092">
        <ele>509.16</ele>
        <time>2015-04-26T06:23:39Z</time>
      </trkpt>
      <trkpt lat="45.59763" lon="4.60919">
        <ele>509.16</ele>
        <time>2015-04-26T06:23:40Z</time>
      </trkpt>
      <trkpt lat="45.59761" lon="4.60918">
        <ele>509.16</ele>
        <time>2015-04-26T06:23:41Z</time>
      </trkpt>
      <trkpt lat="45.59754" lon="4.60911">
        <ele>507.71</ele>
        <time>2015-04-26T06:23:53Z</time>
      </trkpt>
      <trkpt lat="45.59754" lon="4.60912">
        <ele>507.23</ele>
        <time>2015-04-26T06:23:54Z</time>
      </trkpt>
      <trkpt lat="45.59756" lon="4.60913">
        <ele>507.23</ele>
        <time>2015-04-26T06:23:55Z</time>
      </trkpt>
      <trkpt lat="45.59757" lon="4.60914">
        <ele>507.23</ele>
        <time>2015-04-26T06:23:56Z</time>
      </trkpt>
      <trkpt lat="45.59758" lon="4.60916">
        <ele>507.23</ele>
        <time>2015-04-26T06:23:57Z</time>
      </trkpt>
      <trkpt lat="45.5976" lon="4.6092">
        <ele>507.23</ele>
        <time>2015-04-26T06:23:58Z</time>
      </trkpt>
      <trkpt lat="45.59758" lon="4.60963">
        <ele>505.79</ele>
        <time>2015-04-26T06:24:07Z</time>
      </trkpt>
      <trkpt lat="45.59738" lon="4.60997">
        <ele>499.54</ele>
        <time>2015-04-26T06:24:17Z</time>
      </trkpt>
      <trkpt lat="45.59726" lon="4.61036">
        <ele>495.7</ele>
        <time>2015-04-26T06:24:25Z</time>
      </trkpt>
      <trkpt lat="45.59742" lon="4.61087">
        <ele>498.1</ele>
        <time>2015-04-26T06:24:38Z</time>
      </trkpt>
      <trkpt lat="45.59754" lon="4.61121">
        <ele>497.62</ele>
        <time>2015-04-26T06:24:47Z</time>
      </trkpt>
      <trkpt lat="45.59754" lon="4.61141">
        <ele>496.18</ele>
        <time>2015-04-26T06:24:51Z</time>
      </trkpt>
      <trkpt lat="45.59751" lon="4.61152">
        <ele>495.7</ele>
        <time>2015-04-26T06:24:53Z</time>
      </trkpt>
      <trkpt lat="45.59756" lon="4.61167">
        <ele>494.26</ele>
        <time>2015-04-26T06:24:57Z</time>
      </trkpt>
      <trkpt lat="45.59764" lon="4.61177">
        <ele>492.33</ele>
        <time>2015-04-26T06:25:00Z</time>
      </trkpt>
      <trkpt lat="45.59783" lon="4.612">
        <ele>487.05</ele>
        <time>2015-04-26T06:25:06Z</time>
      </trkpt>
      <trkpt lat="45.59793" lon="4.61239">
        <ele>480.32</ele>
        <time>2015-04-26T06:25:11Z</time>
      </trkpt>
      <trkpt lat="45.59794" lon="4.61274">
        <ele>477.91</ele>
        <time>2015-04-26T06:25:14Z</time>
      </trkpt>
      <trkpt lat="45.5979" lon="4.61301">
        <ele>476.95</ele>
        <time>2015-04-26T06:25:17Z</time>
      </trkpt>
      <trkpt lat="45.59787" lon="4.61306">
        <ele>476.95</ele>
        <time>2015-04-26T06:25:18Z</time>
      </trkpt>
      <trkpt lat="45.59783" lon="4.6131">
        <ele>476.95</ele>
        <time>2015-04-26T06:25:19Z</time>
      </trkpt>
      <trkpt lat="45.59779" lon="4.61313">
        <ele>476.47</ele>
        <time>2015-04-26T06:25:20Z</time>
      </trkpt>
      <trkpt lat="45.59774" lon="4.61315">
        <ele>476.47</ele>
        <time>2015-04-26T06:25:21Z</time>
      </trkpt>
      <trkpt lat="45.59768" lon="4.61318">
        <ele>475.99</ele>
        <time>2015-04-26T06:25:22Z</time>
      </trkpt>
      <trkpt lat="45.59709" lon="4.61356">
        <ele>473.11</ele>
        <time>2015-04-26T06:25:33Z</time>
      </trkpt>
      <trkpt lat="45.59675" lon="4.61386">
        <ele>471.18</ele>
        <time>2015-04-26T06:25:40Z</time>
      </trkpt>
      <trkpt lat="45.59671" lon="4.61392">
        <ele>471.18</ele>
        <time>2015-04-26T06:25:41Z</time>
      </trkpt>
      <trkpt lat="45.59667" lon="4.61398">
        <ele>470.7</ele>
        <time>2015-04-26T06:25:42Z</time>
      </trkpt>
      <trkpt lat="45.59633" lon="4.61466">
        <ele>469.74</ele>
        <time>2015-04-26T06:25:52Z</time>
      </trkpt>
      <trkpt lat="45.59628" lon="4.61481">
        <ele>469.26</ele>
        <time>2015-04-26T06:25:54Z</time>
      </trkpt>
      <trkpt lat="45.59626" lon="4.61488">
        <ele>469.26</ele>
        <time>2015-04-26T06:25:55Z</time>
      </trkpt>
      <trkpt lat="45.59624" lon="4.61504">
        <ele>469.26</ele>
        <time>2015-04-26T06:25:57Z</time>
      </trkpt>
      <trkpt lat="45.59624" lon="4.61511">
        <ele>469.26</ele>
        <time>2015-04-26T06:25:58Z</time>
      </trkpt>
      <trkpt lat="45.59626" lon="4.61525">
        <ele>469.74</ele>
        <time>2015-04-26T06:26:00Z</time>
      </trkpt>
      <trkpt lat="45.59627" lon="4.61534">
        <ele>469.74</ele>
        <time>2015-04-26T06:26:01Z</time>
      </trkpt>
      <trkpt lat="45.59628" lon="4.6154">
        <ele>469.74</ele>
        <time>2015-04-26T06:26:02Z</time>
      </trkpt>
      <trkpt lat="45.59629" lon="4.61546">
        <ele>469.26</ele>
        <time>2015-04-26T06:26:03Z</time>
      </trkpt>
      <trkpt lat="45.5963" lon="4.61553">
        <ele>469.26</ele>
        <time>2015-04-26T06:26:04Z</time>
      </trkpt>
      <trkpt lat="45.59636" lon="4.61578">
        <ele>465.9</ele>
        <time>2015-04-26T06:26:09Z</time>
      </trkpt>
      <trkpt lat="45.59634" lon="4.61581">
        <ele>464.93</ele>
        <time>2015-04-26T06:26:10Z</time>
      </trkpt>
      <trkpt lat="45.59631" lon="4.61586">
        <ele>463.97</ele>
        <time>2015-04-26T06:26:11Z</time>
      </trkpt>
      <trkpt lat="45.59627" lon="4.61591">
        <ele>463.01</ele>
        <time>2015-04-26T06:26:12Z</time>
      </trkpt>
      <trkpt lat="45.59621" lon="4.61597">
        <ele>462.05</ele>
        <time>2015-04-26T06:26:13Z</time>
      </trkpt>
      <trkpt lat="45.5958" lon="4.61644">
        <ele>455.8</ele>
        <time>2015-04-26T06:26:20Z</time>
      </trkpt>
      <trkpt lat="45.59555" lon="4.6169">
        <ele>450.52</ele>
        <time>2015-04-26T06:26:25Z</time>
      </trkpt>
      <trkpt lat="45.59551" lon="4.61697">
        <ele>449.55</ele>
        <time>2015-04-26T06:26:26Z</time>
      </trkpt>
      <trkpt lat="45.5955" lon="4.61704">
        <ele>449.07</ele>
        <time>2015-04-26T06:26:27Z</time>
      </trkpt>
      <trkpt lat="45.5955" lon="4.61711">
        <ele>448.11</ele>
        <time>2015-04-26T06:26:28Z</time>
      </trkpt>
      <trkpt lat="45.59551" lon="4.61718">
        <ele>447.63</ele>
        <time>2015-04-26T06:26:29Z</time>
      </trkpt>
      <trkpt lat="45.59554" lon="4.61725">
        <ele>447.63</ele>
        <time>2015-04-26T06:26:30Z</time>
      </trkpt>
      <trkpt lat="45.5956" lon="4.61747">
        <ele>447.63</ele>
        <time>2015-04-26T06:26:33Z</time>
      </trkpt>
      <trkpt lat="45.59562" lon="4.61755">
        <ele>448.11</ele>
        <time>2015-04-26T06:26:34Z</time>
      </trkpt>
      <trkpt lat="45.59564" lon="4.61768">
        <ele>449.55</ele>
        <time>2015-04-26T06:26:36Z</time>
      </trkpt>
      <trkpt lat="45.59563" lon="4.61842">
        <ele>454.84</ele>
        <time>2015-04-26T06:26:50Z</time>
      </trkpt>
      <trkpt lat="45.59561" lon="4.61911">
        <ele>455.8</ele>
        <time>2015-04-26T06:27:05Z</time>
      </trkpt>
      <trkpt lat="45.59561" lon="4.61945">
        <ele>454.36</ele>
        <time>2015-04-26T06:27:10Z</time>
      </trkpt>
      <trkpt lat="45.59563" lon="4.61966">
        <ele>452.92</ele>
        <time>2015-04-26T06:27:13Z</time>
      </trkpt>
      <trkpt lat="45.59579" lon="4.62026">
        <ele>448.59</ele>
        <time>2015-04-26T06:27:23Z</time>
      </trkpt>
      <trkpt lat="45.59577" lon="4.62029">
        <ele>447.63</ele>
        <time>2015-04-26T06:27:34Z</time>
      </trkpt>
      <trkpt lat="45.59578" lon="4.62027">
        <ele>447.63</ele>
        <time>2015-04-26T06:27:40Z</time>
      </trkpt>
      <trkpt lat="45.59577" lon="4.62025">
        <ele>447.63</ele>
        <time>2015-04-26T06:27:41Z</time>
      </trkpt>
      <trkpt lat="45.59577" lon="4.62023">
        <ele>447.63</ele>
        <time>2015-04-26T06:27:42Z</time>
      </trkpt>
      <trkpt lat="45.59577" lon="4.62021">
        <ele>447.63</ele>
        <time>2015-04-26T06:27:43Z</time>
      </trkpt>
      <trkpt lat="45.59576" lon="4.6202">
        <ele>447.63</ele>
        <time>2015-04-26T06:27:44Z</time>
      </trkpt>
      <trkpt lat="45.59576" lon="4.62018">
        <ele>448.11</ele>
        <time>2015-04-26T06:27:45Z</time>
      </trkpt>
      <trkpt lat="45.59576" lon="4.62017">
        <ele>448.11</ele>
        <time>2015-04-26T06:27:48Z</time>
      </trkpt>
      <trkpt lat="45.59577" lon="4.62018">
        <ele>448.11</ele>
        <time>2015-04-26T06:27:50Z</time>
      </trkpt>
      <trkpt lat="45.59577" lon="4.6202">
        <ele>448.11</ele>
        <time>2015-04-26T06:27:51Z</time>
      </trkpt>
      <trkpt lat="45.59578" lon="4.62022">
        <ele>448.11</ele>
        <time>2015-04-26T06:27:52Z</time>
      </trkpt>
      <trkpt lat="45.59578" lon="4.62025">
        <ele>448.11</ele>
        <time>2015-04-26T06:27:53Z</time>
      </trkpt>
      <trkpt lat="45.59579" lon="4.62029">
        <ele>448.11</ele>
        <time>2015-04-26T06:27:54Z</time>
      </trkpt>
      <trkpt lat="45.5958" lon="4.62034">
        <ele>447.63</ele>
        <time>2015-04-26T06:27:55Z</time>
      </trkpt>
      <trkpt lat="45.5958" lon="4.62039">
        <ele>447.15</ele>
        <time>2015-04-26T06:27:56Z</time>
      </trkpt>
      <trkpt lat="45.59581" lon="4.62067">
        <ele>444.75</ele>
        <time>2015-04-26T06:28:00Z</time>
      </trkpt>
      <trkpt lat="45.5958" lon="4.62071">
        <ele>444.27</ele>
        <time>2015-04-26T06:28:01Z</time>
      </trkpt>
      <trkpt lat="45.59579" lon="4.62073">
        <ele>443.79</ele>
        <time>2015-04-26T06:28:02Z</time>
      </trkpt>
      <trkpt lat="45.59562" lon="4.62112">
        <ele>440.42</ele>
        <time>2015-04-26T06:28:09Z</time>
      </trkpt>
      <trkpt lat="45.59527" lon="4.62187">
        <ele>435.13</ele>
        <time>2015-04-26T06:28:17Z</time>
      </trkpt>
      <trkpt lat="45.59524" lon="4.62198">
        <ele>433.69</ele>
        <time>2015-04-26T06:28:18Z</time>
      </trkpt>
      <trkpt lat="45.59522" lon="4.6221">
        <ele>432.73</ele>
        <time>2015-04-26T06:28:19Z</time>
      </trkpt>
      <trkpt lat="45.5952" lon="4.62223">
        <ele>431.77</ele>
        <time>2015-04-26T06:28:20Z</time>
      </trkpt>
      <trkpt lat="45.59519" lon="4.62237">
        <ele>430.81</ele>
        <time>2015-04-26T06:28:21Z</time>
      </trkpt>
      <trkpt lat="45.59516" lon="4.6227">
        <ele>427.92</ele>
        <time>2015-04-26T06:28:24Z</time>
      </trkpt>
      <trkpt lat="45.59516" lon="4.62287">
        <ele>426</ele>
        <time>2015-04-26T06:28:26Z</time>
      </trkpt>
      <trkpt lat="45.59516" lon="4.62296">
        <ele>425.04</ele>
        <time>2015-04-26T06:28:27Z</time>
      </trkpt>
      <trkpt lat="45.59516" lon="4.62305">
        <ele>424.56</ele>
        <time>2015-04-26T06:28:28Z</time>
      </trkpt>
      <trkpt lat="45.59501" lon="4.62394">
        <ele>416.39</ele>
        <time>2015-04-26T06:28:37Z</time>
      </trkpt>
      <trkpt lat="45.595" lon="4.62405">
        <ele>415.91</ele>
        <time>2015-04-26T06:28:38Z</time>
      </trkpt>
      <trkpt lat="45.59499" lon="4.62414">
        <ele>414.95</ele>
        <time>2015-04-26T06:28:39Z</time>
      </trkpt>
      <trkpt lat="45.59498" lon="4.62423">
        <ele>414.47</ele>
        <time>2015-04-26T06:28:40Z</time>
      </trkpt>
      <trkpt lat="45.59498" lon="4.62432">
        <ele>413.5</ele>
        <time>2015-04-26T06:28:41Z</time>
      </trkpt>
      <trkpt lat="45.59497" lon="4.62461">
        <ele>412.06</ele>
        <time>2015-04-26T06:28:44Z</time>
      </trkpt>
      <trkpt lat="45.59497" lon="4.62472">
        <ele>411.58</ele>
        <time>2015-04-26T06:28:45Z</time>
      </trkpt>
      <trkpt lat="45.59496" lon="4.62484">
        <ele>411.1</ele>
        <time>2015-04-26T06:28:46Z</time>
      </trkpt>
      <trkpt lat="45.59496" lon="4.62495">
        <ele>411.1</ele>
        <time>2015-04-26T06:28:47Z</time>
      </trkpt>
      <trkpt lat="45.59497" lon="4.62507">
        <ele>410.62</ele>
        <time>2015-04-26T06:28:48Z</time>
      </trkpt>
      <trkpt lat="45.59497" lon="4.6252">
        <ele>410.14</ele>
        <time>2015-04-26T06:28:49Z</time>
      </trkpt>
      <trkpt lat="45.5949" lon="4.62662">
        <ele>403.89</ele>
        <time>2015-04-26T06:28:59Z</time>
      </trkpt>
      <trkpt lat="45.5949" lon="4.62674">
        <ele>403.41</ele>
        <time>2015-04-26T06:29:00Z</time>
      </trkpt>
      <trkpt lat="45.59491" lon="4.62694">
        <ele>401.97</ele>
        <time>2015-04-26T06:29:02Z</time>
      </trkpt>
      <trkpt lat="45.59492" lon="4.62703">
        <ele>401.49</ele>
        <time>2015-04-26T06:29:03Z</time>
      </trkpt>
      <trkpt lat="45.59502" lon="4.62742">
        <ele>401.49</ele>
        <time>2015-04-26T06:29:08Z</time>
      </trkpt>
      <trkpt lat="45.59539" lon="4.62823">
        <ele>403.89</ele>
        <time>2015-04-26T06:29:22Z</time>
      </trkpt>
      <trkpt lat="45.59541" lon="4.62829">
        <ele>404.37</ele>
        <time>2015-04-26T06:29:23Z</time>
      </trkpt>
      <trkpt lat="45.59543" lon="4.62834">
        <ele>404.37</ele>
        <time>2015-04-26T06:29:24Z</time>
      </trkpt>
      <trkpt lat="45.59555" lon="4.62886">
        <ele>406.77</ele>
        <time>2015-04-26T06:29:34Z</time>
      </trkpt>
      <trkpt lat="45.59565" lon="4.62951">
        <ele>407.74</ele>
        <time>2015-04-26T06:29:46Z</time>
      </trkpt>
      <trkpt lat="45.59577" lon="4.63014">
        <ele>408.22</ele>
        <time>2015-04-26T06:29:58Z</time>
      </trkpt>
      <trkpt lat="45.59585" lon="4.63078">
        <ele>408.22</ele>
        <time>2015-04-26T06:30:10Z</time>
      </trkpt>
      <trkpt lat="45.59585" lon="4.63085">
        <ele>407.74</ele>
        <time>2015-04-26T06:30:11Z</time>
      </trkpt>
      <trkpt lat="45.59587" lon="4.63098">
        <ele>407.26</ele>
        <time>2015-04-26T06:30:13Z</time>
      </trkpt>
      <trkpt lat="45.59587" lon="4.63105">
        <ele>407.26</ele>
        <time>2015-04-26T06:30:14Z</time>
      </trkpt>
      <trkpt lat="45.59588" lon="4.63135">
        <ele>406.29</ele>
        <time>2015-04-26T06:30:18Z</time>
      </trkpt>
      <trkpt lat="45.59588" lon="4.63143">
        <ele>405.81</ele>
        <time>2015-04-26T06:30:19Z</time>
      </trkpt>
      <trkpt lat="45.59587" lon="4.6315">
        <ele>405.33</ele>
        <time>2015-04-26T06:30:20Z</time>
      </trkpt>
      <trkpt lat="45.59587" lon="4.63156">
        <ele>404.85</ele>
        <time>2015-04-26T06:30:21Z</time>
      </trkpt>
      <trkpt lat="45.5959" lon="4.63163">
        <ele>404.85</ele>
        <time>2015-04-26T06:30:22Z</time>
      </trkpt>
      <trkpt lat="45.59593" lon="4.6317">
        <ele>404.37</ele>
        <time>2015-04-26T06:30:23Z</time>
      </trkpt>
      <trkpt lat="45.59596" lon="4.63176">
        <ele>403.89</ele>
        <time>2015-04-26T06:30:24Z</time>
      </trkpt>
      <trkpt lat="45.596" lon="4.63182">
        <ele>403.41</ele>
        <time>2015-04-26T06:30:25Z</time>
      </trkpt>
      <trkpt lat="45.59604" lon="4.63186">
        <ele>402.93</ele>
        <time>2015-04-26T06:30:26Z</time>
      </trkpt>
      <trkpt lat="45.59609" lon="4.63189">
        <ele>402.45</ele>
        <time>2015-04-26T06:30:27Z</time>
      </trkpt>
      <trkpt lat="45.59614" lon="4.63192">
        <ele>402.45</ele>
        <time>2015-04-26T06:30:28Z</time>
      </trkpt>
      <trkpt lat="45.59628" lon="4.63199">
        <ele>401.97</ele>
        <time>2015-04-26T06:30:31Z</time>
      </trkpt>
      <trkpt lat="45.59632" lon="4.63204">
        <ele>401.49</ele>
        <time>2015-04-26T06:30:32Z</time>
      </trkpt>
      <trkpt lat="45.59634" lon="4.6321">
        <ele>401.49</ele>
        <time>2015-04-26T06:30:33Z</time>
      </trkpt>
      <trkpt lat="45.59634" lon="4.63218">
        <ele>401.49</ele>
        <time>2015-04-26T06:30:34Z</time>
      </trkpt>
      <trkpt lat="45.59634" lon="4.63225">
        <ele>401.01</ele>
        <time>2015-04-26T06:30:35Z</time>
      </trkpt>
      <trkpt lat="45.59633" lon="4.63232">
        <ele>401.01</ele>
        <time>2015-04-26T06:30:36Z</time>
      </trkpt>
      <trkpt lat="45.59632" lon="4.63239">
        <ele>401.49</ele>
        <time>2015-04-26T06:30:37Z</time>
      </trkpt>
      <trkpt lat="45.59626" lon="4.63283">
        <ele>406.29</ele>
        <time>2015-04-26T06:30:46Z</time>
      </trkpt>
      <trkpt lat="45.59625" lon="4.63287">
        <ele>406.29</ele>
        <time>2015-04-26T06:30:47Z</time>
      </trkpt>
      <trkpt lat="45.59623" lon="4.63291">
        <ele>405.81</ele>
        <time>2015-04-26T06:30:48Z</time>
      </trkpt>
      <trkpt lat="45.59621" lon="4.63296">
        <ele>405.81</ele>
        <time>2015-04-26T06:30:49Z</time>
      </trkpt>
      <trkpt lat="45.5962" lon="4.63301">
        <ele>405.81</ele>
        <time>2015-04-26T06:30:50Z</time>
      </trkpt>
      <trkpt lat="45.59619" lon="4.63307">
        <ele>405.33</ele>
        <time>2015-04-26T06:30:51Z</time>
      </trkpt>
      <trkpt lat="45.59611" lon="4.63371">
        <ele>404.37</ele>
        <time>2015-04-26T06:31:00Z</time>
      </trkpt>
      <trkpt lat="45.59607" lon="4.63409">
        <ele>404.37</ele>
        <time>2015-04-26T06:31:05Z</time>
      </trkpt>
      <trkpt lat="45.5959" lon="4.63449">
        <ele>402.93</ele>
        <time>2015-04-26T06:31:12Z</time>
      </trkpt>
      <trkpt lat="45.59576" lon="4.63489">
        <ele>399.57</ele>
        <time>2015-04-26T06:31:16Z</time>
      </trkpt>
      <trkpt lat="45.59574" lon="4.635">
        <ele>398.6</ele>
        <time>2015-04-26T06:31:17Z</time>
      </trkpt>
      <trkpt lat="45.59573" lon="4.63511">
        <ele>397.64</ele>
        <time>2015-04-26T06:31:18Z</time>
      </trkpt>
      <trkpt lat="45.59573" lon="4.63521">
        <ele>397.16</ele>
        <time>2015-04-26T06:31:19Z</time>
      </trkpt>
      <trkpt lat="45.59574" lon="4.63531">
        <ele>396.2</ele>
        <time>2015-04-26T06:31:20Z</time>
      </trkpt>
      <trkpt lat="45.59575" lon="4.63542">
        <ele>395.24</ele>
        <time>2015-04-26T06:31:21Z</time>
      </trkpt>
      <trkpt lat="45.59576" lon="4.63554">
        <ele>394.76</ele>
        <time>2015-04-26T06:31:22Z</time>
      </trkpt>
      <trkpt lat="45.59576" lon="4.63566">
        <ele>393.8</ele>
        <time>2015-04-26T06:31:23Z</time>
      </trkpt>
      <trkpt lat="45.59575" lon="4.63579">
        <ele>392.84</ele>
        <time>2015-04-26T06:31:24Z</time>
      </trkpt>
      <trkpt lat="45.59574" lon="4.63592">
        <ele>392.36</ele>
        <time>2015-04-26T06:31:25Z</time>
      </trkpt>
      <trkpt lat="45.59571" lon="4.63606">
        <ele>391.39</ele>
        <time>2015-04-26T06:31:26Z</time>
      </trkpt>
      <trkpt lat="45.59567" lon="4.6362">
        <ele>390.43</ele>
        <time>2015-04-26T06:31:27Z</time>
      </trkpt>
      <trkpt lat="45.59562" lon="4.63635">
        <ele>389.47</ele>
        <time>2015-04-26T06:31:28Z</time>
      </trkpt>
      <trkpt lat="45.59553" lon="4.63665">
        <ele>387.55</ele>
        <time>2015-04-26T06:31:30Z</time>
      </trkpt>
      <trkpt lat="45.59551" lon="4.63681">
        <ele>386.11</ele>
        <time>2015-04-26T06:31:31Z</time>
      </trkpt>
      <trkpt lat="45.5955" lon="4.63698">
        <ele>385.15</ele>
        <time>2015-04-26T06:31:32Z</time>
      </trkpt>
      <trkpt lat="45.59549" lon="4.63715">
        <ele>384.18</ele>
        <time>2015-04-26T06:31:33Z</time>
      </trkpt>
      <trkpt lat="45.59547" lon="4.63732">
        <ele>383.22</ele>
        <time>2015-04-26T06:31:34Z</time>
      </trkpt>
      <trkpt lat="45.59544" lon="4.63749">
        <ele>381.78</ele>
        <time>2015-04-26T06:31:35Z</time>
      </trkpt>
      <trkpt lat="45.59539" lon="4.63765">
        <ele>380.82</ele>
        <time>2015-04-26T06:31:36Z</time>
      </trkpt>
      <trkpt lat="45.59535" lon="4.6378">
        <ele>379.86</ele>
        <time>2015-04-26T06:31:37Z</time>
      </trkpt>
      <trkpt lat="45.59531" lon="4.63796">
        <ele>379.38</ele>
        <time>2015-04-26T06:31:38Z</time>
      </trkpt>
      <trkpt lat="45.5953" lon="4.63812">
        <ele>378.9</ele>
        <time>2015-04-26T06:31:39Z</time>
      </trkpt>
      <trkpt lat="45.59529" lon="4.63827">
        <ele>378.42</ele>
        <time>2015-04-26T06:31:40Z</time>
      </trkpt>
      <trkpt lat="45.59529" lon="4.63843">
        <ele>378.42</ele>
        <time>2015-04-26T06:31:41Z</time>
      </trkpt>
      <trkpt lat="45.59527" lon="4.63857">
        <ele>377.94</ele>
        <time>2015-04-26T06:31:42Z</time>
      </trkpt>
      <trkpt lat="45.59518" lon="4.63906">
        <ele>377.45</ele>
        <time>2015-04-26T06:31:46Z</time>
      </trkpt>
      <trkpt lat="45.59518" lon="4.63915">
        <ele>377.45</ele>
        <time>2015-04-26T06:31:47Z</time>
      </trkpt>
      <trkpt lat="45.5952" lon="4.63922">
        <ele>377.94</ele>
        <time>2015-04-26T06:31:48Z</time>
      </trkpt>
      <trkpt lat="45.59522" lon="4.63927">
        <ele>377.94</ele>
        <time>2015-04-26T06:31:49Z</time>
      </trkpt>
      <trkpt lat="45.59524" lon="4.63931">
        <ele>378.42</ele>
        <time>2015-04-26T06:31:50Z</time>
      </trkpt>
      <trkpt lat="45.59532" lon="4.63963">
        <ele>379.86</ele>
        <time>2015-04-26T06:31:59Z</time>
      </trkpt>
      <trkpt lat="45.59531" lon="4.63978">
        <ele>380.82</ele>
        <time>2015-04-26T06:32:04Z</time>
      </trkpt>
      <trkpt lat="45.5954" lon="4.64028">
        <ele>383.7</ele>
        <time>2015-04-26T06:32:17Z</time>
      </trkpt>
      <trkpt lat="45.59542" lon="4.64073">
        <ele>386.11</ele>
        <time>2015-04-26T06:32:29Z</time>
      </trkpt>
      <trkpt lat="45.59542" lon="4.64077">
        <ele>386.59</ele>
        <time>2015-04-26T06:32:30Z</time>
      </trkpt>
      <trkpt lat="45.59541" lon="4.64081">
        <ele>386.59</ele>
        <time>2015-04-26T06:32:31Z</time>
      </trkpt>
      <trkpt lat="45.5954" lon="4.64085">
        <ele>387.07</ele>
        <time>2015-04-26T06:32:32Z</time>
      </trkpt>
      <trkpt lat="45.5954" lon="4.64088">
        <ele>387.07</ele>
        <time>2015-04-26T06:32:33Z</time>
      </trkpt>
      <trkpt lat="45.59538" lon="4.64092">
        <ele>387.07</ele>
        <time>2015-04-26T06:32:34Z</time>
      </trkpt>
      <trkpt lat="45.59518" lon="4.64149">
        <ele>389.47</ele>
        <time>2015-04-26T06:32:49Z</time>
      </trkpt>
      <trkpt lat="45.59502" lon="4.64193">
        <ele>391.39</ele>
        <time>2015-04-26T06:33:01Z</time>
      </trkpt>
      <trkpt lat="45.59486" lon="4.6424">
        <ele>391.39</ele>
        <time>2015-04-26T06:33:14Z</time>
      </trkpt>
      <trkpt lat="45.59456" lon="4.64291">
        <ele>390.91</ele>
        <time>2015-04-26T06:33:29Z</time>
      </trkpt>
      <trkpt lat="45.59451" lon="4.64302">
        <ele>389.95</ele>
        <time>2015-04-26T06:33:32Z</time>
      </trkpt>
      <trkpt lat="45.59451" lon="4.64306">
        <ele>389.47</ele>
        <time>2015-04-26T06:33:33Z</time>
      </trkpt>
      <trkpt lat="45.59453" lon="4.64311">
        <ele>388.99</ele>
        <time>2015-04-26T06:33:34Z</time>
      </trkpt>
      <trkpt lat="45.59455" lon="4.64314">
        <ele>388.51</ele>
        <time>2015-04-26T06:33:35Z</time>
      </trkpt>
      <trkpt lat="45.59457" lon="4.64316">
        <ele>388.03</ele>
        <time>2015-04-26T06:33:36Z</time>
      </trkpt>
      <trkpt lat="45.59458" lon="4.64318">
        <ele>387.55</ele>
        <time>2015-04-26T06:33:37Z</time>
      </trkpt>
      <trkpt lat="45.59459" lon="4.64321">
        <ele>387.07</ele>
        <time>2015-04-26T06:33:38Z</time>
      </trkpt>
      <trkpt lat="45.59459" lon="4.64326">
        <ele>387.07</ele>
        <time>2015-04-26T06:33:39Z</time>
      </trkpt>
      <trkpt lat="45.59459" lon="4.6433">
        <ele>386.59</ele>
        <time>2015-04-26T06:33:40Z</time>
      </trkpt>
      <trkpt lat="45.59458" lon="4.64333">
        <ele>386.59</ele>
        <time>2015-04-26T06:33:41Z</time>
      </trkpt>
      <trkpt lat="45.59457" lon="4.64337">
        <ele>386.59</ele>
        <time>2015-04-26T06:33:42Z</time>
      </trkpt>
      <trkpt lat="45.59447" lon="4.64401">
        <ele>385.63</ele>
        <time>2015-04-26T06:33:56Z</time>
      </trkpt>
      <trkpt lat="45.59441" lon="4.64414">
        <ele>384.18</ele>
        <time>2015-04-26T06:34:04Z</time>
      </trkpt>
      <trkpt lat="45.59436" lon="4.64426">
        <ele>382.26</ele>
        <time>2015-04-26T06:34:14Z</time>
      </trkpt>
      <trkpt lat="45.59414" lon="4.64463">
        <ele>382.26</ele>
        <time>2015-04-26T06:34:25Z</time>
      </trkpt>
      <trkpt lat="45.59412" lon="4.64469">
        <ele>382.26</ele>
        <time>2015-04-26T06:34:34Z</time>
      </trkpt>
      <trkpt lat="45.5941" lon="4.64477">
        <ele>380.82</ele>
        <time>2015-04-26T06:34:46Z</time>
      </trkpt>
      <trkpt lat="45.59403" lon="4.64487">
        <ele>381.78</ele>
        <time>2015-04-26T06:35:00Z</time>
      </trkpt>
      <trkpt lat="45.594" lon="4.64487">
        <ele>380.82</ele>
        <time>2015-04-26T06:35:08Z</time>
      </trkpt>
      <trkpt lat="45.59385" lon="4.64503">
        <ele>382.26</ele>
        <time>2015-04-26T06:35:21Z</time>
      </trkpt>
      <trkpt lat="45.59375" lon="4.64512">
        <ele>381.3</ele>
        <time>2015-04-26T06:35:27Z</time>
      </trkpt>
      <trkpt lat="45.5937" lon="4.64539">
        <ele>383.7</ele>
        <time>2015-04-26T06:35:38Z</time>
      </trkpt>
      <trkpt lat="45.59365" lon="4.64552">
        <ele>387.07</ele>
        <time>2015-04-26T06:35:49Z</time>
      </trkpt>
      <trkpt lat="45.59364" lon="4.64566">
        <ele>388.99</ele>
        <time>2015-04-26T06:36:00Z</time>
      </trkpt>
      <trkpt lat="45.59364" lon="4.64579">
        <ele>389.47</ele>
        <time>2015-04-26T06:36:14Z</time>
      </trkpt>
      <trkpt lat="45.59366" lon="4.64593">
        <ele>392.36</ele>
        <time>2015-04-26T06:36:25Z</time>
      </trkpt>
      <trkpt lat="45.59364" lon="4.64618">
        <ele>399.08</ele>
        <time>2015-04-26T06:36:42Z</time>
      </trkpt>
      <trkpt lat="45.59363" lon="4.64635">
        <ele>401.97</ele>
        <time>2015-04-26T06:36:56Z</time>
      </trkpt>
      <trkpt lat="45.59362" lon="4.64667">
        <ele>399.08</ele>
        <time>2015-04-26T06:37:09Z</time>
      </trkpt>
      <trkpt lat="45.59359" lon="4.64705">
        <ele>398.12</ele>
        <time>2015-04-26T06:37:23Z</time>
      </trkpt>
      <trkpt lat="45.5935" lon="4.64746">
        <ele>395.24</ele>
        <time>2015-04-26T06:37:35Z</time>
      </trkpt>
      <trkpt lat="45.59347" lon="4.64759">
        <ele>393.8</ele>
        <time>2015-04-26T06:37:44Z</time>
      </trkpt>
      <trkpt lat="45.59345" lon="4.6476">
        <ele>392.84</ele>
        <time>2015-04-26T06:38:00Z</time>
      </trkpt>
      <trkpt lat="45.59345" lon="4.64759">
        <ele>393.32</ele>
        <time>2015-04-26T06:38:24Z</time>
      </trkpt>
      <trkpt lat="45.59344" lon="4.64758">
        <ele>392.84</ele>
        <time>2015-04-26T06:38:51Z</time>
      </trkpt>
      <trkpt lat="45.59345" lon="4.64759">
        <ele>395.24</ele>
        <time>2015-04-26T06:39:11Z</time>
      </trkpt>
      <trkpt lat="45.59346" lon="4.64758">
        <ele>395.24</ele>
        <time>2015-04-26T06:39:44Z</time>
      </trkpt>
      <trkpt lat="45.59346" lon="4.64758">
        <ele>397.16</ele>
        <time>2015-04-26T06:40:10Z</time>
      </trkpt>
      <trkpt lat="45.59344" lon="4.64758">
        <ele>397.16</ele>
        <time>2015-04-26T06:40:47Z</time>
      </trkpt>
      <trkpt lat="45.59344" lon="4.6476">
        <ele>397.16</ele>
        <time>2015-04-26T06:41:12Z</time>
      </trkpt>
      <trkpt lat="45.59344" lon="4.64762">
        <ele>396.68</ele>
        <time>2015-04-26T06:41:19Z</time>
      </trkpt>
      <trkpt lat="45.59346" lon="4.64762">
        <ele>396.2</ele>
        <time>2015-04-26T06:41:21Z</time>
      </trkpt>
      <trkpt lat="45.5935" lon="4.64766">
        <ele>396.2</ele>
        <time>2015-04-26T06:41:25Z</time>
      </trkpt>
      <trkpt lat="45.59353" lon="4.64768">
        <ele>395.72</ele>
        <time>2015-04-26T06:41:26Z</time>
      </trkpt>
      <trkpt lat="45.59355" lon="4.64769">
        <ele>395.72</ele>
        <time>2015-04-26T06:41:27Z</time>
      </trkpt>
      <trkpt lat="45.59398" lon="4.64801">
        <ele>391.39</ele>
        <time>2015-04-26T06:41:38Z</time>
      </trkpt>
      <trkpt lat="45.59439" lon="4.64848">
        <ele>386.59</ele>
        <time>2015-04-26T06:41:49Z</time>
      </trkpt>
      <trkpt lat="45.59441" lon="4.64849">
        <ele>386.59</ele>
        <time>2015-04-26T06:41:50Z</time>
      </trkpt>
      <trkpt lat="45.59457" lon="4.64853">
        <ele>385.15</ele>
        <time>2015-04-26T06:41:54Z</time>
      </trkpt>
      <trkpt lat="45.59474" lon="4.6486">
        <ele>384.18</ele>
        <time>2015-04-26T06:41:58Z</time>
      </trkpt>
      <trkpt lat="45.59514" lon="4.64868">
        <ele>382.26</ele>
        <time>2015-04-26T06:42:10Z</time>
      </trkpt>
      <trkpt lat="45.59555" lon="4.64875">
        <ele>379.38</ele>
        <time>2015-04-26T06:42:22Z</time>
      </trkpt>
      <trkpt lat="45.59583" lon="4.64878">
        <ele>377.94</ele>
        <time>2015-04-26T06:42:33Z</time>
      </trkpt>
      <trkpt lat="45.59626" lon="4.64885">
        <ele>375.05</ele>
        <time>2015-04-26T06:42:46Z</time>
      </trkpt>
      <trkpt lat="45.59637" lon="4.64886">
        <ele>372.65</ele>
        <time>2015-04-26T06:42:55Z</time>
      </trkpt>
      <trkpt lat="45.59639" lon="4.64885">
        <ele>372.65</ele>
        <time>2015-04-26T06:42:58Z</time>
      </trkpt>
      <trkpt lat="45.59641" lon="4.64886">
        <ele>372.17</ele>
        <time>2015-04-26T06:42:59Z</time>
      </trkpt>
      <trkpt lat="45.59644" lon="4.64886">
        <ele>371.69</ele>
        <time>2015-04-26T06:43:00Z</time>
      </trkpt>
      <trkpt lat="45.59653" lon="4.64884">
        <ele>371.69</ele>
        <time>2015-04-26T06:43:03Z</time>
      </trkpt>
      <trkpt lat="45.59655" lon="4.64886">
        <ele>371.21</ele>
        <time>2015-04-26T06:43:04Z</time>
      </trkpt>
      <trkpt lat="45.59658" lon="4.64889">
        <ele>371.21</ele>
        <time>2015-04-26T06:43:05Z</time>
      </trkpt>
      <trkpt lat="45.59659" lon="4.64893">
        <ele>371.21</ele>
        <time>2015-04-26T06:43:06Z</time>
      </trkpt>
      <trkpt lat="45.59659" lon="4.64898">
        <ele>371.21</ele>
        <time>2015-04-26T06:43:07Z</time>
      </trkpt>
      <trkpt lat="45.59661" lon="4.64903">
        <ele>370.73</ele>
        <time>2015-04-26T06:43:08Z</time>
      </trkpt>
      <trkpt lat="45.59663" lon="4.64909">
        <ele>370.24</ele>
        <time>2015-04-26T06:43:09Z</time>
      </trkpt>
      <trkpt lat="45.59666" lon="4.64915">
        <ele>369.76</ele>
        <time>2015-04-26T06:43:10Z</time>
      </trkpt>
      <trkpt lat="45.59679" lon="4.64936">
        <ele>368.32</ele>
        <time>2015-04-26T06:43:13Z</time>
      </trkpt>
      <trkpt lat="45.59714" lon="4.65004">
        <ele>362.55</ele>
        <time>2015-04-26T06:43:22Z</time>
      </trkpt>
      <trkpt lat="45.59723" lon="4.65024">
        <ele>361.59</ele>
        <time>2015-04-26T06:43:25Z</time>
      </trkpt>
      <trkpt lat="45.59724" lon="4.65029">
        <ele>361.11</ele>
        <time>2015-04-26T06:43:26Z</time>
      </trkpt>
      <trkpt lat="45.59734" lon="4.65072">
        <ele>361.59</ele>
        <time>2015-04-26T06:43:37Z</time>
      </trkpt>
      <trkpt lat="45.59735" lon="4.65078">
        <ele>361.59</ele>
        <time>2015-04-26T06:43:38Z</time>
      </trkpt>
      <trkpt lat="45.59736" lon="4.65083">
        <ele>361.59</ele>
        <time>2015-04-26T06:43:39Z</time>
      </trkpt>
      <trkpt lat="45.59739" lon="4.65102">
        <ele>361.11</ele>
        <time>2015-04-26T06:43:42Z</time>
      </trkpt>
      <trkpt lat="45.59743" lon="4.65122">
        <ele>360.63</ele>
        <time>2015-04-26T06:43:45Z</time>
      </trkpt>
      <trkpt lat="45.59749" lon="4.65187">
        <ele>361.59</ele>
        <time>2015-04-26T06:43:56Z</time>
      </trkpt>
      <trkpt lat="45.59751" lon="4.65211">
        <ele>361.11</ele>
        <time>2015-04-26T06:44:00Z</time>
      </trkpt>
      <trkpt lat="45.59752" lon="4.65218">
        <ele>360.63</ele>
        <time>2015-04-26T06:44:01Z</time>
      </trkpt>
      <trkpt lat="45.59752" lon="4.65224">
        <ele>360.63</ele>
        <time>2015-04-26T06:44:02Z</time>
      </trkpt>
      <trkpt lat="45.59753" lon="4.65231">
        <ele>360.63</ele>
        <time>2015-04-26T06:44:03Z</time>
      </trkpt>
      <trkpt lat="45.59753" lon="4.65237">
        <ele>360.63</ele>
        <time>2015-04-26T06:44:04Z</time>
      </trkpt>
      <trkpt lat="45.59757" lon="4.65291">
        <ele>359.67</ele>
        <time>2015-04-26T06:44:14Z</time>
      </trkpt>
      <trkpt lat="45.59756" lon="4.65324">
        <ele>360.15</ele>
        <time>2015-04-26T06:44:20Z</time>
      </trkpt>
      <trkpt lat="45.59756" lon="4.65329">
        <ele>360.15</ele>
        <time>2015-04-26T06:44:21Z</time>
      </trkpt>
      <trkpt lat="45.59756" lon="4.65334">
        <ele>359.67</ele>
        <time>2015-04-26T06:44:22Z</time>
      </trkpt>
      <trkpt lat="45.59756" lon="4.65337">
        <ele>359.19</ele>
        <time>2015-04-26T06:44:23Z</time>
      </trkpt>
      <trkpt lat="45.59756" lon="4.6534">
        <ele>359.19</ele>
        <time>2015-04-26T06:44:24Z</time>
      </trkpt>
      <trkpt lat="45.59756" lon="4.65342">
        <ele>358.71</ele>
        <time>2015-04-26T06:44:25Z</time>
      </trkpt>
      <trkpt lat="45.59754" lon="4.65349">
        <ele>357.75</ele>
        <time>2015-04-26T06:44:28Z</time>
      </trkpt>
      <trkpt lat="45.59754" lon="4.65353">
        <ele>357.75</ele>
        <time>2015-04-26T06:44:29Z</time>
      </trkpt>
      <trkpt lat="45.59754" lon="4.65356">
        <ele>357.27</ele>
        <time>2015-04-26T06:44:30Z</time>
      </trkpt>
      <trkpt lat="45.59754" lon="4.65359">
        <ele>357.27</ele>
        <time>2015-04-26T06:44:31Z</time>
      </trkpt>
      <trkpt lat="45.59754" lon="4.65363">
        <ele>357.27</ele>
        <time>2015-04-26T06:44:32Z</time>
      </trkpt>
      <trkpt lat="45.59754" lon="4.65366">
        <ele>357.27</ele>
        <time>2015-04-26T06:44:33Z</time>
      </trkpt>
      <trkpt lat="45.59754" lon="4.6537">
        <ele>357.27</ele>
        <time>2015-04-26T06:44:34Z</time>
      </trkpt>
      <trkpt lat="45.59749" lon="4.65423">
        <ele>358.71</ele>
        <time>2015-04-26T06:44:43Z</time>
      </trkpt>
      <trkpt lat="45.59749" lon="4.65429">
        <ele>358.23</ele>
        <time>2015-04-26T06:44:44Z</time>
      </trkpt>
      <trkpt lat="45.59749" lon="4.65435">
        <ele>358.23</ele>
        <time>2015-04-26T06:44:45Z</time>
      </trkpt>
      <trkpt lat="45.59748" lon="4.65441">
        <ele>358.23</ele>
        <time>2015-04-26T06:44:46Z</time>
      </trkpt>
      <trkpt lat="45.59749" lon="4.65446">
        <ele>358.71</ele>
        <time>2015-04-26T06:44:47Z</time>
      </trkpt>
      <trkpt lat="45.5975" lon="4.6545">
        <ele>358.71</ele>
        <time>2015-04-26T06:44:48Z</time>
      </trkpt>
      <trkpt lat="45.59753" lon="4.65452">
        <ele>359.19</ele>
        <time>2015-04-26T06:44:49Z</time>
      </trkpt>
      <trkpt lat="45.59756" lon="4.65455">
        <ele>359.67</ele>
        <time>2015-04-26T06:44:50Z</time>
      </trkpt>
      <trkpt lat="45.59758" lon="4.6546">
        <ele>360.15</ele>
        <time>2015-04-26T06:44:51Z</time>
      </trkpt>
      <trkpt lat="45.5976" lon="4.65465">
        <ele>360.15</ele>
        <time>2015-04-26T06:44:52Z</time>
      </trkpt>
      <trkpt lat="45.59761" lon="4.65471">
        <ele>360.15</ele>
        <time>2015-04-26T06:44:53Z</time>
      </trkpt>
      <trkpt lat="45.59762" lon="4.65478">
        <ele>360.15</ele>
        <time>2015-04-26T06:44:54Z</time>
      </trkpt>
      <trkpt lat="45.59763" lon="4.65485">
        <ele>359.67</ele>
        <time>2015-04-26T06:44:55Z</time>
      </trkpt>
      <trkpt lat="45.59763" lon="4.65492">
        <ele>359.67</ele>
        <time>2015-04-26T06:44:56Z</time>
      </trkpt>
      <trkpt lat="45.59762" lon="4.65498">
        <ele>359.67</ele>
        <time>2015-04-26T06:44:57Z</time>
      </trkpt>
      <trkpt lat="45.5976" lon="4.65505">
        <ele>359.67</ele>
        <time>2015-04-26T06:44:58Z</time>
      </trkpt>
      <trkpt lat="45.59764" lon="4.65563">
        <ele>357.27</ele>
        <time>2015-04-26T06:45:08Z</time>
      </trkpt>
      <trkpt lat="45.59789" lon="4.65583">
        <ele>357.75</ele>
        <time>2015-04-26T06:45:18Z</time>
      </trkpt>
      <trkpt lat="45.59818" lon="4.65576">
        <ele>360.15</ele>
        <time>2015-04-26T06:45:29Z</time>
      </trkpt>
      <trkpt lat="45.59838" lon="4.65567">
        <ele>361.59</ele>
        <time>2015-04-26T06:45:37Z</time>
      </trkpt>
      <trkpt lat="45.5984" lon="4.65567">
        <ele>361.59</ele>
        <time>2015-04-26T06:45:38Z</time>
      </trkpt>
      <trkpt lat="45.59872" lon="4.65582">
        <ele>363.04</ele>
        <time>2015-04-26T06:45:52Z</time>
      </trkpt>
      <trkpt lat="45.59907" lon="4.65603">
        <ele>363.52</ele>
        <time>2015-04-26T06:46:08Z</time>
      </trkpt>
      <trkpt lat="45.59945" lon="4.65626">
        <ele>363.52</ele>
        <time>2015-04-26T06:46:23Z</time>
      </trkpt>
      <trkpt lat="45.60003" lon="4.65669">
        <ele>362.07</ele>
        <time>2015-04-26T06:46:39Z</time>
      </trkpt>
      <trkpt lat="45.6002" lon="4.65682">
        <ele>360.63</ele>
        <time>2015-04-26T06:46:43Z</time>
      </trkpt>
      <trkpt lat="45.60024" lon="4.65686">
        <ele>360.63</ele>
        <time>2015-04-26T06:46:44Z</time>
      </trkpt>
      <trkpt lat="45.60029" lon="4.65689">
        <ele>360.15</ele>
        <time>2015-04-26T06:46:45Z</time>
      </trkpt>
      <trkpt lat="45.60033" lon="4.65691">
        <ele>360.15</ele>
        <time>2015-04-26T06:46:46Z</time>
      </trkpt>
      <trkpt lat="45.60038" lon="4.65694">
        <ele>359.67</ele>
        <time>2015-04-26T06:46:47Z</time>
      </trkpt>
      <trkpt lat="45.60047" lon="4.65701">
        <ele>359.67</ele>
        <time>2015-04-26T06:46:49Z</time>
      </trkpt>
      <trkpt lat="45.60057" lon="4.65709">
        <ele>358.71</ele>
        <time>2015-04-26T06:46:51Z</time>
      </trkpt>
      <trkpt lat="45.60071" lon="4.65722">
        <ele>357.27</ele>
        <time>2015-04-26T06:46:54Z</time>
      </trkpt>
      <trkpt lat="45.60075" lon="4.65726">
        <ele>356.79</ele>
        <time>2015-04-26T06:46:55Z</time>
      </trkpt>
      <trkpt lat="45.60115" lon="4.65765">
        <ele>353.42</ele>
        <time>2015-04-26T06:47:05Z</time>
      </trkpt>
      <trkpt lat="45.60128" lon="4.65781">
        <ele>349.58</ele>
        <time>2015-04-26T06:47:14Z</time>
      </trkpt>
      <trkpt lat="45.6014" lon="4.65797">
        <ele>346.21</ele>
        <time>2015-04-26T06:47:21Z</time>
      </trkpt>
      <trkpt lat="45.60143" lon="4.658">
        <ele>344.77</ele>
        <time>2015-04-26T06:47:23Z</time>
      </trkpt>
      <trkpt lat="45.60145" lon="4.65803">
        <ele>343.81</ele>
        <time>2015-04-26T06:47:25Z</time>
      </trkpt>
      <trkpt lat="45.60146" lon="4.65805">
        <ele>343.33</ele>
        <time>2015-04-26T06:47:26Z</time>
      </trkpt>
      <trkpt lat="45.60146" lon="4.65807">
        <ele>342.85</ele>
        <time>2015-04-26T06:47:27Z</time>
      </trkpt>
      <trkpt lat="45.60146" lon="4.6581">
        <ele>342.37</ele>
        <time>2015-04-26T06:47:28Z</time>
      </trkpt>
      <trkpt lat="45.60147" lon="4.65813">
        <ele>341.89</ele>
        <time>2015-04-26T06:47:29Z</time>
      </trkpt>
      <trkpt lat="45.60147" lon="4.65816">
        <ele>341.41</ele>
        <time>2015-04-26T06:47:30Z</time>
      </trkpt>
      <trkpt lat="45.60148" lon="4.6582">
        <ele>340.92</ele>
        <time>2015-04-26T06:47:31Z</time>
      </trkpt>
      <trkpt lat="45.60149" lon="4.65822">
        <ele>339.96</ele>
        <time>2015-04-26T06:47:32Z</time>
      </trkpt>
      <trkpt lat="45.6015" lon="4.65828">
        <ele>339</ele>
        <time>2015-04-26T06:47:37Z</time>
      </trkpt>
      <trkpt lat="45.60151" lon="4.6583">
        <ele>339</ele>
        <time>2015-04-26T06:47:38Z</time>
      </trkpt>
      <trkpt lat="45.60152" lon="4.65833">
        <ele>339</ele>
        <time>2015-04-26T06:47:39Z</time>
      </trkpt>
      <trkpt lat="45.60159" lon="4.65854">
        <ele>342.85</ele>
        <time>2015-04-26T06:47:54Z</time>
      </trkpt>
      <trkpt lat="45.60161" lon="4.65859">
        <ele>344.29</ele>
        <time>2015-04-26T06:47:58Z</time>
      </trkpt>
      <trkpt lat="45.60165" lon="4.65879">
        <ele>349.58</ele>
        <time>2015-04-26T06:48:10Z</time>
      </trkpt>
      <trkpt lat="45.60165" lon="4.65887">
        <ele>353.9</ele>
        <time>2015-04-26T06:48:16Z</time>
      </trkpt>
      <trkpt lat="45.60165" lon="4.65889">
        <ele>354.86</ele>
        <time>2015-04-26T06:48:17Z</time>
      </trkpt>
      <trkpt lat="45.60165" lon="4.65904">
        <ele>356.31</ele>
        <time>2015-04-26T06:48:27Z</time>
      </trkpt>
      <trkpt lat="45.60155" lon="4.65929">
        <ele>355.83</ele>
        <time>2015-04-26T06:48:39Z</time>
      </trkpt>
      <trkpt lat="45.60151" lon="4.65952">
        <ele>357.75</ele>
        <time>2015-04-26T06:48:50Z</time>
      </trkpt>
      <trkpt lat="45.60152" lon="4.65967">
        <ele>361.59</ele>
        <time>2015-04-26T06:49:01Z</time>
      </trkpt>
      <trkpt lat="45.60155" lon="4.65981">
        <ele>363.52</ele>
        <time>2015-04-26T06:49:12Z</time>
      </trkpt>
      <trkpt lat="45.60158" lon="4.65988">
        <ele>362.07</ele>
        <time>2015-04-26T06:49:21Z</time>
      </trkpt>
      <trkpt lat="45.60159" lon="4.6599">
        <ele>362.07</ele>
        <time>2015-04-26T06:49:22Z</time>
      </trkpt>
      <trkpt lat="45.60159" lon="4.65991">
        <ele>362.07</ele>
        <time>2015-04-26T06:49:23Z</time>
      </trkpt>
      <trkpt lat="45.60163" lon="4.65997">
        <ele>361.59</ele>
        <time>2015-04-26T06:49:27Z</time>
      </trkpt>
      <trkpt lat="45.60167" lon="4.66019">
        <ele>362.55</ele>
        <time>2015-04-26T06:49:40Z</time>
      </trkpt>
      <trkpt lat="45.60168" lon="4.66035">
        <ele>363.04</ele>
        <time>2015-04-26T06:49:52Z</time>
      </trkpt>
      <trkpt lat="45.60169" lon="4.66037">
        <ele>363.52</ele>
        <time>2015-04-26T06:49:54Z</time>
      </trkpt>
      <trkpt lat="45.60174" lon="4.66053">
        <ele>364.48</ele>
        <time>2015-04-26T06:50:08Z</time>
      </trkpt>
      <trkpt lat="45.60179" lon="4.66079">
        <ele>365.44</ele>
        <time>2015-04-26T06:50:20Z</time>
      </trkpt>
      <trkpt lat="45.60186" lon="4.66114">
        <ele>367.36</ele>
        <time>2015-04-26T06:50:35Z</time>
      </trkpt>
      <trkpt lat="45.60193" lon="4.6615">
        <ele>368.8</ele>
        <time>2015-04-26T06:50:50Z</time>
      </trkpt>
      <trkpt lat="45.60193" lon="4.66152">
        <ele>368.8</ele>
        <time>2015-04-26T06:50:51Z</time>
      </trkpt>
      <trkpt lat="45.60194" lon="4.66154">
        <ele>369.28</ele>
        <time>2015-04-26T06:50:52Z</time>
      </trkpt>
      <trkpt lat="45.60195" lon="4.66157">
        <ele>368.8</ele>
        <time>2015-04-26T06:50:53Z</time>
      </trkpt>
      <trkpt lat="45.60196" lon="4.66159">
        <ele>368.8</ele>
        <time>2015-04-26T06:50:54Z</time>
      </trkpt>
      <trkpt lat="45.6021" lon="4.66197">
        <ele>369.28</ele>
        <time>2015-04-26T06:51:11Z</time>
      </trkpt>
      <trkpt lat="45.60225" lon="4.66219">
        <ele>370.24</ele>
        <time>2015-04-26T06:51:24Z</time>
      </trkpt>
      <trkpt lat="45.60242" lon="4.66238">
        <ele>372.65</ele>
        <time>2015-04-26T06:51:38Z</time>
      </trkpt>
      <trkpt lat="45.60266" lon="4.6626">
        <ele>375.05</ele>
        <time>2015-04-26T06:51:54Z</time>
      </trkpt>
      <trkpt lat="45.60289" lon="4.66276">
        <ele>375.05</ele>
        <time>2015-04-26T06:52:09Z</time>
      </trkpt>
      <trkpt lat="45.60318" lon="4.66267">
        <ele>375.53</ele>
        <time>2015-04-26T06:52:22Z</time>
      </trkpt>
      <trkpt lat="45.6035" lon="4.66272">
        <ele>376.01</ele>
        <time>2015-04-26T06:52:34Z</time>
      </trkpt>
      <trkpt lat="45.60389" lon="4.66292">
        <ele>376.97</ele>
        <time>2015-04-26T06:52:47Z</time>
      </trkpt>
      <trkpt lat="45.60449" lon="4.66325">
        <ele>375.53</ele>
        <time>2015-04-26T06:53:04Z</time>
      </trkpt>
      <trkpt lat="45.60484" lon="4.66361">
        <ele>375.53</ele>
        <time>2015-04-26T06:53:16Z</time>
      </trkpt>
      <trkpt lat="45.60518" lon="4.66381">
        <ele>376.49</ele>
        <time>2015-04-26T06:53:27Z</time>
      </trkpt>
      <trkpt lat="45.60544" lon="4.66397">
        <ele>376.97</ele>
        <time>2015-04-26T06:53:35Z</time>
      </trkpt>
      <trkpt lat="45.60548" lon="4.66399">
        <ele>376.97</ele>
        <time>2015-04-26T06:53:36Z</time>
      </trkpt>
      <trkpt lat="45.6057" lon="4.66414">
        <ele>378.9</ele>
        <time>2015-04-26T06:53:42Z</time>
      </trkpt>
      <trkpt lat="45.6058" lon="4.66424">
        <ele>379.38</ele>
        <time>2015-04-26T06:53:45Z</time>
      </trkpt>
      <trkpt lat="45.60592" lon="4.66433">
        <ele>380.34</ele>
        <time>2015-04-26T06:53:48Z</time>
      </trkpt>
      <trkpt lat="45.60648" lon="4.66472">
        <ele>380.34</ele>
        <time>2015-04-26T06:54:02Z</time>
      </trkpt>
      <trkpt lat="45.60665" lon="4.66485">
        <ele>380.34</ele>
        <time>2015-04-26T06:54:06Z</time>
      </trkpt>
      <trkpt lat="45.60678" lon="4.66492">
        <ele>380.34</ele>
        <time>2015-04-26T06:54:09Z</time>
      </trkpt>
      <trkpt lat="45.60682" lon="4.66495">
        <ele>380.34</ele>
        <time>2015-04-26T06:54:10Z</time>
      </trkpt>
      <trkpt lat="45.60686" lon="4.66497">
        <ele>380.34</ele>
        <time>2015-04-26T06:54:11Z</time>
      </trkpt>
      <trkpt lat="45.60691" lon="4.66498">
        <ele>380.82</ele>
        <time>2015-04-26T06:54:12Z</time>
      </trkpt>
      <trkpt lat="45.60695" lon="4.66499">
        <ele>380.82</ele>
        <time>2015-04-26T06:54:13Z</time>
      </trkpt>
      <trkpt lat="45.60714" lon="4.66505">
        <ele>380.34</ele>
        <time>2015-04-26T06:54:18Z</time>
      </trkpt>
      <trkpt lat="45.60725" lon="4.6651">
        <ele>380.82</ele>
        <time>2015-04-26T06:54:21Z</time>
      </trkpt>
      <trkpt lat="45.60729" lon="4.66514">
        <ele>380.34</ele>
        <time>2015-04-26T06:54:22Z</time>
      </trkpt>
      <trkpt lat="45.60736" lon="4.66523">
        <ele>379.86</ele>
        <time>2015-04-26T06:54:24Z</time>
      </trkpt>
      <trkpt lat="45.60741" lon="4.66526">
        <ele>379.86</ele>
        <time>2015-04-26T06:54:25Z</time>
      </trkpt>
      <trkpt lat="45.60806" lon="4.66581">
        <ele>377.94</ele>
        <time>2015-04-26T06:54:40Z</time>
      </trkpt>
      <trkpt lat="45.60858" lon="4.66626">
        <ele>376.97</ele>
        <time>2015-04-26T06:54:52Z</time>
      </trkpt>
      <trkpt lat="45.60862" lon="4.66631">
        <ele>376.97</ele>
        <time>2015-04-26T06:54:53Z</time>
      </trkpt>
      <trkpt lat="45.60873" lon="4.66648">
        <ele>376.49</ele>
        <time>2015-04-26T06:54:56Z</time>
      </trkpt>
      <trkpt lat="45.60941" lon="4.66745">
        <ele>372.65</ele>
        <time>2015-04-26T06:55:12Z</time>
      </trkpt>
      <trkpt lat="45.61006" lon="4.66836">
        <ele>369.76</ele>
        <time>2015-04-26T06:55:28Z</time>
      </trkpt>
      <trkpt lat="45.61067" lon="4.66911">
        <ele>366.4</ele>
        <time>2015-04-26T06:55:43Z</time>
      </trkpt>
      <trkpt lat="45.61113" lon="4.66955">
        <ele>364.48</ele>
        <time>2015-04-26T06:55:54Z</time>
      </trkpt>
      <trkpt lat="45.61117" lon="4.66959">
        <ele>364</ele>
        <time>2015-04-26T06:55:55Z</time>
      </trkpt>
      <trkpt lat="45.61121" lon="4.66962">
        <ele>364</ele>
        <time>2015-04-26T06:55:56Z</time>
      </trkpt>
      <trkpt lat="45.61125" lon="4.66966">
        <ele>363.52</ele>
        <time>2015-04-26T06:55:57Z</time>
      </trkpt>
      <trkpt lat="45.61127" lon="4.6697">
        <ele>363.52</ele>
        <time>2015-04-26T06:55:58Z</time>
      </trkpt>
      <trkpt lat="45.61137" lon="4.66977">
        <ele>362.55</ele>
        <time>2015-04-26T06:56:01Z</time>
      </trkpt>
      <trkpt lat="45.61142" lon="4.66978">
        <ele>362.07</ele>
        <time>2015-04-26T06:56:02Z</time>
      </trkpt>
      <trkpt lat="45.61147" lon="4.66978">
        <ele>362.07</ele>
        <time>2015-04-26T06:56:03Z</time>
      </trkpt>
      <trkpt lat="45.61158" lon="4.66979">
        <ele>361.11</ele>
        <time>2015-04-26T06:56:05Z</time>
      </trkpt>
      <trkpt lat="45.61235" lon="4.66977">
        <ele>352.94</ele>
        <time>2015-04-26T06:56:15Z</time>
      </trkpt>
      <trkpt lat="45.61298" lon="4.66979">
        <ele>346.21</ele>
        <time>2015-04-26T06:56:23Z</time>
      </trkpt>
      <trkpt lat="45.61325" lon="4.66976">
        <ele>345.25</ele>
        <time>2015-04-26T06:56:30Z</time>
      </trkpt>
      <trkpt lat="45.6133" lon="4.66975">
        <ele>344.77</ele>
        <time>2015-04-26T06:56:31Z</time>
      </trkpt>
      <trkpt lat="45.61356" lon="4.66969">
        <ele>342.85</ele>
        <time>2015-04-26T06:56:35Z</time>
      </trkpt>
      <trkpt lat="45.61386" lon="4.66961">
        <ele>340.92</ele>
        <time>2015-04-26T06:56:39Z</time>
      </trkpt>
      <trkpt lat="45.614" lon="4.66959">
        <ele>339.48</ele>
        <time>2015-04-26T06:56:41Z</time>
      </trkpt>
      <trkpt lat="45.61437" lon="4.66955">
        <ele>335.16</ele>
        <time>2015-04-26T06:56:47Z</time>
      </trkpt>
      <trkpt lat="45.6145" lon="4.66962">
        <ele>333.23</ele>
        <time>2015-04-26T06:56:49Z</time>
      </trkpt>
      <trkpt lat="45.61462" lon="4.66974">
        <ele>331.31</ele>
        <time>2015-04-26T06:56:51Z</time>
      </trkpt>
      <trkpt lat="45.6148" lon="4.66996">
        <ele>328.91</ele>
        <time>2015-04-26T06:56:55Z</time>
      </trkpt>
      <trkpt lat="45.61484" lon="4.66999">
        <ele>328.43</ele>
        <time>2015-04-26T06:56:56Z</time>
      </trkpt>
      <trkpt lat="45.61488" lon="4.67001">
        <ele>328.43</ele>
        <time>2015-04-26T06:56:57Z</time>
      </trkpt>
      <trkpt lat="45.61493" lon="4.67002">
        <ele>327.95</ele>
        <time>2015-04-26T06:56:58Z</time>
      </trkpt>
      <trkpt lat="45.61497" lon="4.67002">
        <ele>328.43</ele>
        <time>2015-04-26T06:56:59Z</time>
      </trkpt>
      <trkpt lat="45.61501" lon="4.67003">
        <ele>328.43</ele>
        <time>2015-04-26T06:57:00Z</time>
      </trkpt>
      <trkpt lat="45.61506" lon="4.67003">
        <ele>328.43</ele>
        <time>2015-04-26T06:57:01Z</time>
      </trkpt>
      <trkpt lat="45.61552" lon="4.67018">
        <ele>330.35</ele>
        <time>2015-04-26T06:57:13Z</time>
      </trkpt>
      <trkpt lat="45.61571" lon="4.6704">
        <ele>331.79</ele>
        <time>2015-04-26T06:57:19Z</time>
      </trkpt>
      <trkpt lat="45.61574" lon="4.67045">
        <ele>331.79</ele>
        <time>2015-04-26T06:57:20Z</time>
      </trkpt>
      <trkpt lat="45.61575" lon="4.67051">
        <ele>332.27</ele>
        <time>2015-04-26T06:57:21Z</time>
      </trkpt>
      <trkpt lat="45.61576" lon="4.67057">
        <ele>332.27</ele>
        <time>2015-04-26T06:57:22Z</time>
      </trkpt>
      <trkpt lat="45.61576" lon="4.67063">
        <ele>332.27</ele>
        <time>2015-04-26T06:57:23Z</time>
      </trkpt>
      <trkpt lat="45.61575" lon="4.67071">
        <ele>332.75</ele>
        <time>2015-04-26T06:57:24Z</time>
      </trkpt>
      <trkpt lat="45.61573" lon="4.67077">
        <ele>332.75</ele>
        <time>2015-04-26T06:57:25Z</time>
      </trkpt>
      <trkpt lat="45.6157" lon="4.67082">
        <ele>332.75</ele>
        <time>2015-04-26T06:57:26Z</time>
      </trkpt>
      <trkpt lat="45.6156" lon="4.67108">
        <ele>333.71</ele>
        <time>2015-04-26T06:57:30Z</time>
      </trkpt>
      <trkpt lat="45.61547" lon="4.67139">
        <ele>334.2</ele>
        <time>2015-04-26T06:57:35Z</time>
      </trkpt>
      <trkpt lat="45.61515" lon="4.67212">
        <ele>338.04</ele>
        <time>2015-04-26T06:57:49Z</time>
      </trkpt>
      <trkpt lat="45.61515" lon="4.67216">
        <ele>338.52</ele>
        <time>2015-04-26T06:57:50Z</time>
      </trkpt>
      <trkpt lat="45.61523" lon="4.67242">
        <ele>340.44</ele>
        <time>2015-04-26T06:58:03Z</time>
      </trkpt>
      <trkpt lat="45.61524" lon="4.67248">
        <ele>340.92</ele>
        <time>2015-04-26T06:58:06Z</time>
      </trkpt>
      <trkpt lat="45.61522" lon="4.67256">
        <ele>343.33</ele>
        <time>2015-04-26T06:58:16Z</time>
      </trkpt>
      <trkpt lat="45.6152" lon="4.67258">
        <ele>344.29</ele>
        <time>2015-04-26T06:58:19Z</time>
      </trkpt>
      <trkpt lat="45.61518" lon="4.67263">
        <ele>345.25</ele>
        <time>2015-04-26T06:58:23Z</time>
      </trkpt>
      <trkpt lat="45.61526" lon="4.67267">
        <ele>346.69</ele>
        <time>2015-04-26T06:58:29Z</time>
      </trkpt>
      <trkpt lat="45.61533" lon="4.67271">
        <ele>347.17</ele>
        <time>2015-04-26T06:58:33Z</time>
      </trkpt>
      <trkpt lat="45.61541" lon="4.67283">
        <ele>349.1</ele>
        <time>2015-04-26T06:58:41Z</time>
      </trkpt>
      <trkpt lat="45.61551" lon="4.67295">
        <ele>351.02</ele>
        <time>2015-04-26T06:58:50Z</time>
      </trkpt>
      <trkpt lat="45.61568" lon="4.67317">
        <ele>354.86</ele>
        <time>2015-04-26T06:59:05Z</time>
      </trkpt>
      <trkpt lat="45.61581" lon="4.67346">
        <ele>357.75</ele>
        <time>2015-04-26T06:59:21Z</time>
      </trkpt>
      <trkpt lat="45.61585" lon="4.67353">
        <ele>358.71</ele>
        <time>2015-04-26T06:59:25Z</time>
      </trkpt>
      <trkpt lat="45.61587" lon="4.67363">
        <ele>358.71</ele>
        <time>2015-04-26T06:59:30Z</time>
      </trkpt>
      <trkpt lat="45.61591" lon="4.67375">
        <ele>359.19</ele>
        <time>2015-04-26T06:59:36Z</time>
      </trkpt>
      <trkpt lat="45.61603" lon="4.67412">
        <ele>362.07</ele>
        <time>2015-04-26T06:59:52Z</time>
      </trkpt>
      <trkpt lat="45.61609" lon="4.67427">
        <ele>363.52</ele>
        <time>2015-04-26T06:59:59Z</time>
      </trkpt>
      <trkpt lat="45.61611" lon="4.67431">
        <ele>364</ele>
        <time>2015-04-26T07:00:01Z</time>
      </trkpt>
      <trkpt lat="45.61613" lon="4.67433">
        <ele>364</ele>
        <time>2015-04-26T07:00:02Z</time>
      </trkpt>
      <trkpt lat="45.61613" lon="4.67436">
        <ele>364</ele>
        <time>2015-04-26T07:00:03Z</time>
      </trkpt>
      <trkpt lat="45.61614" lon="4.67438">
        <ele>364</ele>
        <time>2015-04-26T07:00:04Z</time>
      </trkpt>
      <trkpt lat="45.61615" lon="4.67441">
        <ele>364</ele>
        <time>2015-04-26T07:00:05Z</time>
      </trkpt>
      <trkpt lat="45.61615" lon="4.67444">
        <ele>364</ele>
        <time>2015-04-26T07:00:06Z</time>
      </trkpt>
      <trkpt lat="45.61628" lon="4.67478">
        <ele>364.96</ele>
        <time>2015-04-26T07:00:19Z</time>
      </trkpt>
      <trkpt lat="45.61642" lon="4.67514">
        <ele>365.44</ele>
        <time>2015-04-26T07:00:31Z</time>
      </trkpt>
      <trkpt lat="45.61654" lon="4.67521">
        <ele>365.92</ele>
        <time>2015-04-26T07:00:37Z</time>
      </trkpt>
      <trkpt lat="45.61655" lon="4.67525">
        <ele>366.4</ele>
        <time>2015-04-26T07:00:38Z</time>
      </trkpt>
      <trkpt lat="45.61656" lon="4.67528">
        <ele>365.92</ele>
        <time>2015-04-26T07:00:39Z</time>
      </trkpt>
      <trkpt lat="45.61658" lon="4.6753">
        <ele>366.4</ele>
        <time>2015-04-26T07:00:40Z</time>
      </trkpt>
      <trkpt lat="45.6166" lon="4.67532">
        <ele>366.4</ele>
        <time>2015-04-26T07:00:41Z</time>
      </trkpt>
      <trkpt lat="45.61663" lon="4.67533">
        <ele>366.4</ele>
        <time>2015-04-26T07:00:42Z</time>
      </trkpt>
      <trkpt lat="45.61665" lon="4.67535">
        <ele>366.4</ele>
        <time>2015-04-26T07:00:43Z</time>
      </trkpt>
      <trkpt lat="45.61668" lon="4.67536">
        <ele>366.4</ele>
        <time>2015-04-26T07:00:44Z</time>
      </trkpt>
      <trkpt lat="45.61716" lon="4.67559">
        <ele>364.96</ele>
        <time>2015-04-26T07:00:58Z</time>
      </trkpt>
      <trkpt lat="45.6177" lon="4.67586">
        <ele>362.55</ele>
        <time>2015-04-26T07:01:13Z</time>
      </trkpt>
      <trkpt lat="45.61825" lon="4.67613">
        <ele>363.52</ele>
        <time>2015-04-26T07:01:28Z</time>
      </trkpt>
      <trkpt lat="45.61827" lon="4.67616">
        <ele>364</ele>
        <time>2015-04-26T07:01:29Z</time>
      </trkpt>
      <trkpt lat="45.6183" lon="4.67619">
        <ele>364</ele>
        <time>2015-04-26T07:01:30Z</time>
      </trkpt>
      <trkpt lat="45.61846" lon="4.6763">
        <ele>364</ele>
        <time>2015-04-26T07:01:35Z</time>
      </trkpt>
      <trkpt lat="45.61897" lon="4.6764">
        <ele>366.4</ele>
        <time>2015-04-26T07:01:48Z</time>
      </trkpt>
      <trkpt lat="45.61929" lon="4.67666">
        <ele>368.8</ele>
        <time>2015-04-26T07:01:59Z</time>
      </trkpt>
      <trkpt lat="45.61958" lon="4.67671">
        <ele>371.69</ele>
        <time>2015-04-26T07:02:09Z</time>
      </trkpt>
      <trkpt lat="45.61995" lon="4.67674">
        <ele>373.61</ele>
        <time>2015-04-26T07:02:20Z</time>
      </trkpt>
      <trkpt lat="45.62012" lon="4.67683">
        <ele>372.65</ele>
        <time>2015-04-26T07:02:24Z</time>
      </trkpt>
      <trkpt lat="45.62036" lon="4.67692">
        <ele>372.17</ele>
        <time>2015-04-26T07:02:29Z</time>
      </trkpt>
      <trkpt lat="45.62041" lon="4.67693">
        <ele>372.17</ele>
        <time>2015-04-26T07:02:30Z</time>
      </trkpt>
      <trkpt lat="45.62112" lon="4.67708">
        <ele>370.24</ele>
        <time>2015-04-26T07:02:42Z</time>
      </trkpt>
      <trkpt lat="45.62119" lon="4.67708">
        <ele>370.24</ele>
        <time>2015-04-26T07:02:43Z</time>
      </trkpt>
      <trkpt lat="45.62207" lon="4.67719">
        <ele>365.92</ele>
        <time>2015-04-26T07:02:57Z</time>
      </trkpt>
      <trkpt lat="45.62235" lon="4.67723">
        <ele>364.48</ele>
        <time>2015-04-26T07:03:01Z</time>
      </trkpt>
      <trkpt lat="45.6229" lon="4.67739">
        <ele>361.59</ele>
        <time>2015-04-26T07:03:09Z</time>
      </trkpt>
      <trkpt lat="45.62297" lon="4.67739">
        <ele>361.59</ele>
        <time>2015-04-26T07:03:10Z</time>
      </trkpt>
      <trkpt lat="45.62345" lon="4.67731">
        <ele>360.15</ele>
        <time>2015-04-26T07:03:17Z</time>
      </trkpt>
      <trkpt lat="45.62352" lon="4.67733">
        <ele>360.15</ele>
        <time>2015-04-26T07:03:18Z</time>
      </trkpt>
      <trkpt lat="45.62358" lon="4.67735">
        <ele>360.15</ele>
        <time>2015-04-26T07:03:19Z</time>
      </trkpt>
      <trkpt lat="45.62391" lon="4.67747">
        <ele>359.19</ele>
        <time>2015-04-26T07:03:24Z</time>
      </trkpt>
      <trkpt lat="45.62398" lon="4.6775">
        <ele>359.19</ele>
        <time>2015-04-26T07:03:25Z</time>
      </trkpt>
      <trkpt lat="45.62404" lon="4.67753">
        <ele>358.71</ele>
        <time>2015-04-26T07:03:26Z</time>
      </trkpt>
      <trkpt lat="45.6241" lon="4.67753">
        <ele>358.71</ele>
        <time>2015-04-26T07:03:27Z</time>
      </trkpt>
      <trkpt lat="45.62417" lon="4.67752">
        <ele>358.71</ele>
        <time>2015-04-26T07:03:28Z</time>
      </trkpt>
      <trkpt lat="45.62423" lon="4.6775">
        <ele>358.23</ele>
        <time>2015-04-26T07:03:29Z</time>
      </trkpt>
      <trkpt lat="45.6243" lon="4.67749">
        <ele>358.23</ele>
        <time>2015-04-26T07:03:30Z</time>
      </trkpt>
      <trkpt lat="45.62436" lon="4.67748">
        <ele>357.75</ele>
        <time>2015-04-26T07:03:31Z</time>
      </trkpt>
      <trkpt lat="45.62521" lon="4.67737">
        <ele>355.34</ele>
        <time>2015-04-26T07:03:44Z</time>
      </trkpt>
      <trkpt lat="45.62551" lon="4.67733">
        <ele>354.38</ele>
        <time>2015-04-26T07:03:49Z</time>
      </trkpt>
      <trkpt lat="45.62636" lon="4.67735">
        <ele>351.02</ele>
        <time>2015-04-26T07:04:03Z</time>
      </trkpt>
      <trkpt lat="45.62713" lon="4.67741">
        <ele>349.1</ele>
        <time>2015-04-26T07:04:16Z</time>
      </trkpt>
      <trkpt lat="45.62723" lon="4.67742">
        <ele>348.62</ele>
        <time>2015-04-26T07:04:18Z</time>
      </trkpt>
      <trkpt lat="45.62729" lon="4.67742">
        <ele>348.13</ele>
        <time>2015-04-26T07:04:19Z</time>
      </trkpt>
      <trkpt lat="45.62734" lon="4.67743">
        <ele>348.13</ele>
        <time>2015-04-26T07:04:20Z</time>
      </trkpt>
      <trkpt lat="45.62738" lon="4.67745">
        <ele>347.65</ele>
        <time>2015-04-26T07:04:21Z</time>
      </trkpt>
      <trkpt lat="45.62742" lon="4.67747">
        <ele>347.17</ele>
        <time>2015-04-26T07:04:22Z</time>
      </trkpt>
      <trkpt lat="45.62747" lon="4.67748">
        <ele>346.69</ele>
        <time>2015-04-26T07:04:23Z</time>
      </trkpt>
      <trkpt lat="45.62751" lon="4.67749">
        <ele>346.21</ele>
        <time>2015-04-26T07:04:24Z</time>
      </trkpt>
      <trkpt lat="45.62756" lon="4.67751">
        <ele>345.73</ele>
        <time>2015-04-26T07:04:25Z</time>
      </trkpt>
      <trkpt lat="45.6276" lon="4.67754">
        <ele>345.25</ele>
        <time>2015-04-26T07:04:26Z</time>
      </trkpt>
      <trkpt lat="45.62765" lon="4.67757">
        <ele>344.77</ele>
        <time>2015-04-26T07:04:27Z</time>
      </trkpt>
      <trkpt lat="45.62775" lon="4.6776">
        <ele>343.81</ele>
        <time>2015-04-26T07:04:29Z</time>
      </trkpt>
      <trkpt lat="45.62794" lon="4.67761">
        <ele>342.85</ele>
        <time>2015-04-26T07:04:32Z</time>
      </trkpt>
      <trkpt lat="45.62828" lon="4.67752">
        <ele>341.89</ele>
        <time>2015-04-26T07:04:41Z</time>
      </trkpt>
      <trkpt lat="45.62843" lon="4.67746">
        <ele>343.33</ele>
        <time>2015-04-26T07:04:50Z</time>
      </trkpt>
      <trkpt lat="45.62855" lon="4.6774">
        <ele>344.77</ele>
        <time>2015-04-26T07:05:04Z</time>
      </trkpt>
      <trkpt lat="45.6286" lon="4.6774">
        <ele>345.73</ele>
        <time>2015-04-26T07:05:09Z</time>
      </trkpt>
      <trkpt lat="45.62861" lon="4.67741">
        <ele>346.21</ele>
        <time>2015-04-26T07:05:10Z</time>
      </trkpt>
      <trkpt lat="45.6287" lon="4.67745">
        <ele>350.54</ele>
        <time>2015-04-26T07:05:22Z</time>
      </trkpt>
      <trkpt lat="45.62875" lon="4.67749">
        <ele>351.02</ele>
        <time>2015-04-26T07:05:29Z</time>
      </trkpt>
      <trkpt lat="45.62876" lon="4.67751">
        <ele>350.54</ele>
        <time>2015-04-26T07:05:30Z</time>
      </trkpt>
      <trkpt lat="45.62877" lon="4.67753">
        <ele>350.54</ele>
        <time>2015-04-26T07:05:31Z</time>
      </trkpt>
      <trkpt lat="45.62878" lon="4.67755">
        <ele>350.54</ele>
        <time>2015-04-26T07:05:32Z</time>
      </trkpt>
      <trkpt lat="45.6288" lon="4.67756">
        <ele>351.02</ele>
        <time>2015-04-26T07:05:33Z</time>
      </trkpt>
      <trkpt lat="45.62881" lon="4.67758">
        <ele>351.02</ele>
        <time>2015-04-26T07:05:34Z</time>
      </trkpt>
      <trkpt lat="45.62892" lon="4.6777">
        <ele>354.38</ele>
        <time>2015-04-26T07:05:49Z</time>
      </trkpt>
      <trkpt lat="45.62896" lon="4.67772">
        <ele>355.34</ele>
        <time>2015-04-26T07:05:57Z</time>
      </trkpt>
      <trkpt lat="45.62905" lon="4.67775">
        <ele>360.63</ele>
        <time>2015-04-26T07:06:10Z</time>
      </trkpt>
      <trkpt lat="45.62916" lon="4.67773">
        <ele>364.96</ele>
        <time>2015-04-26T07:06:22Z</time>
      </trkpt>
      <trkpt lat="45.6292" lon="4.67772">
        <ele>366.88</ele>
        <time>2015-04-26T07:06:27Z</time>
      </trkpt>
      <trkpt lat="45.62921" lon="4.67771">
        <ele>366.88</ele>
        <time>2015-04-26T07:06:28Z</time>
      </trkpt>
      <trkpt lat="45.62922" lon="4.6777">
        <ele>367.36</ele>
        <time>2015-04-26T07:06:29Z</time>
      </trkpt>
      <trkpt lat="45.62928" lon="4.6777">
        <ele>368.32</ele>
        <time>2015-04-26T07:06:35Z</time>
      </trkpt>
      <trkpt lat="45.62929" lon="4.6777">
        <ele>368.8</ele>
        <time>2015-04-26T07:06:36Z</time>
      </trkpt>
      <trkpt lat="45.62941" lon="4.67763">
        <ele>369.28</ele>
        <time>2015-04-26T07:06:50Z</time>
      </trkpt>
      <trkpt lat="45.62947" lon="4.6776">
        <ele>367.84</ele>
        <time>2015-04-26T07:06:57Z</time>
      </trkpt>
      <trkpt lat="45.62949" lon="4.6776">
        <ele>367.84</ele>
        <time>2015-04-26T07:06:58Z</time>
      </trkpt>
      <trkpt lat="45.6295" lon="4.6776">
        <ele>367.84</ele>
        <time>2015-04-26T07:06:59Z</time>
      </trkpt>
      <trkpt lat="45.62951" lon="4.6776">
        <ele>368.32</ele>
        <time>2015-04-26T07:07:00Z</time>
      </trkpt>
      <trkpt lat="45.62952" lon="4.67759">
        <ele>368.32</ele>
        <time>2015-04-26T07:07:01Z</time>
      </trkpt>
      <trkpt lat="45.62972" lon="4.67755">
        <ele>369.28</ele>
        <time>2015-04-26T07:07:16Z</time>
      </trkpt>
      <trkpt lat="45.62975" lon="4.67754">
        <ele>369.76</ele>
        <time>2015-04-26T07:07:19Z</time>
      </trkpt>
      <trkpt lat="45.62976" lon="4.67753">
        <ele>369.76</ele>
        <time>2015-04-26T07:07:20Z</time>
      </trkpt>
      <trkpt lat="45.62978" lon="4.67753">
        <ele>369.76</ele>
        <time>2015-04-26T07:07:21Z</time>
      </trkpt>
      <trkpt lat="45.62979" lon="4.67753">
        <ele>369.76</ele>
        <time>2015-04-26T07:07:22Z</time>
      </trkpt>
      <trkpt lat="45.62981" lon="4.67753">
        <ele>369.76</ele>
        <time>2015-04-26T07:07:23Z</time>
      </trkpt>
      <trkpt lat="45.62982" lon="4.67753">
        <ele>369.76</ele>
        <time>2015-04-26T07:07:24Z</time>
      </trkpt>
      <trkpt lat="45.62984" lon="4.67753">
        <ele>369.76</ele>
        <time>2015-04-26T07:07:25Z</time>
      </trkpt>
      <trkpt lat="45.62985" lon="4.67753">
        <ele>369.76</ele>
        <time>2015-04-26T07:07:26Z</time>
      </trkpt>
      <trkpt lat="45.62987" lon="4.67753">
        <ele>370.24</ele>
        <time>2015-04-26T07:07:27Z</time>
      </trkpt>
      <trkpt lat="45.62988" lon="4.67753">
        <ele>370.24</ele>
        <time>2015-04-26T07:07:28Z</time>
      </trkpt>
      <trkpt lat="45.6299" lon="4.67753">
        <ele>370.24</ele>
        <time>2015-04-26T07:07:29Z</time>
      </trkpt>
      <trkpt lat="45.63" lon="4.67753">
        <ele>369.76</ele>
        <time>2015-04-26T07:07:35Z</time>
      </trkpt>
      <trkpt lat="45.63002" lon="4.67753">
        <ele>369.76</ele>
        <time>2015-04-26T07:07:36Z</time>
      </trkpt>
      <trkpt lat="45.63004" lon="4.67753">
        <ele>370.24</ele>
        <time>2015-04-26T07:07:37Z</time>
      </trkpt>
      <trkpt lat="45.63029" lon="4.67754">
        <ele>370.73</ele>
        <time>2015-04-26T07:07:51Z</time>
      </trkpt>
      <trkpt lat="45.63057" lon="4.67755">
        <ele>371.69</ele>
        <time>2015-04-26T07:08:06Z</time>
      </trkpt>
      <trkpt lat="45.63092" lon="4.67753">
        <ele>371.21</ele>
        <time>2015-04-26T07:08:22Z</time>
      </trkpt>
      <trkpt lat="45.631" lon="4.67753">
        <ele>371.69</ele>
        <time>2015-04-26T07:08:26Z</time>
      </trkpt>
      <trkpt lat="45.63102" lon="4.67753">
        <ele>371.69</ele>
        <time>2015-04-26T07:08:27Z</time>
      </trkpt>
      <trkpt lat="45.63104" lon="4.67753">
        <ele>371.69</ele>
        <time>2015-04-26T07:08:28Z</time>
      </trkpt>
      <trkpt lat="45.63129" lon="4.67753">
        <ele>374.09</ele>
        <time>2015-04-26T07:08:41Z</time>
      </trkpt>
      <trkpt lat="45.63152" lon="4.67755">
        <ele>376.97</ele>
        <time>2015-04-26T07:08:56Z</time>
      </trkpt>
      <trkpt lat="45.63167" lon="4.67756">
        <ele>378.42</ele>
        <time>2015-04-26T07:09:06Z</time>
      </trkpt>
      <trkpt lat="45.63168" lon="4.67755">
        <ele>378.42</ele>
        <time>2015-04-26T07:09:07Z</time>
      </trkpt>
      <trkpt lat="45.63171" lon="4.67753">
        <ele>378.9</ele>
        <time>2015-04-26T07:09:09Z</time>
      </trkpt>
      <trkpt lat="45.63172" lon="4.67753">
        <ele>378.9</ele>
        <time>2015-04-26T07:09:10Z</time>
      </trkpt>
      <trkpt lat="45.63174" lon="4.67754">
        <ele>378.9</ele>
        <time>2015-04-26T07:09:11Z</time>
      </trkpt>
      <trkpt lat="45.63175" lon="4.67756">
        <ele>378.9</ele>
        <time>2015-04-26T07:09:12Z</time>
      </trkpt>
      <trkpt lat="45.63177" lon="4.67757">
        <ele>378.9</ele>
        <time>2015-04-26T07:09:13Z</time>
      </trkpt>
      <trkpt lat="45.63178" lon="4.67758">
        <ele>378.42</ele>
        <time>2015-04-26T07:09:14Z</time>
      </trkpt>
      <trkpt lat="45.6318" lon="4.6776">
        <ele>378.9</ele>
        <time>2015-04-26T07:09:15Z</time>
      </trkpt>
      <trkpt lat="45.63182" lon="4.67761">
        <ele>378.9</ele>
        <time>2015-04-26T07:09:16Z</time>
      </trkpt>
      <trkpt lat="45.63207" lon="4.67779">
        <ele>379.38</ele>
        <time>2015-04-26T07:09:29Z</time>
      </trkpt>
      <trkpt lat="45.63218" lon="4.67785">
        <ele>380.34</ele>
        <time>2015-04-26T07:09:38Z</time>
      </trkpt>
      <trkpt lat="45.63219" lon="4.67783">
        <ele>380.34</ele>
        <time>2015-04-26T07:09:39Z</time>
      </trkpt>
      <trkpt lat="45.63219" lon="4.67781">
        <ele>380.34</ele>
        <time>2015-04-26T07:09:40Z</time>
      </trkpt>
      <trkpt lat="45.6322" lon="4.67779">
        <ele>380.82</ele>
        <time>2015-04-26T07:09:41Z</time>
      </trkpt>
      <trkpt lat="45.63221" lon="4.67777">
        <ele>380.82</ele>
        <time>2015-04-26T07:09:42Z</time>
      </trkpt>
      <trkpt lat="45.63222" lon="4.67776">
        <ele>381.3</ele>
        <time>2015-04-26T07:09:43Z</time>
      </trkpt>
      <trkpt lat="45.63223" lon="4.67775">
        <ele>381.78</ele>
        <time>2015-04-26T07:09:44Z</time>
      </trkpt>
      <trkpt lat="45.63223" lon="4.67776">
        <ele>381.78</ele>
        <time>2015-04-26T07:09:53Z</time>
      </trkpt>
      <trkpt lat="45.63224" lon="4.67775">
        <ele>379.86</ele>
        <time>2015-04-26T07:10:19Z</time>
      </trkpt>
      <trkpt lat="45.63224" lon="4.67775">
        <ele>379.86</ele>
        <time>2015-04-26T07:10:34Z</time>
      </trkpt>
      <trkpt lat="45.63225" lon="4.67776">
        <ele>379.86</ele>
        <time>2015-04-26T07:11:11Z</time>
      </trkpt>
      <trkpt lat="45.63223" lon="4.67776">
        <ele>380.34</ele>
        <time>2015-04-26T07:11:29Z</time>
      </trkpt>
      <trkpt lat="45.6322" lon="4.67778">
        <ele>380.34</ele>
        <time>2015-04-26T07:11:36Z</time>
      </trkpt>
      <trkpt lat="45.63219" lon="4.6778">
        <ele>380.34</ele>
        <time>2015-04-26T07:11:37Z</time>
      </trkpt>
      <trkpt lat="45.6322" lon="4.67782">
        <ele>380.82</ele>
        <time>2015-04-26T07:11:38Z</time>
      </trkpt>
      <trkpt lat="45.63221" lon="4.67785">
        <ele>380.82</ele>
        <time>2015-04-26T07:11:39Z</time>
      </trkpt>
      <trkpt lat="45.63222" lon="4.67787">
        <ele>381.3</ele>
        <time>2015-04-26T07:11:40Z</time>
      </trkpt>
      <trkpt lat="45.63254" lon="4.67817">
        <ele>383.7</ele>
        <time>2015-04-26T07:11:53Z</time>
      </trkpt>
      <trkpt lat="45.63281" lon="4.67846">
        <ele>384.66</ele>
        <time>2015-04-26T07:12:05Z</time>
      </trkpt>
      <trkpt lat="45.63312" lon="4.67878">
        <ele>387.55</ele>
        <time>2015-04-26T07:12:17Z</time>
      </trkpt>
      <trkpt lat="45.63351" lon="4.67919">
        <ele>388.99</ele>
        <time>2015-04-26T07:12:32Z</time>
      </trkpt>
      <trkpt lat="45.63389" lon="4.6797">
        <ele>389.47</ele>
        <time>2015-04-26T07:12:48Z</time>
      </trkpt>
      <trkpt lat="45.63419" lon="4.68012">
        <ele>391.39</ele>
        <time>2015-04-26T07:12:59Z</time>
      </trkpt>
      <trkpt lat="45.63422" lon="4.68017">
        <ele>391.39</ele>
        <time>2015-04-26T07:13:00Z</time>
      </trkpt>
      <trkpt lat="45.63432" lon="4.68029">
        <ele>391.87</ele>
        <time>2015-04-26T07:13:03Z</time>
      </trkpt>
      <trkpt lat="45.6344" lon="4.68036">
        <ele>392.36</ele>
        <time>2015-04-26T07:13:05Z</time>
      </trkpt>
      <trkpt lat="45.63456" lon="4.68047">
        <ele>392.36</ele>
        <time>2015-04-26T07:13:09Z</time>
      </trkpt>
      <trkpt lat="45.63469" lon="4.68057">
        <ele>392.36</ele>
        <time>2015-04-26T07:13:12Z</time>
      </trkpt>
      <trkpt lat="45.63478" lon="4.68063">
        <ele>392.36</ele>
        <time>2015-04-26T07:13:14Z</time>
      </trkpt>
      <trkpt lat="45.63487" lon="4.6807">
        <ele>392.36</ele>
        <time>2015-04-26T07:13:16Z</time>
      </trkpt>
      <trkpt lat="45.63545" lon="4.68123">
        <ele>390.91</ele>
        <time>2015-04-26T07:13:30Z</time>
      </trkpt>
      <trkpt lat="45.63553" lon="4.68131">
        <ele>390.91</ele>
        <time>2015-04-26T07:13:32Z</time>
      </trkpt>
      <trkpt lat="45.63613" lon="4.68209">
        <ele>391.87</ele>
        <time>2015-04-26T07:13:47Z</time>
      </trkpt>
      <trkpt lat="45.63616" lon="4.68215">
        <ele>391.87</ele>
        <time>2015-04-26T07:13:48Z</time>
      </trkpt>
      <trkpt lat="45.63648" lon="4.6832">
        <ele>392.84</ele>
        <time>2015-04-26T07:14:03Z</time>
      </trkpt>
      <trkpt lat="45.6365" lon="4.68327">
        <ele>392.84</ele>
        <time>2015-04-26T07:14:04Z</time>
      </trkpt>
      <trkpt lat="45.63653" lon="4.68334">
        <ele>393.32</ele>
        <time>2015-04-26T07:14:05Z</time>
      </trkpt>
      <trkpt lat="45.63655" lon="4.68341">
        <ele>393.32</ele>
        <time>2015-04-26T07:14:06Z</time>
      </trkpt>
      <trkpt lat="45.63657" lon="4.68348">
        <ele>393.32</ele>
        <time>2015-04-26T07:14:07Z</time>
      </trkpt>
      <trkpt lat="45.63671" lon="4.68392">
        <ele>393.32</ele>
        <time>2015-04-26T07:14:13Z</time>
      </trkpt>
      <trkpt lat="45.63681" lon="4.68421">
        <ele>393.32</ele>
        <time>2015-04-26T07:14:17Z</time>
      </trkpt>
      <trkpt lat="45.63683" lon="4.68428">
        <ele>393.32</ele>
        <time>2015-04-26T07:14:18Z</time>
      </trkpt>
      <trkpt lat="45.63723" lon="4.68492">
        <ele>391.39</ele>
        <time>2015-04-26T07:14:29Z</time>
      </trkpt>
      <trkpt lat="45.63729" lon="4.68496">
        <ele>391.39</ele>
        <time>2015-04-26T07:14:30Z</time>
      </trkpt>
      <trkpt lat="45.63734" lon="4.685">
        <ele>390.91</ele>
        <time>2015-04-26T07:14:31Z</time>
      </trkpt>
      <trkpt lat="45.6374" lon="4.68505">
        <ele>390.91</ele>
        <time>2015-04-26T07:14:32Z</time>
      </trkpt>
      <trkpt lat="45.63746" lon="4.68508">
        <ele>390.43</ele>
        <time>2015-04-26T07:14:33Z</time>
      </trkpt>
      <trkpt lat="45.63753" lon="4.68512">
        <ele>389.95</ele>
        <time>2015-04-26T07:14:34Z</time>
      </trkpt>
      <trkpt lat="45.63759" lon="4.68515">
        <ele>389.95</ele>
        <time>2015-04-26T07:14:35Z</time>
      </trkpt>
      <trkpt lat="45.63765" lon="4.68518">
        <ele>389.95</ele>
        <time>2015-04-26T07:14:36Z</time>
      </trkpt>
      <trkpt lat="45.63771" lon="4.68521">
        <ele>389.47</ele>
        <time>2015-04-26T07:14:37Z</time>
      </trkpt>
      <trkpt lat="45.63778" lon="4.68524">
        <ele>389.47</ele>
        <time>2015-04-26T07:14:38Z</time>
      </trkpt>
      <trkpt lat="45.63791" lon="4.6853">
        <ele>388.99</ele>
        <time>2015-04-26T07:14:40Z</time>
      </trkpt>
      <trkpt lat="45.63797" lon="4.68535">
        <ele>388.51</ele>
        <time>2015-04-26T07:14:41Z</time>
      </trkpt>
      <trkpt lat="45.63803" lon="4.68541">
        <ele>388.03</ele>
        <time>2015-04-26T07:14:42Z</time>
      </trkpt>
      <trkpt lat="45.63809" lon="4.68546">
        <ele>387.55</ele>
        <time>2015-04-26T07:14:43Z</time>
      </trkpt>
      <trkpt lat="45.63817" lon="4.68549">
        <ele>387.07</ele>
        <time>2015-04-26T07:14:44Z</time>
      </trkpt>
      <trkpt lat="45.63825" lon="4.68547">
        <ele>386.59</ele>
        <time>2015-04-26T07:14:45Z</time>
      </trkpt>
      <trkpt lat="45.63832" lon="4.68545">
        <ele>386.59</ele>
        <time>2015-04-26T07:14:46Z</time>
      </trkpt>
      <trkpt lat="45.63838" lon="4.68544">
        <ele>386.59</ele>
        <time>2015-04-26T07:14:47Z</time>
      </trkpt>
      <trkpt lat="45.63845" lon="4.68544">
        <ele>387.07</ele>
        <time>2015-04-26T07:14:48Z</time>
      </trkpt>
      <trkpt lat="45.63926" lon="4.6854">
        <ele>387.55</ele>
        <time>2015-04-26T07:14:59Z</time>
      </trkpt>
      <trkpt lat="45.63979" lon="4.68538">
        <ele>388.99</ele>
        <time>2015-04-26T07:15:07Z</time>
      </trkpt>
      <trkpt lat="45.64043" lon="4.6855">
        <ele>388.51</ele>
        <time>2015-04-26T07:15:19Z</time>
      </trkpt>
      <trkpt lat="45.64058" lon="4.68557">
        <ele>388.03</ele>
        <time>2015-04-26T07:15:22Z</time>
      </trkpt>
      <trkpt lat="45.64073" lon="4.68562">
        <ele>388.03</ele>
        <time>2015-04-26T07:15:25Z</time>
      </trkpt>
      <trkpt lat="45.64088" lon="4.68568">
        <ele>388.03</ele>
        <time>2015-04-26T07:15:28Z</time>
      </trkpt>
      <trkpt lat="45.64092" lon="4.68572">
        <ele>388.51</ele>
        <time>2015-04-26T07:15:29Z</time>
      </trkpt>
      <trkpt lat="45.64094" lon="4.68578">
        <ele>388.51</ele>
        <time>2015-04-26T07:15:30Z</time>
      </trkpt>
      <trkpt lat="45.64095" lon="4.68584">
        <ele>388.99</ele>
        <time>2015-04-26T07:15:31Z</time>
      </trkpt>
      <trkpt lat="45.64095" lon="4.6859">
        <ele>388.99</ele>
        <time>2015-04-26T07:15:32Z</time>
      </trkpt>
      <trkpt lat="45.64096" lon="4.68596">
        <ele>388.99</ele>
        <time>2015-04-26T07:15:33Z</time>
      </trkpt>
      <trkpt lat="45.64098" lon="4.68602">
        <ele>388.99</ele>
        <time>2015-04-26T07:15:34Z</time>
      </trkpt>
      <trkpt lat="45.64099" lon="4.68607">
        <ele>388.99</ele>
        <time>2015-04-26T07:15:35Z</time>
      </trkpt>
      <trkpt lat="45.641" lon="4.68613">
        <ele>388.99</ele>
        <time>2015-04-26T07:15:36Z</time>
      </trkpt>
      <trkpt lat="45.64101" lon="4.68619">
        <ele>389.47</ele>
        <time>2015-04-26T07:15:37Z</time>
      </trkpt>
      <trkpt lat="45.64104" lon="4.68663">
        <ele>392.84</ele>
        <time>2015-04-26T07:15:48Z</time>
      </trkpt>
      <trkpt lat="45.64115" lon="4.68722">
        <ele>392.36</ele>
        <time>2015-04-26T07:16:00Z</time>
      </trkpt>
      <trkpt lat="45.6412" lon="4.68747">
        <ele>391.39</ele>
        <time>2015-04-26T07:16:04Z</time>
      </trkpt>
      <trkpt lat="45.64121" lon="4.68754">
        <ele>390.91</ele>
        <time>2015-04-26T07:16:05Z</time>
      </trkpt>
      <trkpt lat="45.64125" lon="4.68775">
        <ele>390.43</ele>
        <time>2015-04-26T07:16:08Z</time>
      </trkpt>
      <trkpt lat="45.64126" lon="4.68782">
        <ele>390.43</ele>
        <time>2015-04-26T07:16:09Z</time>
      </trkpt>
      <trkpt lat="45.64129" lon="4.68797">
        <ele>389.95</ele>
        <time>2015-04-26T07:16:11Z</time>
      </trkpt>
      <trkpt lat="45.64149" lon="4.68902">
        <ele>388.99</ele>
        <time>2015-04-26T07:16:26Z</time>
      </trkpt>
      <trkpt lat="45.6415" lon="4.68909">
        <ele>388.99</ele>
        <time>2015-04-26T07:16:27Z</time>
      </trkpt>
      <trkpt lat="45.64152" lon="4.68915">
        <ele>388.99</ele>
        <time>2015-04-26T07:16:28Z</time>
      </trkpt>
      <trkpt lat="45.64154" lon="4.6892">
        <ele>388.99</ele>
        <time>2015-04-26T07:16:29Z</time>
      </trkpt>
      <trkpt lat="45.64156" lon="4.68925">
        <ele>388.99</ele>
        <time>2015-04-26T07:16:30Z</time>
      </trkpt>
      <trkpt lat="45.64159" lon="4.68931">
        <ele>388.99</ele>
        <time>2015-04-26T07:16:31Z</time>
      </trkpt>
      <trkpt lat="45.64162" lon="4.68936">
        <ele>388.51</ele>
        <time>2015-04-26T07:16:32Z</time>
      </trkpt>
      <trkpt lat="45.64164" lon="4.68941">
        <ele>388.51</ele>
        <time>2015-04-26T07:16:33Z</time>
      </trkpt>
      <trkpt lat="45.64166" lon="4.68946">
        <ele>388.51</ele>
        <time>2015-04-26T07:16:34Z</time>
      </trkpt>
      <trkpt lat="45.64191" lon="4.68992">
        <ele>389.47</ele>
        <time>2015-04-26T07:16:45Z</time>
      </trkpt>
      <trkpt lat="45.64193" lon="4.68992">
        <ele>389.95</ele>
        <time>2015-04-26T07:16:46Z</time>
      </trkpt>
      <trkpt lat="45.6419" lon="4.68982">
        <ele>389.95</ele>
        <time>2015-04-26T07:16:49Z</time>
      </trkpt>
      <trkpt lat="45.64188" lon="4.68979">
        <ele>389.95</ele>
        <time>2015-04-26T07:16:50Z</time>
      </trkpt>
      <trkpt lat="45.64185" lon="4.68977">
        <ele>389.95</ele>
        <time>2015-04-26T07:16:51Z</time>
      </trkpt>
      <trkpt lat="45.64183" lon="4.68977">
        <ele>389.95</ele>
        <time>2015-04-26T07:16:52Z</time>
      </trkpt>
      <trkpt lat="45.64182" lon="4.68979">
        <ele>389.95</ele>
        <time>2015-04-26T07:16:53Z</time>
      </trkpt>
      <trkpt lat="45.64182" lon="4.68981">
        <ele>389.95</ele>
        <time>2015-04-26T07:16:58Z</time>
      </trkpt>
      <trkpt lat="45.64182" lon="4.68982">
        <ele>389.95</ele>
        <time>2015-04-26T07:16:59Z</time>
      </trkpt>
      <trkpt lat="45.64181" lon="4.68984">
        <ele>389.47</ele>
        <time>2015-04-26T07:17:03Z</time>
      </trkpt>
      <trkpt lat="45.64176" lon="4.68989">
        <ele>389.47</ele>
        <time>2015-04-26T07:17:07Z</time>
      </trkpt>
      <trkpt lat="45.6417" lon="4.68997">
        <ele>390.91</ele>
        <time>2015-04-26T07:17:12Z</time>
      </trkpt>
      <trkpt lat="45.64149" lon="4.69026">
        <ele>394.28</ele>
        <time>2015-04-26T07:17:26Z</time>
      </trkpt>
      <trkpt lat="45.64122" lon="4.69053">
        <ele>395.24</ele>
        <time>2015-04-26T07:17:40Z</time>
      </trkpt>
      <trkpt lat="45.64117" lon="4.69061">
        <ele>394.76</ele>
        <time>2015-04-26T07:17:43Z</time>
      </trkpt>
      <trkpt lat="45.64114" lon="4.69073">
        <ele>395.24</ele>
        <time>2015-04-26T07:17:47Z</time>
      </trkpt>
      <trkpt lat="45.64101" lon="4.69112">
        <ele>394.76</ele>
        <time>2015-04-26T07:18:00Z</time>
      </trkpt>
      <trkpt lat="45.64096" lon="4.69121">
        <ele>394.76</ele>
        <time>2015-04-26T07:18:10Z</time>
      </trkpt>
      <trkpt lat="45.64095" lon="4.69122">
        <ele>394.28</ele>
        <time>2015-04-26T07:18:12Z</time>
      </trkpt>
      <trkpt lat="45.641" lon="4.6913">
        <ele>394.76</ele>
        <time>2015-04-26T07:18:17Z</time>
      </trkpt>
      <trkpt lat="45.64104" lon="4.69138">
        <ele>394.76</ele>
        <time>2015-04-26T07:18:21Z</time>
      </trkpt>
      <trkpt lat="45.6411" lon="4.69145">
        <ele>394.28</ele>
        <time>2015-04-26T07:18:26Z</time>
      </trkpt>
      <trkpt lat="45.6411" lon="4.69143">
        <ele>393.32</ele>
        <time>2015-04-26T07:18:34Z</time>
      </trkpt>
      <trkpt lat="45.64107" lon="4.69143">
        <ele>392.84</ele>
        <time>2015-04-26T07:18:42Z</time>
      </trkpt>
      <trkpt lat="45.64106" lon="4.69145">
        <ele>392.84</ele>
        <time>2015-04-26T07:18:54Z</time>
      </trkpt>
      <trkpt lat="45.64107" lon="4.69145">
        <ele>393.32</ele>
        <time>2015-04-26T07:19:10Z</time>
      </trkpt>
      <trkpt lat="45.64108" lon="4.69146">
        <ele>393.32</ele>
        <time>2015-04-26T07:19:11Z</time>
      </trkpt>
      <trkpt lat="45.64113" lon="4.69147">
        <ele>393.8</ele>
        <time>2015-04-26T07:19:15Z</time>
      </trkpt>
      <trkpt lat="45.64122" lon="4.69143">
        <ele>393.8</ele>
        <time>2015-04-26T07:19:22Z</time>
      </trkpt>
      <trkpt lat="45.64124" lon="4.69145">
        <ele>392.84</ele>
        <time>2015-04-26T07:19:32Z</time>
      </trkpt>
      <trkpt lat="45.64124" lon="4.69145">
        <ele>393.8</ele>
        <time>2015-04-26T07:19:47Z</time>
      </trkpt>
      <trkpt lat="45.64124" lon="4.69143">
        <ele>394.28</ele>
        <time>2015-04-26T07:19:48Z</time>
      </trkpt>
      <trkpt lat="45.64122" lon="4.69141">
        <ele>394.28</ele>
        <time>2015-04-26T07:19:50Z</time>
      </trkpt>
      <trkpt lat="45.64123" lon="4.69136">
        <ele>395.24</ele>
        <time>2015-04-26T07:20:06Z</time>
      </trkpt>
      <trkpt lat="45.64127" lon="4.69133">
        <ele>397.64</ele>
        <time>2015-04-26T07:20:46Z</time>
      </trkpt>
      <trkpt lat="45.64122" lon="4.69136">
        <ele>400.05</ele>
        <time>2015-04-26T07:21:23Z</time>
      </trkpt>
      <trkpt lat="45.64124" lon="4.69138">
        <ele>399.57</ele>
        <time>2015-04-26T07:22:06Z</time>
      </trkpt>
      <trkpt lat="45.64123" lon="4.69136">
        <ele>400.05</ele>
        <time>2015-04-26T07:22:43Z</time>
      </trkpt>
      <trkpt lat="45.64122" lon="4.69136">
        <ele>400.05</ele>
        <time>2015-04-26T07:23:10Z</time>
      </trkpt>
      <trkpt lat="45.64124" lon="4.69139">
        <ele>400.05</ele>
        <time>2015-04-26T07:23:44Z</time>
      </trkpt>
      <trkpt lat="45.64124" lon="4.69136">
        <ele>398.6</ele>
        <time>2015-04-26T07:24:10Z</time>
      </trkpt>
      <trkpt lat="45.64125" lon="4.69133">
        <ele>397.16</ele>
        <time>2015-04-26T07:24:50Z</time>
      </trkpt>
      <trkpt lat="45.64122" lon="4.69137">
        <ele>399.08</ele>
        <time>2015-04-26T07:25:25Z</time>
      </trkpt>
      <trkpt lat="45.64123" lon="4.69137">
        <ele>399.08</ele>
        <time>2015-04-26T07:26:04Z</time>
      </trkpt>
      <trkpt lat="45.64124" lon="4.69137">
        <ele>397.64</ele>
        <time>2015-04-26T07:26:45Z</time>
      </trkpt>
      <trkpt lat="45.64125" lon="4.69131">
        <ele>398.12</ele>
        <time>2015-04-26T07:27:29Z</time>
      </trkpt>
      <trkpt lat="45.64122" lon="4.69136">
        <ele>397.64</ele>
        <time>2015-04-26T07:28:07Z</time>
      </trkpt>
      <trkpt lat="45.64123" lon="4.69137">
        <ele>399.57</ele>
        <time>2015-04-26T07:28:49Z</time>
      </trkpt>
      <trkpt lat="45.64123" lon="4.69138">
        <ele>399.57</ele>
        <time>2015-04-26T07:29:30Z</time>
      </trkpt>
      <trkpt lat="45.64124" lon="4.6914">
        <ele>397.16</ele>
        <time>2015-04-26T07:29:54Z</time>
      </trkpt>
      <trkpt lat="45.64124" lon="4.69141">
        <ele>396.68</ele>
        <time>2015-04-26T07:30:14Z</time>
      </trkpt>
      <trkpt lat="45.64124" lon="4.6914">
        <ele>395.72</ele>
        <time>2015-04-26T07:30:35Z</time>
      </trkpt>
      <trkpt lat="45.64123" lon="4.6914">
        <ele>394.76</ele>
        <time>2015-04-26T07:30:45Z</time>
      </trkpt>
      <trkpt lat="45.64123" lon="4.69139">
        <ele>394.76</ele>
        <time>2015-04-26T07:30:56Z</time>
      </trkpt>
      <trkpt lat="45.64123" lon="4.6914">
        <ele>395.24</ele>
        <time>2015-04-26T07:31:00Z</time>
      </trkpt>
      <trkpt lat="45.64117" lon="4.6914">
        <ele>394.76</ele>
        <time>2015-04-26T07:31:06Z</time>
      </trkpt>
      <trkpt lat="45.64109" lon="4.69141">
        <ele>395.24</ele>
        <time>2015-04-26T07:31:12Z</time>
      </trkpt>
      <trkpt lat="45.64107" lon="4.6914">
        <ele>395.24</ele>
        <time>2015-04-26T07:31:13Z</time>
      </trkpt>
      <trkpt lat="45.64105" lon="4.69138">
        <ele>395.24</ele>
        <time>2015-04-26T07:31:14Z</time>
      </trkpt>
      <trkpt lat="45.64102" lon="4.69136">
        <ele>395.24</ele>
        <time>2015-04-26T07:31:15Z</time>
      </trkpt>
      <trkpt lat="45.64101" lon="4.69133">
        <ele>395.24</ele>
        <time>2015-04-26T07:31:16Z</time>
      </trkpt>
      <trkpt lat="45.64099" lon="4.6913">
        <ele>394.76</ele>
        <time>2015-04-26T07:31:17Z</time>
      </trkpt>
      <trkpt lat="45.64098" lon="4.69127">
        <ele>395.24</ele>
        <time>2015-04-26T07:31:18Z</time>
      </trkpt>
      <trkpt lat="45.64097" lon="4.69124">
        <ele>394.76</ele>
        <time>2015-04-26T07:31:19Z</time>
      </trkpt>
      <trkpt lat="45.64097" lon="4.69121">
        <ele>394.76</ele>
        <time>2015-04-26T07:31:20Z</time>
      </trkpt>
      <trkpt lat="45.641" lon="4.69116">
        <ele>394.28</ele>
        <time>2015-04-26T07:31:22Z</time>
      </trkpt>
      <trkpt lat="45.64112" lon="4.69077">
        <ele>393.8</ele>
        <time>2015-04-26T07:31:30Z</time>
      </trkpt>
      <trkpt lat="45.64114" lon="4.69072">
        <ele>393.8</ele>
        <time>2015-04-26T07:31:31Z</time>
      </trkpt>
      <trkpt lat="45.64128" lon="4.69044">
        <ele>392.84</ele>
        <time>2015-04-26T07:31:37Z</time>
      </trkpt>
      <trkpt lat="45.6417" lon="4.69002">
        <ele>393.8</ele>
        <time>2015-04-26T07:31:52Z</time>
      </trkpt>
      <trkpt lat="45.64181" lon="4.68982">
        <ele>392.84</ele>
        <time>2015-04-26T07:32:03Z</time>
      </trkpt>
      <trkpt lat="45.64183" lon="4.68976">
        <ele>392.84</ele>
        <time>2015-04-26T07:32:10Z</time>
      </trkpt>
      <trkpt lat="45.64183" lon="4.68969">
        <ele>393.32</ele>
        <time>2015-04-26T07:32:13Z</time>
      </trkpt>
      <trkpt lat="45.64182" lon="4.68966">
        <ele>392.84</ele>
        <time>2015-04-26T07:32:14Z</time>
      </trkpt>
      <trkpt lat="45.64181" lon="4.68962">
        <ele>392.36</ele>
        <time>2015-04-26T07:32:15Z</time>
      </trkpt>
      <trkpt lat="45.6418" lon="4.68958">
        <ele>392.36</ele>
        <time>2015-04-26T07:32:16Z</time>
      </trkpt>
      <trkpt lat="45.64178" lon="4.68953">
        <ele>392.36</ele>
        <time>2015-04-26T07:32:17Z</time>
      </trkpt>
      <trkpt lat="45.64176" lon="4.68949">
        <ele>391.87</ele>
        <time>2015-04-26T07:32:18Z</time>
      </trkpt>
      <trkpt lat="45.64173" lon="4.68944">
        <ele>391.87</ele>
        <time>2015-04-26T07:32:19Z</time>
      </trkpt>
      <trkpt lat="45.64165" lon="4.6893">
        <ele>391.39</ele>
        <time>2015-04-26T07:32:22Z</time>
      </trkpt>
      <trkpt lat="45.64142" lon="4.68855">
        <ele>390.43</ele>
        <time>2015-04-26T07:32:33Z</time>
      </trkpt>
      <trkpt lat="45.64138" lon="4.68832">
        <ele>390.43</ele>
        <time>2015-04-26T07:32:36Z</time>
      </trkpt>
      <trkpt lat="45.64136" lon="4.68825">
        <ele>390.43</ele>
        <time>2015-04-26T07:32:37Z</time>
      </trkpt>
      <trkpt lat="45.64134" lon="4.68818">
        <ele>390.91</ele>
        <time>2015-04-26T07:32:38Z</time>
      </trkpt>
      <trkpt lat="45.64129" lon="4.68788">
        <ele>390.91</ele>
        <time>2015-04-26T07:32:42Z</time>
      </trkpt>
      <trkpt lat="45.64128" lon="4.6878">
        <ele>390.43</ele>
        <time>2015-04-26T07:32:43Z</time>
      </trkpt>
      <trkpt lat="45.64112" lon="4.68681">
        <ele>392.84</ele>
        <time>2015-04-26T07:32:57Z</time>
      </trkpt>
      <trkpt lat="45.64109" lon="4.68665">
        <ele>392.84</ele>
        <time>2015-04-26T07:32:59Z</time>
      </trkpt>
      <trkpt lat="45.64107" lon="4.68657">
        <ele>392.84</ele>
        <time>2015-04-26T07:33:00Z</time>
      </trkpt>
      <trkpt lat="45.64105" lon="4.68649">
        <ele>392.36</ele>
        <time>2015-04-26T07:33:01Z</time>
      </trkpt>
      <trkpt lat="45.64105" lon="4.68639">
        <ele>392.36</ele>
        <time>2015-04-26T07:33:02Z</time>
      </trkpt>
      <trkpt lat="45.64104" lon="4.68629">
        <ele>392.36</ele>
        <time>2015-04-26T07:33:03Z</time>
      </trkpt>
      <trkpt lat="45.64103" lon="4.68618">
        <ele>391.87</ele>
        <time>2015-04-26T07:33:04Z</time>
      </trkpt>
      <trkpt lat="45.64102" lon="4.68609">
        <ele>391.39</ele>
        <time>2015-04-26T07:33:05Z</time>
      </trkpt>
      <trkpt lat="45.64102" lon="4.68598">
        <ele>390.91</ele>
        <time>2015-04-26T07:33:06Z</time>
      </trkpt>
      <trkpt lat="45.64102" lon="4.68588">
        <ele>390.43</ele>
        <time>2015-04-26T07:33:07Z</time>
      </trkpt>
      <trkpt lat="45.64102" lon="4.68579">
        <ele>389.95</ele>
        <time>2015-04-26T07:33:08Z</time>
      </trkpt>
      <trkpt lat="45.64099" lon="4.68566">
        <ele>389.95</ele>
        <time>2015-04-26T07:33:11Z</time>
      </trkpt>
      <trkpt lat="45.64095" lon="4.68565">
        <ele>389.95</ele>
        <time>2015-04-26T07:33:12Z</time>
      </trkpt>
      <trkpt lat="45.64063" lon="4.68558">
        <ele>389.95</ele>
        <time>2015-04-26T07:33:18Z</time>
      </trkpt>
      <trkpt lat="45.64023" lon="4.68535">
        <ele>390.91</ele>
        <time>2015-04-26T07:33:26Z</time>
      </trkpt>
      <trkpt lat="45.64018" lon="4.68534">
        <ele>390.91</ele>
        <time>2015-04-26T07:33:27Z</time>
      </trkpt>
      <trkpt lat="45.64012" lon="4.68534">
        <ele>391.39</ele>
        <time>2015-04-26T07:33:28Z</time>
      </trkpt>
      <trkpt lat="45.6399" lon="4.68535">
        <ele>390.91</ele>
        <time>2015-04-26T07:33:32Z</time>
      </trkpt>
      <trkpt lat="45.63935" lon="4.68534">
        <ele>390.91</ele>
        <time>2015-04-26T07:33:42Z</time>
      </trkpt>
      <trkpt lat="45.63933" lon="4.68528">
        <ele>390.91</ele>
        <time>2015-04-26T07:33:43Z</time>
      </trkpt>
      <trkpt lat="45.63932" lon="4.68521">
        <ele>390.43</ele>
        <time>2015-04-26T07:33:44Z</time>
      </trkpt>
      <trkpt lat="45.63931" lon="4.68502">
        <ele>390.43</ele>
        <time>2015-04-26T07:33:47Z</time>
      </trkpt>
      <trkpt lat="45.63931" lon="4.68496">
        <ele>390.43</ele>
        <time>2015-04-26T07:33:48Z</time>
      </trkpt>
      <trkpt lat="45.6393" lon="4.6849">
        <ele>389.95</ele>
        <time>2015-04-26T07:33:49Z</time>
      </trkpt>
      <trkpt lat="45.63927" lon="4.68486">
        <ele>389.95</ele>
        <time>2015-04-26T07:33:50Z</time>
      </trkpt>
      <trkpt lat="45.63923" lon="4.68485">
        <ele>389.95</ele>
        <time>2015-04-26T07:33:51Z</time>
      </trkpt>
      <trkpt lat="45.63918" lon="4.68485">
        <ele>389.47</ele>
        <time>2015-04-26T07:33:52Z</time>
      </trkpt>
      <trkpt lat="45.63913" lon="4.68485">
        <ele>389.47</ele>
        <time>2015-04-26T07:33:53Z</time>
      </trkpt>
      <trkpt lat="45.63909" lon="4.68485">
        <ele>389.95</ele>
        <time>2015-04-26T07:33:54Z</time>
      </trkpt>
      <trkpt lat="45.63905" lon="4.68485">
        <ele>390.43</ele>
        <time>2015-04-26T07:33:55Z</time>
      </trkpt>
      <trkpt lat="45.63901" lon="4.68485">
        <ele>390.43</ele>
        <time>2015-04-26T07:33:56Z</time>
      </trkpt>
      <trkpt lat="45.63897" lon="4.68486">
        <ele>390.43</ele>
        <time>2015-04-26T07:33:57Z</time>
      </trkpt>
      <trkpt lat="45.6388" lon="4.68483">
        <ele>390.43</ele>
        <time>2015-04-26T07:34:04Z</time>
      </trkpt>
      <trkpt lat="45.63878" lon="4.68483">
        <ele>390.43</ele>
        <time>2015-04-26T07:34:05Z</time>
      </trkpt>
      <trkpt lat="45.63877" lon="4.68483">
        <ele>390.43</ele>
        <time>2015-04-26T07:34:15Z</time>
      </trkpt>
      <trkpt lat="45.63876" lon="4.68483">
        <ele>389.47</ele>
        <time>2015-04-26T07:34:26Z</time>
      </trkpt>
      <trkpt lat="45.63875" lon="4.68484">
        <ele>389.47</ele>
        <time>2015-04-26T07:34:27Z</time>
      </trkpt>
      <trkpt lat="45.63874" lon="4.68486">
        <ele>388.99</ele>
        <time>2015-04-26T07:34:28Z</time>
      </trkpt>
      <trkpt lat="45.63871" lon="4.68487">
        <ele>388.99</ele>
        <time>2015-04-26T07:34:29Z</time>
      </trkpt>
      <trkpt lat="45.63868" lon="4.68487">
        <ele>388.99</ele>
        <time>2015-04-26T07:34:30Z</time>
      </trkpt>
      <trkpt lat="45.63865" lon="4.68486">
        <ele>388.99</ele>
        <time>2015-04-26T07:34:31Z</time>
      </trkpt>
      <trkpt lat="45.63862" lon="4.68486">
        <ele>388.51</ele>
        <time>2015-04-26T07:34:32Z</time>
      </trkpt>
      <trkpt lat="45.63859" lon="4.68486">
        <ele>388.51</ele>
        <time>2015-04-26T07:34:33Z</time>
      </trkpt>
      <trkpt lat="45.63823" lon="4.68499">
        <ele>387.55</ele>
        <time>2015-04-26T07:34:43Z</time>
      </trkpt>
      <trkpt lat="45.6382" lon="4.68504">
        <ele>387.07</ele>
        <time>2015-04-26T07:34:44Z</time>
      </trkpt>
      <trkpt lat="45.63815" lon="4.68515">
        <ele>387.07</ele>
        <time>2015-04-26T07:34:46Z</time>
      </trkpt>
      <trkpt lat="45.6381" lon="4.68518">
        <ele>387.07</ele>
        <time>2015-04-26T07:34:47Z</time>
      </trkpt>
      <trkpt lat="45.63805" lon="4.6852">
        <ele>387.07</ele>
        <time>2015-04-26T07:34:48Z</time>
      </trkpt>
      <trkpt lat="45.638" lon="4.68521">
        <ele>387.07</ele>
        <time>2015-04-26T07:34:49Z</time>
      </trkpt>
      <trkpt lat="45.63795" lon="4.68521">
        <ele>387.07</ele>
        <time>2015-04-26T07:34:50Z</time>
      </trkpt>
      <trkpt lat="45.63791" lon="4.6852">
        <ele>387.07</ele>
        <time>2015-04-26T07:34:51Z</time>
      </trkpt>
      <trkpt lat="45.63786" lon="4.68518">
        <ele>387.55</ele>
        <time>2015-04-26T07:34:52Z</time>
      </trkpt>
      <trkpt lat="45.63782" lon="4.68517">
        <ele>387.55</ele>
        <time>2015-04-26T07:34:53Z</time>
      </trkpt>
      <trkpt lat="45.63722" lon="4.68487">
        <ele>389.95</ele>
        <time>2015-04-26T07:35:09Z</time>
      </trkpt>
      <trkpt lat="45.63711" lon="4.68472">
        <ele>389.95</ele>
        <time>2015-04-26T07:35:13Z</time>
      </trkpt>
      <trkpt lat="45.63708" lon="4.68468">
        <ele>389.95</ele>
        <time>2015-04-26T07:35:14Z</time>
      </trkpt>
      <trkpt lat="45.63705" lon="4.68464">
        <ele>389.95</ele>
        <time>2015-04-26T07:35:15Z</time>
      </trkpt>
      <trkpt lat="45.63696" lon="4.68445">
        <ele>389.47</ele>
        <time>2015-04-26T07:35:19Z</time>
      </trkpt>
      <trkpt lat="45.63665" lon="4.68353">
        <ele>389.47</ele>
        <time>2015-04-26T07:35:34Z</time>
      </trkpt>
      <trkpt lat="45.63627" lon="4.68222">
        <ele>388.03</ele>
        <time>2015-04-26T07:35:52Z</time>
      </trkpt>
      <trkpt lat="45.63624" lon="4.68215">
        <ele>387.55</ele>
        <time>2015-04-26T07:35:53Z</time>
      </trkpt>
      <trkpt lat="45.63621" lon="4.68208">
        <ele>387.55</ele>
        <time>2015-04-26T07:35:54Z</time>
      </trkpt>
      <trkpt lat="45.63609" lon="4.68189">
        <ele>387.07</ele>
        <time>2015-04-26T07:35:57Z</time>
      </trkpt>
      <trkpt lat="45.63605" lon="4.68184">
        <ele>387.07</ele>
        <time>2015-04-26T07:35:58Z</time>
      </trkpt>
      <trkpt lat="45.63538" lon="4.68101">
        <ele>388.03</ele>
        <time>2015-04-26T07:36:14Z</time>
      </trkpt>
      <trkpt lat="45.63524" lon="4.68088">
        <ele>388.03</ele>
        <time>2015-04-26T07:36:17Z</time>
      </trkpt>
      <trkpt lat="45.63453" lon="4.68037">
        <ele>389.47</ele>
        <time>2015-04-26T07:36:32Z</time>
      </trkpt>
      <trkpt lat="45.63428" lon="4.68017">
        <ele>388.51</ele>
        <time>2015-04-26T07:36:37Z</time>
      </trkpt>
      <trkpt lat="45.63424" lon="4.68011">
        <ele>388.03</ele>
        <time>2015-04-26T07:36:38Z</time>
      </trkpt>
      <trkpt lat="45.63354" lon="4.67914">
        <ele>385.63</ele>
        <time>2015-04-26T07:36:53Z</time>
      </trkpt>
      <trkpt lat="45.63296" lon="4.67854">
        <ele>382.74</ele>
        <time>2015-04-26T07:37:04Z</time>
      </trkpt>
      <trkpt lat="45.63296" lon="4.67848">
        <ele>382.74</ele>
        <time>2015-04-26T07:37:05Z</time>
      </trkpt>
      <trkpt lat="45.63296" lon="4.67842">
        <ele>383.22</ele>
        <time>2015-04-26T07:37:06Z</time>
      </trkpt>
      <trkpt lat="45.63296" lon="4.67837">
        <ele>383.22</ele>
        <time>2015-04-26T07:37:07Z</time>
      </trkpt>
      <trkpt lat="45.63296" lon="4.67831">
        <ele>383.22</ele>
        <time>2015-04-26T07:37:08Z</time>
      </trkpt>
      <trkpt lat="45.63297" lon="4.67825">
        <ele>383.7</ele>
        <time>2015-04-26T07:37:09Z</time>
      </trkpt>
      <trkpt lat="45.63298" lon="4.6782">
        <ele>383.7</ele>
        <time>2015-04-26T07:37:10Z</time>
      </trkpt>
      <trkpt lat="45.63304" lon="4.67776">
        <ele>384.18</ele>
        <time>2015-04-26T07:37:19Z</time>
      </trkpt>
      <trkpt lat="45.63308" lon="4.67774">
        <ele>384.18</ele>
        <time>2015-04-26T07:37:20Z</time>
      </trkpt>
      <trkpt lat="45.63311" lon="4.67774">
        <ele>384.18</ele>
        <time>2015-04-26T07:37:21Z</time>
      </trkpt>
      <trkpt lat="45.63314" lon="4.67774">
        <ele>384.18</ele>
        <time>2015-04-26T07:37:22Z</time>
      </trkpt>
      <trkpt lat="45.63318" lon="4.67775">
        <ele>384.66</ele>
        <time>2015-04-26T07:37:23Z</time>
      </trkpt>
      <trkpt lat="45.63357" lon="4.67785">
        <ele>386.59</ele>
        <time>2015-04-26T07:37:37Z</time>
      </trkpt>
      <trkpt lat="45.63392" lon="4.67793">
        <ele>389.95</ele>
        <time>2015-04-26T07:37:52Z</time>
      </trkpt>
      <trkpt lat="45.63425" lon="4.67803">
        <ele>392.36</ele>
        <time>2015-04-26T07:38:06Z</time>
      </trkpt>
      <trkpt lat="45.63461" lon="4.67815">
        <ele>394.76</ele>
        <time>2015-04-26T07:38:22Z</time>
      </trkpt>
      <trkpt lat="45.63495" lon="4.67823">
        <ele>395.72</ele>
        <time>2015-04-26T07:38:36Z</time>
      </trkpt>
      <trkpt lat="45.63531" lon="4.67822">
        <ele>397.16</ele>
        <time>2015-04-26T07:38:51Z</time>
      </trkpt>
      <trkpt lat="45.63573" lon="4.67817">
        <ele>399.08</ele>
        <time>2015-04-26T07:39:07Z</time>
      </trkpt>
      <trkpt lat="45.63615" lon="4.67814">
        <ele>398.6</ele>
        <time>2015-04-26T07:39:22Z</time>
      </trkpt>
      <trkpt lat="45.63654" lon="4.67812">
        <ele>400.53</ele>
        <time>2015-04-26T07:39:36Z</time>
      </trkpt>
      <trkpt lat="45.637" lon="4.67811">
        <ele>402.45</ele>
        <time>2015-04-26T07:39:53Z</time>
      </trkpt>
      <trkpt lat="45.63734" lon="4.67811">
        <ele>404.37</ele>
        <time>2015-04-26T07:40:07Z</time>
      </trkpt>
      <trkpt lat="45.63766" lon="4.67809">
        <ele>406.77</ele>
        <time>2015-04-26T07:40:22Z</time>
      </trkpt>
      <trkpt lat="45.63768" lon="4.6781">
        <ele>407.26</ele>
        <time>2015-04-26T07:40:23Z</time>
      </trkpt>
      <trkpt lat="45.6377" lon="4.6781">
        <ele>407.26</ele>
        <time>2015-04-26T07:40:24Z</time>
      </trkpt>
      <trkpt lat="45.63772" lon="4.6781">
        <ele>407.26</ele>
        <time>2015-04-26T07:40:25Z</time>
      </trkpt>
      <trkpt lat="45.63774" lon="4.6781">
        <ele>407.26</ele>
        <time>2015-04-26T07:40:26Z</time>
      </trkpt>
      <trkpt lat="45.63806" lon="4.67809">
        <ele>407.74</ele>
        <time>2015-04-26T07:40:40Z</time>
      </trkpt>
      <trkpt lat="45.63832" lon="4.67806">
        <ele>408.7</ele>
        <time>2015-04-26T07:40:51Z</time>
      </trkpt>
      <trkpt lat="45.63866" lon="4.67804">
        <ele>410.62</ele>
        <time>2015-04-26T07:41:05Z</time>
      </trkpt>
      <trkpt lat="45.63904" lon="4.67804">
        <ele>412.06</ele>
        <time>2015-04-26T07:41:21Z</time>
      </trkpt>
      <trkpt lat="45.63939" lon="4.67805">
        <ele>412.54</ele>
        <time>2015-04-26T07:41:36Z</time>
      </trkpt>
      <trkpt lat="45.63963" lon="4.67806">
        <ele>413.02</ele>
        <time>2015-04-26T07:41:46Z</time>
      </trkpt>
      <trkpt lat="45.63965" lon="4.67804">
        <ele>413.02</ele>
        <time>2015-04-26T07:41:47Z</time>
      </trkpt>
      <trkpt lat="45.63967" lon="4.67802">
        <ele>413.5</ele>
        <time>2015-04-26T07:41:48Z</time>
      </trkpt>
      <trkpt lat="45.63967" lon="4.67798">
        <ele>413.5</ele>
        <time>2015-04-26T07:41:49Z</time>
      </trkpt>
      <trkpt lat="45.63967" lon="4.67795">
        <ele>413.5</ele>
        <time>2015-04-26T07:41:50Z</time>
      </trkpt>
      <trkpt lat="45.63966" lon="4.67792">
        <ele>413.5</ele>
        <time>2015-04-26T07:41:51Z</time>
      </trkpt>
      <trkpt lat="45.63964" lon="4.67789">
        <ele>413.5</ele>
        <time>2015-04-26T07:41:52Z</time>
      </trkpt>
      <trkpt lat="45.63962" lon="4.67786">
        <ele>413.5</ele>
        <time>2015-04-26T07:41:53Z</time>
      </trkpt>
      <trkpt lat="45.63961" lon="4.67783">
        <ele>413.5</ele>
        <time>2015-04-26T07:41:54Z</time>
      </trkpt>
      <trkpt lat="45.63936" lon="4.67729">
        <ele>414.95</ele>
        <time>2015-04-26T07:42:10Z</time>
      </trkpt>
      <trkpt lat="45.63914" lon="4.67687">
        <ele>415.91</ele>
        <time>2015-04-26T07:42:23Z</time>
      </trkpt>
      <trkpt lat="45.63895" lon="4.67639">
        <ele>414.47</ele>
        <time>2015-04-26T07:42:35Z</time>
      </trkpt>
      <trkpt lat="45.63886" lon="4.676">
        <ele>413.98</ele>
        <time>2015-04-26T07:42:42Z</time>
      </trkpt>
      <trkpt lat="45.63876" lon="4.67574">
        <ele>414.47</ele>
        <time>2015-04-26T07:42:46Z</time>
      </trkpt>
      <trkpt lat="45.63873" lon="4.67567">
        <ele>414.95</ele>
        <time>2015-04-26T07:42:47Z</time>
      </trkpt>
      <trkpt lat="45.63872" lon="4.6756">
        <ele>415.91</ele>
        <time>2015-04-26T07:42:48Z</time>
      </trkpt>
      <trkpt lat="45.63874" lon="4.67553">
        <ele>416.39</ele>
        <time>2015-04-26T07:42:49Z</time>
      </trkpt>
      <trkpt lat="45.63878" lon="4.67549">
        <ele>416.87</ele>
        <time>2015-04-26T07:42:50Z</time>
      </trkpt>
      <trkpt lat="45.63882" lon="4.67545">
        <ele>417.35</ele>
        <time>2015-04-26T07:42:51Z</time>
      </trkpt>
      <trkpt lat="45.63885" lon="4.6754">
        <ele>417.83</ele>
        <time>2015-04-26T07:42:52Z</time>
      </trkpt>
      <trkpt lat="45.63886" lon="4.67534">
        <ele>418.31</ele>
        <time>2015-04-26T07:42:53Z</time>
      </trkpt>
      <trkpt lat="45.63884" lon="4.67529">
        <ele>418.79</ele>
        <time>2015-04-26T07:42:54Z</time>
      </trkpt>
      <trkpt lat="45.63882" lon="4.67524">
        <ele>419.27</ele>
        <time>2015-04-26T07:42:55Z</time>
      </trkpt>
      <trkpt lat="45.63878" lon="4.67521">
        <ele>419.27</ele>
        <time>2015-04-26T07:42:56Z</time>
      </trkpt>
      <trkpt lat="45.63875" lon="4.67516">
        <ele>419.27</ele>
        <time>2015-04-26T07:42:57Z</time>
      </trkpt>
      <trkpt lat="45.63871" lon="4.67511">
        <ele>418.79</ele>
        <time>2015-04-26T07:42:58Z</time>
      </trkpt>
      <trkpt lat="45.63868" lon="4.67506">
        <ele>418.79</ele>
        <time>2015-04-26T07:42:59Z</time>
      </trkpt>
      <trkpt lat="45.6386" lon="4.67496">
        <ele>418.31</ele>
        <time>2015-04-26T07:43:01Z</time>
      </trkpt>
      <trkpt lat="45.63856" lon="4.6749">
        <ele>418.31</ele>
        <time>2015-04-26T07:43:02Z</time>
      </trkpt>
      <trkpt lat="45.63788" lon="4.67411">
        <ele>415.91</ele>
        <time>2015-04-26T07:43:19Z</time>
      </trkpt>
      <trkpt lat="45.63785" lon="4.67402">
        <ele>415.91</ele>
        <time>2015-04-26T07:43:21Z</time>
      </trkpt>
      <trkpt lat="45.63786" lon="4.67398">
        <ele>415.91</ele>
        <time>2015-04-26T07:43:22Z</time>
      </trkpt>
      <trkpt lat="45.63788" lon="4.67396">
        <ele>415.91</ele>
        <time>2015-04-26T07:43:23Z</time>
      </trkpt>
      <trkpt lat="45.6379" lon="4.67394">
        <ele>416.39</ele>
        <time>2015-04-26T07:43:24Z</time>
      </trkpt>
      <trkpt lat="45.63793" lon="4.67393">
        <ele>416.39</ele>
        <time>2015-04-26T07:43:25Z</time>
      </trkpt>
      <trkpt lat="45.63827" lon="4.67373">
        <ele>418.79</ele>
        <time>2015-04-26T07:43:40Z</time>
      </trkpt>
      <trkpt lat="45.63859" lon="4.67353">
        <ele>423.12</ele>
        <time>2015-04-26T07:43:56Z</time>
      </trkpt>
      <trkpt lat="45.63888" lon="4.67331">
        <ele>426.48</ele>
        <time>2015-04-26T07:44:13Z</time>
      </trkpt>
      <trkpt lat="45.639" lon="4.67319">
        <ele>427.44</ele>
        <time>2015-04-26T07:44:23Z</time>
      </trkpt>
      <trkpt lat="45.63901" lon="4.67317">
        <ele>427.44</ele>
        <time>2015-04-26T07:44:24Z</time>
      </trkpt>
      <trkpt lat="45.63902" lon="4.67316">
        <ele>427.44</ele>
        <time>2015-04-26T07:44:25Z</time>
      </trkpt>
      <trkpt lat="45.63903" lon="4.67315">
        <ele>427.44</ele>
        <time>2015-04-26T07:44:26Z</time>
      </trkpt>
      <trkpt lat="45.63904" lon="4.67313">
        <ele>427.92</ele>
        <time>2015-04-26T07:44:27Z</time>
      </trkpt>
      <trkpt lat="45.63905" lon="4.67312">
        <ele>427.92</ele>
        <time>2015-04-26T07:44:28Z</time>
      </trkpt>
      <trkpt lat="45.63925" lon="4.67295">
        <ele>430.81</ele>
        <time>2015-04-26T07:44:46Z</time>
      </trkpt>
      <trkpt lat="45.63946" lon="4.67286">
        <ele>433.21</ele>
        <time>2015-04-26T07:45:02Z</time>
      </trkpt>
      <trkpt lat="45.63968" lon="4.67278">
        <ele>436.58</ele>
        <time>2015-04-26T07:45:19Z</time>
      </trkpt>
      <trkpt lat="45.63981" lon="4.67273">
        <ele>438.98</ele>
        <time>2015-04-26T07:45:30Z</time>
      </trkpt>
      <trkpt lat="45.64" lon="4.67267">
        <ele>442.34</ele>
        <time>2015-04-26T07:45:45Z</time>
      </trkpt>
      <trkpt lat="45.64019" lon="4.67262">
        <ele>445.71</ele>
        <time>2015-04-26T07:45:59Z</time>
      </trkpt>
      <trkpt lat="45.6402" lon="4.67261">
        <ele>445.71</ele>
        <time>2015-04-26T07:46:00Z</time>
      </trkpt>
      <trkpt lat="45.64021" lon="4.67261">
        <ele>446.19</ele>
        <time>2015-04-26T07:46:01Z</time>
      </trkpt>
      <trkpt lat="45.64022" lon="4.67261">
        <ele>446.67</ele>
        <time>2015-04-26T07:46:02Z</time>
      </trkpt>
      <trkpt lat="45.64023" lon="4.6726">
        <ele>446.67</ele>
        <time>2015-04-26T07:46:03Z</time>
      </trkpt>
      <trkpt lat="45.64025" lon="4.6726">
        <ele>446.67</ele>
        <time>2015-04-26T07:46:04Z</time>
      </trkpt>
      <trkpt lat="45.64026" lon="4.6726">
        <ele>446.67</ele>
        <time>2015-04-26T07:46:05Z</time>
      </trkpt>
      <trkpt lat="45.64027" lon="4.67259">
        <ele>447.15</ele>
        <time>2015-04-26T07:46:06Z</time>
      </trkpt>
      <trkpt lat="45.64028" lon="4.67258">
        <ele>447.15</ele>
        <time>2015-04-26T07:46:07Z</time>
      </trkpt>
      <trkpt lat="45.64029" lon="4.67257">
        <ele>447.15</ele>
        <time>2015-04-26T07:46:08Z</time>
      </trkpt>
      <trkpt lat="45.64031" lon="4.67257">
        <ele>447.63</ele>
        <time>2015-04-26T07:46:09Z</time>
      </trkpt>
      <trkpt lat="45.64035" lon="4.67257">
        <ele>448.59</ele>
        <time>2015-04-26T07:46:13Z</time>
      </trkpt>
      <trkpt lat="45.64036" lon="4.67256">
        <ele>448.59</ele>
        <time>2015-04-26T07:46:14Z</time>
      </trkpt>
      <trkpt lat="45.64038" lon="4.67256">
        <ele>448.59</ele>
        <time>2015-04-26T07:46:15Z</time>
      </trkpt>
      <trkpt lat="45.64039" lon="4.67256">
        <ele>448.59</ele>
        <time>2015-04-26T07:46:16Z</time>
      </trkpt>
      <trkpt lat="45.6404" lon="4.67256">
        <ele>448.59</ele>
        <time>2015-04-26T07:46:17Z</time>
      </trkpt>
      <trkpt lat="45.64041" lon="4.67255">
        <ele>449.07</ele>
        <time>2015-04-26T07:46:18Z</time>
      </trkpt>
      <trkpt lat="45.6406" lon="4.67252">
        <ele>450.03</ele>
        <time>2015-04-26T07:46:32Z</time>
      </trkpt>
      <trkpt lat="45.64078" lon="4.6725">
        <ele>451</ele>
        <time>2015-04-26T07:46:43Z</time>
      </trkpt>
      <trkpt lat="45.64079" lon="4.6725">
        <ele>451.48</ele>
        <time>2015-04-26T07:46:44Z</time>
      </trkpt>
      <trkpt lat="45.64081" lon="4.6725">
        <ele>451.48</ele>
        <time>2015-04-26T07:46:45Z</time>
      </trkpt>
      <trkpt lat="45.64082" lon="4.6725">
        <ele>451.48</ele>
        <time>2015-04-26T07:46:46Z</time>
      </trkpt>
      <trkpt lat="45.64084" lon="4.6725">
        <ele>451.48</ele>
        <time>2015-04-26T07:46:47Z</time>
      </trkpt>
      <trkpt lat="45.64111" lon="4.67249">
        <ele>451.96</ele>
        <time>2015-04-26T07:47:03Z</time>
      </trkpt>
      <trkpt lat="45.64118" lon="4.67248">
        <ele>452.44</ele>
        <time>2015-04-26T07:47:07Z</time>
      </trkpt>
      <trkpt lat="45.64131" lon="4.67248">
        <ele>452.92</ele>
        <time>2015-04-26T07:47:15Z</time>
      </trkpt>
      <trkpt lat="45.64133" lon="4.67247">
        <ele>452.92</ele>
        <time>2015-04-26T07:47:16Z</time>
      </trkpt>
      <trkpt lat="45.64134" lon="4.67247">
        <ele>453.4</ele>
        <time>2015-04-26T07:47:17Z</time>
      </trkpt>
      <trkpt lat="45.64136" lon="4.67247">
        <ele>453.4</ele>
        <time>2015-04-26T07:47:18Z</time>
      </trkpt>
      <trkpt lat="45.64137" lon="4.67247">
        <ele>453.4</ele>
        <time>2015-04-26T07:47:19Z</time>
      </trkpt>
      <trkpt lat="45.64139" lon="4.67247">
        <ele>453.4</ele>
        <time>2015-04-26T07:47:20Z</time>
      </trkpt>
      <trkpt lat="45.64141" lon="4.67247">
        <ele>453.4</ele>
        <time>2015-04-26T07:47:21Z</time>
      </trkpt>
      <trkpt lat="45.64143" lon="4.67247">
        <ele>453.4</ele>
        <time>2015-04-26T07:47:22Z</time>
      </trkpt>
      <trkpt lat="45.64169" lon="4.67248">
        <ele>455.8</ele>
        <time>2015-04-26T07:47:38Z</time>
      </trkpt>
      <trkpt lat="45.64194" lon="4.67249">
        <ele>456.76</ele>
        <time>2015-04-26T07:47:53Z</time>
      </trkpt>
      <trkpt lat="45.6421" lon="4.67248">
        <ele>457.72</ele>
        <time>2015-04-26T07:48:03Z</time>
      </trkpt>
      <trkpt lat="45.64212" lon="4.67248">
        <ele>457.72</ele>
        <time>2015-04-26T07:48:04Z</time>
      </trkpt>
      <trkpt lat="45.64223" lon="4.67244">
        <ele>459.17</ele>
        <time>2015-04-26T07:48:13Z</time>
      </trkpt>
      <trkpt lat="45.64224" lon="4.67242">
        <ele>459.65</ele>
        <time>2015-04-26T07:48:14Z</time>
      </trkpt>
      <trkpt lat="45.64225" lon="4.67242">
        <ele>459.17</ele>
        <time>2015-04-26T07:48:15Z</time>
      </trkpt>
      <trkpt lat="45.64232" lon="4.67238">
        <ele>460.13</ele>
        <time>2015-04-26T07:48:20Z</time>
      </trkpt>
      <trkpt lat="45.64234" lon="4.67237">
        <ele>460.13</ele>
        <time>2015-04-26T07:48:21Z</time>
      </trkpt>
      <trkpt lat="45.64235" lon="4.67236">
        <ele>460.13</ele>
        <time>2015-04-26T07:48:22Z</time>
      </trkpt>
      <trkpt lat="45.64237" lon="4.67235">
        <ele>460.13</ele>
        <time>2015-04-26T07:48:23Z</time>
      </trkpt>
      <trkpt lat="45.64239" lon="4.67235">
        <ele>460.13</ele>
        <time>2015-04-26T07:48:24Z</time>
      </trkpt>
      <trkpt lat="45.64241" lon="4.67235">
        <ele>460.13</ele>
        <time>2015-04-26T07:48:25Z</time>
      </trkpt>
      <trkpt lat="45.64243" lon="4.67235">
        <ele>460.13</ele>
        <time>2015-04-26T07:48:26Z</time>
      </trkpt>
      <trkpt lat="45.64245" lon="4.67235">
        <ele>460.13</ele>
        <time>2015-04-26T07:48:27Z</time>
      </trkpt>
      <trkpt lat="45.64246" lon="4.67235">
        <ele>460.13</ele>
        <time>2015-04-26T07:48:28Z</time>
      </trkpt>
      <trkpt lat="45.64248" lon="4.67234">
        <ele>460.13</ele>
        <time>2015-04-26T07:48:29Z</time>
      </trkpt>
      <trkpt lat="45.6425" lon="4.67234">
        <ele>460.61</ele>
        <time>2015-04-26T07:48:30Z</time>
      </trkpt>
      <trkpt lat="45.64252" lon="4.67235">
        <ele>460.61</ele>
        <time>2015-04-26T07:48:31Z</time>
      </trkpt>
      <trkpt lat="45.64254" lon="4.67235">
        <ele>461.09</ele>
        <time>2015-04-26T07:48:32Z</time>
      </trkpt>
      <trkpt lat="45.64263" lon="4.67235">
        <ele>461.09</ele>
        <time>2015-04-26T07:48:37Z</time>
      </trkpt>
      <trkpt lat="45.64265" lon="4.67235">
        <ele>461.09</ele>
        <time>2015-04-26T07:48:38Z</time>
      </trkpt>
      <trkpt lat="45.6429" lon="4.67237">
        <ele>463.49</ele>
        <time>2015-04-26T07:48:53Z</time>
      </trkpt>
      <trkpt lat="45.64312" lon="4.67236">
        <ele>464.45</ele>
        <time>2015-04-26T07:49:05Z</time>
      </trkpt>
      <trkpt lat="45.64323" lon="4.67237">
        <ele>464.93</ele>
        <time>2015-04-26T07:49:11Z</time>
      </trkpt>
      <trkpt lat="45.64325" lon="4.67238">
        <ele>465.42</ele>
        <time>2015-04-26T07:49:12Z</time>
      </trkpt>
      <trkpt lat="45.64327" lon="4.67239">
        <ele>465.42</ele>
        <time>2015-04-26T07:49:13Z</time>
      </trkpt>
      <trkpt lat="45.64328" lon="4.6724">
        <ele>465.42</ele>
        <time>2015-04-26T07:49:14Z</time>
      </trkpt>
      <trkpt lat="45.6433" lon="4.67241">
        <ele>465.42</ele>
        <time>2015-04-26T07:49:15Z</time>
      </trkpt>
      <trkpt lat="45.64331" lon="4.67242">
        <ele>465.42</ele>
        <time>2015-04-26T07:49:16Z</time>
      </trkpt>
      <trkpt lat="45.64332" lon="4.67244">
        <ele>465.42</ele>
        <time>2015-04-26T07:49:17Z</time>
      </trkpt>
      <trkpt lat="45.64353" lon="4.67271">
        <ele>468.78</ele>
        <time>2015-04-26T07:49:32Z</time>
      </trkpt>
      <trkpt lat="45.64373" lon="4.67286">
        <ele>469.74</ele>
        <time>2015-04-26T07:49:46Z</time>
      </trkpt>
      <trkpt lat="45.644" lon="4.67284">
        <ele>472.63</ele>
        <time>2015-04-26T07:50:01Z</time>
      </trkpt>
      <trkpt lat="45.64411" lon="4.67283">
        <ele>473.11</ele>
        <time>2015-04-26T07:50:08Z</time>
      </trkpt>
      <trkpt lat="45.64412" lon="4.67285">
        <ele>473.11</ele>
        <time>2015-04-26T07:50:09Z</time>
      </trkpt>
      <trkpt lat="45.64412" lon="4.67287">
        <ele>473.11</ele>
        <time>2015-04-26T07:50:10Z</time>
      </trkpt>
      <trkpt lat="45.64412" lon="4.6729">
        <ele>473.11</ele>
        <time>2015-04-26T07:50:11Z</time>
      </trkpt>
      <trkpt lat="45.64413" lon="4.67293">
        <ele>473.11</ele>
        <time>2015-04-26T07:50:12Z</time>
      </trkpt>
      <trkpt lat="45.64414" lon="4.67296">
        <ele>473.11</ele>
        <time>2015-04-26T07:50:13Z</time>
      </trkpt>
      <trkpt lat="45.64415" lon="4.67298">
        <ele>473.11</ele>
        <time>2015-04-26T07:50:14Z</time>
      </trkpt>
      <trkpt lat="45.6442" lon="4.67332">
        <ele>471.18</ele>
        <time>2015-04-26T07:50:24Z</time>
      </trkpt>
      <trkpt lat="45.64427" lon="4.6736">
        <ele>469.74</ele>
        <time>2015-04-26T07:50:30Z</time>
      </trkpt>
      <trkpt lat="45.64428" lon="4.67366">
        <ele>469.74</ele>
        <time>2015-04-26T07:50:31Z</time>
      </trkpt>
      <trkpt lat="45.64428" lon="4.67372">
        <ele>469.26</ele>
        <time>2015-04-26T07:50:32Z</time>
      </trkpt>
      <trkpt lat="45.64428" lon="4.67378">
        <ele>469.26</ele>
        <time>2015-04-26T07:50:33Z</time>
      </trkpt>
      <trkpt lat="45.64429" lon="4.67384">
        <ele>469.26</ele>
        <time>2015-04-26T07:50:34Z</time>
      </trkpt>
      <trkpt lat="45.6443" lon="4.67391">
        <ele>469.26</ele>
        <time>2015-04-26T07:50:35Z</time>
      </trkpt>
      <trkpt lat="45.64432" lon="4.67399">
        <ele>468.78</ele>
        <time>2015-04-26T07:50:36Z</time>
      </trkpt>
      <trkpt lat="45.64434" lon="4.67406">
        <ele>468.78</ele>
        <time>2015-04-26T07:50:37Z</time>
      </trkpt>
      <trkpt lat="45.64436" lon="4.67413">
        <ele>468.3</ele>
        <time>2015-04-26T07:50:38Z</time>
      </trkpt>
      <trkpt lat="45.6444" lon="4.6742">
        <ele>467.82</ele>
        <time>2015-04-26T07:50:39Z</time>
      </trkpt>
      <trkpt lat="45.64447" lon="4.67433">
        <ele>466.86</ele>
        <time>2015-04-26T07:50:41Z</time>
      </trkpt>
      <trkpt lat="45.64451" lon="4.67439">
        <ele>466.38</ele>
        <time>2015-04-26T07:50:42Z</time>
      </trkpt>
      <trkpt lat="45.64456" lon="4.67445">
        <ele>466.38</ele>
        <time>2015-04-26T07:50:43Z</time>
      </trkpt>
      <trkpt lat="45.64492" lon="4.67473">
        <ele>463.97</ele>
        <time>2015-04-26T07:50:49Z</time>
      </trkpt>
      <trkpt lat="45.64519" lon="4.67481">
        <ele>462.53</ele>
        <time>2015-04-26T07:50:54Z</time>
      </trkpt>
      <trkpt lat="45.64523" lon="4.67483">
        <ele>462.53</ele>
        <time>2015-04-26T07:50:55Z</time>
      </trkpt>
      <trkpt lat="45.64526" lon="4.67484">
        <ele>462.53</ele>
        <time>2015-04-26T07:50:56Z</time>
      </trkpt>
      <trkpt lat="45.64529" lon="4.67484">
        <ele>463.01</ele>
        <time>2015-04-26T07:50:57Z</time>
      </trkpt>
      <trkpt lat="45.64532" lon="4.67485">
        <ele>463.01</ele>
        <time>2015-04-26T07:50:58Z</time>
      </trkpt>
      <trkpt lat="45.64534" lon="4.67486">
        <ele>463.01</ele>
        <time>2015-04-26T07:50:59Z</time>
      </trkpt>
      <trkpt lat="45.64547" lon="4.6749">
        <ele>463.49</ele>
        <time>2015-04-26T07:51:05Z</time>
      </trkpt>
      <trkpt lat="45.64549" lon="4.67489">
        <ele>463.97</ele>
        <time>2015-04-26T07:51:06Z</time>
      </trkpt>
      <trkpt lat="45.64551" lon="4.67489">
        <ele>463.49</ele>
        <time>2015-04-26T07:51:07Z</time>
      </trkpt>
      <trkpt lat="45.64553" lon="4.6749">
        <ele>463.49</ele>
        <time>2015-04-26T07:51:08Z</time>
      </trkpt>
      <trkpt lat="45.64555" lon="4.6749">
        <ele>463.49</ele>
        <time>2015-04-26T07:51:09Z</time>
      </trkpt>
      <trkpt lat="45.64584" lon="4.675">
        <ele>463.97</ele>
        <time>2015-04-26T07:51:23Z</time>
      </trkpt>
      <trkpt lat="45.64613" lon="4.67501">
        <ele>468.3</ele>
        <time>2015-04-26T07:51:36Z</time>
      </trkpt>
      <trkpt lat="45.64617" lon="4.67502">
        <ele>469.26</ele>
        <time>2015-04-26T07:51:39Z</time>
      </trkpt>
      <trkpt lat="45.64619" lon="4.67501">
        <ele>469.74</ele>
        <time>2015-04-26T07:51:40Z</time>
      </trkpt>
      <trkpt lat="45.64621" lon="4.675">
        <ele>470.22</ele>
        <time>2015-04-26T07:51:41Z</time>
      </trkpt>
      <trkpt lat="45.64623" lon="4.67499">
        <ele>470.22</ele>
        <time>2015-04-26T07:51:42Z</time>
      </trkpt>
      <trkpt lat="45.64625" lon="4.67498">
        <ele>470.7</ele>
        <time>2015-04-26T07:51:43Z</time>
      </trkpt>
      <trkpt lat="45.64627" lon="4.67498">
        <ele>470.7</ele>
        <time>2015-04-26T07:51:44Z</time>
      </trkpt>
      <trkpt lat="45.64629" lon="4.67497">
        <ele>470.7</ele>
        <time>2015-04-26T07:51:45Z</time>
      </trkpt>
      <trkpt lat="45.6465" lon="4.67499">
        <ele>473.59</ele>
        <time>2015-04-26T07:51:57Z</time>
      </trkpt>
      <trkpt lat="45.64662" lon="4.67509">
        <ele>475.03</ele>
        <time>2015-04-26T07:52:06Z</time>
      </trkpt>
      <trkpt lat="45.64663" lon="4.6751">
        <ele>475.51</ele>
        <time>2015-04-26T07:52:07Z</time>
      </trkpt>
      <trkpt lat="45.64664" lon="4.67512">
        <ele>475.51</ele>
        <time>2015-04-26T07:52:08Z</time>
      </trkpt>
      <trkpt lat="45.64672" lon="4.67519">
        <ele>475.99</ele>
        <time>2015-04-26T07:52:14Z</time>
      </trkpt>
      <trkpt lat="45.64689" lon="4.67529">
        <ele>479.35</ele>
        <time>2015-04-26T07:52:27Z</time>
      </trkpt>
      <trkpt lat="45.6469" lon="4.6753">
        <ele>479.84</ele>
        <time>2015-04-26T07:52:28Z</time>
      </trkpt>
      <trkpt lat="45.64692" lon="4.6753">
        <ele>479.84</ele>
        <time>2015-04-26T07:52:29Z</time>
      </trkpt>
      <trkpt lat="45.64693" lon="4.67531">
        <ele>480.32</ele>
        <time>2015-04-26T07:52:30Z</time>
      </trkpt>
      <trkpt lat="45.6471" lon="4.67534">
        <ele>483.2</ele>
        <time>2015-04-26T07:52:41Z</time>
      </trkpt>
      <trkpt lat="45.64729" lon="4.67513">
        <ele>484.64</ele>
        <time>2015-04-26T07:52:54Z</time>
      </trkpt>
      <trkpt lat="45.64731" lon="4.67484">
        <ele>485.6</ele>
        <time>2015-04-26T07:53:05Z</time>
      </trkpt>
      <trkpt lat="45.6473" lon="4.6748">
        <ele>486.08</ele>
        <time>2015-04-26T07:53:07Z</time>
      </trkpt>
      <trkpt lat="45.6473" lon="4.67478">
        <ele>486.08</ele>
        <time>2015-04-26T07:53:08Z</time>
      </trkpt>
      <trkpt lat="45.6473" lon="4.67476">
        <ele>486.08</ele>
        <time>2015-04-26T07:53:09Z</time>
      </trkpt>
      <trkpt lat="45.6473" lon="4.67474">
        <ele>486.08</ele>
        <time>2015-04-26T07:53:10Z</time>
      </trkpt>
      <trkpt lat="45.64729" lon="4.67472">
        <ele>486.56</ele>
        <time>2015-04-26T07:53:11Z</time>
      </trkpt>
      <trkpt lat="45.64729" lon="4.6747">
        <ele>486.56</ele>
        <time>2015-04-26T07:53:12Z</time>
      </trkpt>
      <trkpt lat="45.64729" lon="4.67467">
        <ele>486.08</ele>
        <time>2015-04-26T07:53:13Z</time>
      </trkpt>
      <trkpt lat="45.64729" lon="4.67465">
        <ele>486.08</ele>
        <time>2015-04-26T07:53:14Z</time>
      </trkpt>
      <trkpt lat="45.64726" lon="4.67453">
        <ele>486.08</ele>
        <time>2015-04-26T07:53:20Z</time>
      </trkpt>
      <trkpt lat="45.64725" lon="4.67451">
        <ele>486.08</ele>
        <time>2015-04-26T07:53:21Z</time>
      </trkpt>
      <trkpt lat="45.64724" lon="4.6745">
        <ele>486.08</ele>
        <time>2015-04-26T07:53:22Z</time>
      </trkpt>
      <trkpt lat="45.64723" lon="4.67448">
        <ele>486.08</ele>
        <time>2015-04-26T07:53:23Z</time>
      </trkpt>
      <trkpt lat="45.64722" lon="4.67446">
        <ele>486.08</ele>
        <time>2015-04-26T07:53:24Z</time>
      </trkpt>
      <trkpt lat="45.64721" lon="4.67445">
        <ele>486.08</ele>
        <time>2015-04-26T07:53:25Z</time>
      </trkpt>
      <trkpt lat="45.64716" lon="4.67436">
        <ele>487.05</ele>
        <time>2015-04-26T07:53:31Z</time>
      </trkpt>
      <trkpt lat="45.64715" lon="4.67434">
        <ele>487.05</ele>
        <time>2015-04-26T07:53:32Z</time>
      </trkpt>
      <trkpt lat="45.64699" lon="4.67414">
        <ele>489.45</ele>
        <time>2015-04-26T07:53:46Z</time>
      </trkpt>
      <trkpt lat="45.64699" lon="4.67412">
        <ele>489.93</ele>
        <time>2015-04-26T07:53:47Z</time>
      </trkpt>
      <trkpt lat="45.64685" lon="4.67389">
        <ele>491.85</ele>
        <time>2015-04-26T07:54:02Z</time>
      </trkpt>
      <trkpt lat="45.64683" lon="4.67388">
        <ele>491.85</ele>
        <time>2015-04-26T07:54:03Z</time>
      </trkpt>
      <trkpt lat="45.64682" lon="4.67387">
        <ele>491.85</ele>
        <time>2015-04-26T07:54:04Z</time>
      </trkpt>
      <trkpt lat="45.64681" lon="4.67386">
        <ele>491.85</ele>
        <time>2015-04-26T07:54:05Z</time>
      </trkpt>
      <trkpt lat="45.6468" lon="4.67384">
        <ele>491.37</ele>
        <time>2015-04-26T07:54:06Z</time>
      </trkpt>
      <trkpt lat="45.64679" lon="4.67382">
        <ele>491.37</ele>
        <time>2015-04-26T07:54:07Z</time>
      </trkpt>
      <trkpt lat="45.64678" lon="4.6738">
        <ele>491.37</ele>
        <time>2015-04-26T07:54:08Z</time>
      </trkpt>
      <trkpt lat="45.64676" lon="4.67378">
        <ele>491.85</ele>
        <time>2015-04-26T07:54:09Z</time>
      </trkpt>
      <trkpt lat="45.64675" lon="4.67376">
        <ele>491.85</ele>
        <time>2015-04-26T07:54:10Z</time>
      </trkpt>
      <trkpt lat="45.6466" lon="4.67348">
        <ele>494.26</ele>
        <time>2015-04-26T07:54:24Z</time>
      </trkpt>
      <trkpt lat="45.64658" lon="4.6734">
        <ele>494.74</ele>
        <time>2015-04-26T07:54:27Z</time>
      </trkpt>
      <trkpt lat="45.64658" lon="4.67337">
        <ele>494.74</ele>
        <time>2015-04-26T07:54:28Z</time>
      </trkpt>
      <trkpt lat="45.64652" lon="4.67305">
        <ele>495.7</ele>
        <time>2015-04-26T07:54:37Z</time>
      </trkpt>
      <trkpt lat="45.64653" lon="4.67301">
        <ele>495.7</ele>
        <time>2015-04-26T07:54:38Z</time>
      </trkpt>
      <trkpt lat="45.64653" lon="4.67297">
        <ele>495.7</ele>
        <time>2015-04-26T07:54:39Z</time>
      </trkpt>
      <trkpt lat="45.64654" lon="4.67293">
        <ele>495.7</ele>
        <time>2015-04-26T07:54:40Z</time>
      </trkpt>
      <trkpt lat="45.64655" lon="4.6729">
        <ele>495.7</ele>
        <time>2015-04-26T07:54:41Z</time>
      </trkpt>
      <trkpt lat="45.64656" lon="4.67287">
        <ele>495.7</ele>
        <time>2015-04-26T07:54:42Z</time>
      </trkpt>
      <trkpt lat="45.64657" lon="4.67285">
        <ele>495.7</ele>
        <time>2015-04-26T07:54:43Z</time>
      </trkpt>
      <trkpt lat="45.64659" lon="4.67284">
        <ele>496.18</ele>
        <time>2015-04-26T07:54:44Z</time>
      </trkpt>
      <trkpt lat="45.64662" lon="4.6728">
        <ele>494.26</ele>
        <time>2015-04-26T07:54:54Z</time>
      </trkpt>
      <trkpt lat="45.64661" lon="4.67279">
        <ele>495.22</ele>
        <time>2015-04-26T07:55:24Z</time>
      </trkpt>
      <trkpt lat="45.6466" lon="4.67278">
        <ele>497.62</ele>
        <time>2015-04-26T07:55:58Z</time>
      </trkpt>
      <trkpt lat="45.64661" lon="4.67277">
        <ele>496.66</ele>
        <time>2015-04-26T07:56:37Z</time>
      </trkpt>
      <trkpt lat="45.64661" lon="4.67279">
        <ele>497.62</ele>
        <time>2015-04-26T07:57:09Z</time>
      </trkpt>
      <trkpt lat="45.6466" lon="4.67278">
        <ele>498.1</ele>
        <time>2015-04-26T07:57:36Z</time>
      </trkpt>
      <trkpt lat="45.64661" lon="4.67279">
        <ele>495.7</ele>
        <time>2015-04-26T07:58:10Z</time>
      </trkpt>
      <trkpt lat="45.6466" lon="4.67283">
        <ele>496.18</ele>
        <time>2015-04-26T07:58:29Z</time>
      </trkpt>
      <trkpt lat="45.64658" lon="4.67281">
        <ele>495.7</ele>
        <time>2015-04-26T07:58:41Z</time>
      </trkpt>
      <trkpt lat="45.64657" lon="4.6728">
        <ele>495.7</ele>
        <time>2015-04-26T07:58:42Z</time>
      </trkpt>
      <trkpt lat="45.64649" lon="4.67276">
        <ele>495.7</ele>
        <time>2015-04-26T07:58:47Z</time>
      </trkpt>
      <trkpt lat="45.64649" lon="4.67273">
        <ele>495.7</ele>
        <time>2015-04-26T07:58:48Z</time>
      </trkpt>
      <trkpt lat="45.64649" lon="4.6727">
        <ele>495.7</ele>
        <time>2015-04-26T07:58:49Z</time>
      </trkpt>
      <trkpt lat="45.64649" lon="4.67267">
        <ele>495.7</ele>
        <time>2015-04-26T07:58:50Z</time>
      </trkpt>
      <trkpt lat="45.64649" lon="4.67263">
        <ele>495.7</ele>
        <time>2015-04-26T07:58:51Z</time>
      </trkpt>
      <trkpt lat="45.64649" lon="4.67259">
        <ele>495.7</ele>
        <time>2015-04-26T07:58:52Z</time>
      </trkpt>
      <trkpt lat="45.64649" lon="4.67255">
        <ele>495.7</ele>
        <time>2015-04-26T07:58:53Z</time>
      </trkpt>
      <trkpt lat="45.64646" lon="4.6721">
        <ele>495.7</ele>
        <time>2015-04-26T07:59:02Z</time>
      </trkpt>
      <trkpt lat="45.64648" lon="4.67205">
        <ele>495.7</ele>
        <time>2015-04-26T07:59:03Z</time>
      </trkpt>
      <trkpt lat="45.64649" lon="4.672">
        <ele>495.7</ele>
        <time>2015-04-26T07:59:04Z</time>
      </trkpt>
      <trkpt lat="45.64651" lon="4.67195">
        <ele>495.7</ele>
        <time>2015-04-26T07:59:05Z</time>
      </trkpt>
      <trkpt lat="45.64652" lon="4.67191">
        <ele>495.7</ele>
        <time>2015-04-26T07:59:06Z</time>
      </trkpt>
      <trkpt lat="45.64653" lon="4.67186">
        <ele>495.7</ele>
        <time>2015-04-26T07:59:07Z</time>
      </trkpt>
      <trkpt lat="45.64653" lon="4.67184">
        <ele>495.22</ele>
        <time>2015-04-26T07:59:16Z</time>
      </trkpt>
      <trkpt lat="45.64653" lon="4.67184">
        <ele>494.74</ele>
        <time>2015-04-26T07:59:47Z</time>
      </trkpt>
      <trkpt lat="45.64653" lon="4.67183">
        <ele>495.22</ele>
        <time>2015-04-26T08:00:09Z</time>
      </trkpt>
      <trkpt lat="45.64654" lon="4.67183">
        <ele>495.22</ele>
        <time>2015-04-26T08:00:10Z</time>
      </trkpt>
      <trkpt lat="45.64655" lon="4.67182">
        <ele>495.22</ele>
        <time>2015-04-26T08:00:11Z</time>
      </trkpt>
      <trkpt lat="45.64656" lon="4.6718">
        <ele>495.22</ele>
        <time>2015-04-26T08:00:12Z</time>
      </trkpt>
      <trkpt lat="45.64658" lon="4.67179">
        <ele>495.22</ele>
        <time>2015-04-26T08:00:13Z</time>
      </trkpt>
      <trkpt lat="45.64659" lon="4.67176">
        <ele>495.22</ele>
        <time>2015-04-26T08:00:14Z</time>
      </trkpt>
      <trkpt lat="45.6466" lon="4.67174">
        <ele>494.74</ele>
        <time>2015-04-26T08:00:15Z</time>
      </trkpt>
      <trkpt lat="45.64662" lon="4.67171">
        <ele>495.22</ele>
        <time>2015-04-26T08:00:16Z</time>
      </trkpt>
      <trkpt lat="45.64663" lon="4.67168">
        <ele>495.22</ele>
        <time>2015-04-26T08:00:17Z</time>
      </trkpt>
      <trkpt lat="45.64665" lon="4.67165">
        <ele>495.22</ele>
        <time>2015-04-26T08:00:18Z</time>
      </trkpt>
      <trkpt lat="45.64666" lon="4.67161">
        <ele>495.22</ele>
        <time>2015-04-26T08:00:19Z</time>
      </trkpt>
      <trkpt lat="45.64668" lon="4.67158">
        <ele>495.22</ele>
        <time>2015-04-26T08:00:20Z</time>
      </trkpt>
      <trkpt lat="45.6467" lon="4.67153">
        <ele>495.22</ele>
        <time>2015-04-26T08:00:21Z</time>
      </trkpt>
      <trkpt lat="45.64672" lon="4.67149">
        <ele>494.74</ele>
        <time>2015-04-26T08:00:22Z</time>
      </trkpt>
      <trkpt lat="45.64674" lon="4.67144">
        <ele>494.74</ele>
        <time>2015-04-26T08:00:23Z</time>
      </trkpt>
      <trkpt lat="45.64675" lon="4.67139">
        <ele>494.74</ele>
        <time>2015-04-26T08:00:24Z</time>
      </trkpt>
      <trkpt lat="45.64679" lon="4.67129">
        <ele>494.74</ele>
        <time>2015-04-26T08:00:26Z</time>
      </trkpt>
      <trkpt lat="45.64683" lon="4.67118">
        <ele>494.26</ele>
        <time>2015-04-26T08:00:28Z</time>
      </trkpt>
      <trkpt lat="45.64685" lon="4.67113">
        <ele>494.26</ele>
        <time>2015-04-26T08:00:29Z</time>
      </trkpt>
      <trkpt lat="45.64689" lon="4.67095">
        <ele>493.77</ele>
        <time>2015-04-26T08:00:32Z</time>
      </trkpt>
      <trkpt lat="45.64692" lon="4.67077">
        <ele>493.29</ele>
        <time>2015-04-26T08:00:35Z</time>
      </trkpt>
      <trkpt lat="45.64694" lon="4.67071">
        <ele>492.81</ele>
        <time>2015-04-26T08:00:36Z</time>
      </trkpt>
      <trkpt lat="45.64696" lon="4.67065">
        <ele>493.29</ele>
        <time>2015-04-26T08:00:37Z</time>
      </trkpt>
      <trkpt lat="45.64698" lon="4.67059">
        <ele>493.29</ele>
        <time>2015-04-26T08:00:38Z</time>
      </trkpt>
      <trkpt lat="45.64701" lon="4.67054">
        <ele>492.81</ele>
        <time>2015-04-26T08:00:39Z</time>
      </trkpt>
      <trkpt lat="45.64705" lon="4.67052">
        <ele>492.33</ele>
        <time>2015-04-26T08:00:40Z</time>
      </trkpt>
      <trkpt lat="45.64708" lon="4.67054">
        <ele>491.85</ele>
        <time>2015-04-26T08:00:41Z</time>
      </trkpt>
      <trkpt lat="45.64711" lon="4.67058">
        <ele>491.37</ele>
        <time>2015-04-26T08:00:42Z</time>
      </trkpt>
      <trkpt lat="45.64715" lon="4.67061">
        <ele>491.37</ele>
        <time>2015-04-26T08:00:43Z</time>
      </trkpt>
      <trkpt lat="45.64719" lon="4.67066">
        <ele>491.37</ele>
        <time>2015-04-26T08:00:44Z</time>
      </trkpt>
      <trkpt lat="45.64739" lon="4.67092">
        <ele>490.41</ele>
        <time>2015-04-26T08:00:49Z</time>
      </trkpt>
      <trkpt lat="45.64743" lon="4.67097">
        <ele>490.41</ele>
        <time>2015-04-26T08:00:50Z</time>
      </trkpt>
      <trkpt lat="45.64747" lon="4.67102">
        <ele>489.93</ele>
        <time>2015-04-26T08:00:51Z</time>
      </trkpt>
      <trkpt lat="45.64752" lon="4.67107">
        <ele>489.45</ele>
        <time>2015-04-26T08:00:52Z</time>
      </trkpt>
      <trkpt lat="45.64757" lon="4.67112">
        <ele>489.45</ele>
        <time>2015-04-26T08:00:53Z</time>
      </trkpt>
      <trkpt lat="45.64762" lon="4.67117">
        <ele>488.97</ele>
        <time>2015-04-26T08:00:54Z</time>
      </trkpt>
      <trkpt lat="45.64781" lon="4.67144">
        <ele>488.01</ele>
        <time>2015-04-26T08:00:58Z</time>
      </trkpt>
      <trkpt lat="45.64785" lon="4.67152">
        <ele>488.01</ele>
        <time>2015-04-26T08:00:59Z</time>
      </trkpt>
      <trkpt lat="45.64791" lon="4.6717">
        <ele>487.05</ele>
        <time>2015-04-26T08:01:01Z</time>
      </trkpt>
      <trkpt lat="45.64793" lon="4.6718">
        <ele>487.05</ele>
        <time>2015-04-26T08:01:02Z</time>
      </trkpt>
      <trkpt lat="45.64794" lon="4.67189">
        <ele>486.56</ele>
        <time>2015-04-26T08:01:03Z</time>
      </trkpt>
      <trkpt lat="45.64797" lon="4.67198">
        <ele>486.56</ele>
        <time>2015-04-26T08:01:04Z</time>
      </trkpt>
      <trkpt lat="45.64799" lon="4.67208">
        <ele>486.08</ele>
        <time>2015-04-26T08:01:05Z</time>
      </trkpt>
      <trkpt lat="45.64801" lon="4.67218">
        <ele>485.6</ele>
        <time>2015-04-26T08:01:06Z</time>
      </trkpt>
      <trkpt lat="45.64803" lon="4.67228">
        <ele>485.12</ele>
        <time>2015-04-26T08:01:07Z</time>
      </trkpt>
      <trkpt lat="45.64805" lon="4.67238">
        <ele>484.64</ele>
        <time>2015-04-26T08:01:08Z</time>
      </trkpt>
      <trkpt lat="45.64809" lon="4.67284">
        <ele>482.72</ele>
        <time>2015-04-26T08:01:12Z</time>
      </trkpt>
      <trkpt lat="45.64811" lon="4.67294">
        <ele>482.72</ele>
        <time>2015-04-26T08:01:13Z</time>
      </trkpt>
      <trkpt lat="45.64814" lon="4.67304">
        <ele>482.24</ele>
        <time>2015-04-26T08:01:14Z</time>
      </trkpt>
      <trkpt lat="45.64833" lon="4.67365">
        <ele>478.39</ele>
        <time>2015-04-26T08:01:20Z</time>
      </trkpt>
      <trkpt lat="45.64834" lon="4.67375">
        <ele>477.43</ele>
        <time>2015-04-26T08:01:21Z</time>
      </trkpt>
      <trkpt lat="45.64837" lon="4.67393">
        <ele>476.47</ele>
        <time>2015-04-26T08:01:23Z</time>
      </trkpt>
      <trkpt lat="45.6484" lon="4.674">
        <ele>475.51</ele>
        <time>2015-04-26T08:01:24Z</time>
      </trkpt>
      <trkpt lat="45.64851" lon="4.67423">
        <ele>474.07</ele>
        <time>2015-04-26T08:01:27Z</time>
      </trkpt>
      <trkpt lat="45.64857" lon="4.67427">
        <ele>473.59</ele>
        <time>2015-04-26T08:01:28Z</time>
      </trkpt>
      <trkpt lat="45.64863" lon="4.67429">
        <ele>473.11</ele>
        <time>2015-04-26T08:01:29Z</time>
      </trkpt>
      <trkpt lat="45.64885" lon="4.67436">
        <ele>471.66</ele>
        <time>2015-04-26T08:01:32Z</time>
      </trkpt>
      <trkpt lat="45.649" lon="4.67439">
        <ele>471.18</ele>
        <time>2015-04-26T08:01:34Z</time>
      </trkpt>
      <trkpt lat="45.64908" lon="4.67441">
        <ele>471.18</ele>
        <time>2015-04-26T08:01:35Z</time>
      </trkpt>
      <trkpt lat="45.64924" lon="4.67445">
        <ele>470.22</ele>
        <time>2015-04-26T08:01:37Z</time>
      </trkpt>
      <trkpt lat="45.6493" lon="4.67449">
        <ele>470.22</ele>
        <time>2015-04-26T08:01:38Z</time>
      </trkpt>
      <trkpt lat="45.64935" lon="4.67454">
        <ele>469.74</ele>
        <time>2015-04-26T08:01:39Z</time>
      </trkpt>
      <trkpt lat="45.6494" lon="4.6746">
        <ele>469.26</ele>
        <time>2015-04-26T08:01:40Z</time>
      </trkpt>
      <trkpt lat="45.64946" lon="4.67465">
        <ele>469.26</ele>
        <time>2015-04-26T08:01:41Z</time>
      </trkpt>
      <trkpt lat="45.64974" lon="4.67493">
        <ele>467.34</ele>
        <time>2015-04-26T08:01:46Z</time>
      </trkpt>
      <trkpt lat="45.6498" lon="4.67501">
        <ele>466.38</ele>
        <time>2015-04-26T08:01:47Z</time>
      </trkpt>
      <trkpt lat="45.65042" lon="4.6758">
        <ele>456.28</ele>
        <time>2015-04-26T08:01:56Z</time>
      </trkpt>
      <trkpt lat="45.65051" lon="4.67589">
        <ele>454.84</ele>
        <time>2015-04-26T08:01:57Z</time>
      </trkpt>
      <trkpt lat="45.65141" lon="4.6765">
        <ele>443.31</ele>
        <time>2015-04-26T08:02:05Z</time>
      </trkpt>
      <trkpt lat="45.65244" lon="4.67708">
        <ele>434.17</ele>
        <time>2015-04-26T08:02:15Z</time>
      </trkpt>
      <trkpt lat="45.65262" lon="4.67715">
        <ele>433.21</ele>
        <time>2015-04-26T08:02:17Z</time>
      </trkpt>
      <trkpt lat="45.65269" lon="4.6772">
        <ele>433.21</ele>
        <time>2015-04-26T08:02:18Z</time>
      </trkpt>
      <trkpt lat="45.65276" lon="4.67727">
        <ele>432.73</ele>
        <time>2015-04-26T08:02:19Z</time>
      </trkpt>
      <trkpt lat="45.65313" lon="4.67768">
        <ele>429.85</ele>
        <time>2015-04-26T08:02:25Z</time>
      </trkpt>
      <trkpt lat="45.65318" lon="4.67776">
        <ele>428.89</ele>
        <time>2015-04-26T08:02:26Z</time>
      </trkpt>
      <trkpt lat="45.65323" lon="4.67782">
        <ele>427.92</ele>
        <time>2015-04-26T08:02:27Z</time>
      </trkpt>
      <trkpt lat="45.65328" lon="4.67788">
        <ele>427.44</ele>
        <time>2015-04-26T08:02:28Z</time>
      </trkpt>
      <trkpt lat="45.65333" lon="4.67792">
        <ele>426.96</ele>
        <time>2015-04-26T08:02:29Z</time>
      </trkpt>
      <trkpt lat="45.65338" lon="4.67793">
        <ele>426.48</ele>
        <time>2015-04-26T08:02:30Z</time>
      </trkpt>
      <trkpt lat="45.65343" lon="4.67792">
        <ele>426.48</ele>
        <time>2015-04-26T08:02:31Z</time>
      </trkpt>
      <trkpt lat="45.65346" lon="4.67788">
        <ele>426</ele>
        <time>2015-04-26T08:02:32Z</time>
      </trkpt>
      <trkpt lat="45.65349" lon="4.67784">
        <ele>426</ele>
        <time>2015-04-26T08:02:33Z</time>
      </trkpt>
      <trkpt lat="45.65367" lon="4.67759">
        <ele>425.52</ele>
        <time>2015-04-26T08:02:42Z</time>
      </trkpt>
      <trkpt lat="45.65384" lon="4.6774">
        <ele>424.56</ele>
        <time>2015-04-26T08:02:51Z</time>
      </trkpt>
      <trkpt lat="45.65395" lon="4.67731">
        <ele>424.08</ele>
        <time>2015-04-26T08:02:55Z</time>
      </trkpt>
      <trkpt lat="45.65399" lon="4.67729">
        <ele>424.08</ele>
        <time>2015-04-26T08:02:56Z</time>
      </trkpt>
      <trkpt lat="45.65425" lon="4.67716">
        <ele>425.04</ele>
        <time>2015-04-26T08:03:02Z</time>
      </trkpt>
      <trkpt lat="45.6546" lon="4.67699">
        <ele>423.12</ele>
        <time>2015-04-26T08:03:09Z</time>
      </trkpt>
      <trkpt lat="45.65464" lon="4.67695">
        <ele>422.64</ele>
        <time>2015-04-26T08:03:10Z</time>
      </trkpt>
      <trkpt lat="45.65468" lon="4.67693">
        <ele>422.16</ele>
        <time>2015-04-26T08:03:11Z</time>
      </trkpt>
      <trkpt lat="45.65488" lon="4.67684">
        <ele>419.75</ele>
        <time>2015-04-26T08:03:15Z</time>
      </trkpt>
      <trkpt lat="45.65494" lon="4.67682">
        <ele>419.27</ele>
        <time>2015-04-26T08:03:16Z</time>
      </trkpt>
      <trkpt lat="45.655" lon="4.67681">
        <ele>418.31</ele>
        <time>2015-04-26T08:03:17Z</time>
      </trkpt>
      <trkpt lat="45.65542" lon="4.67668">
        <ele>414.47</ele>
        <time>2015-04-26T08:03:24Z</time>
      </trkpt>
      <trkpt lat="45.65547" lon="4.67668">
        <ele>413.98</ele>
        <time>2015-04-26T08:03:25Z</time>
      </trkpt>
      <trkpt lat="45.65579" lon="4.67658">
        <ele>411.1</ele>
        <time>2015-04-26T08:03:30Z</time>
      </trkpt>
      <trkpt lat="45.65585" lon="4.67655">
        <ele>410.62</ele>
        <time>2015-04-26T08:03:31Z</time>
      </trkpt>
      <trkpt lat="45.65591" lon="4.67651">
        <ele>410.14</ele>
        <time>2015-04-26T08:03:32Z</time>
      </trkpt>
      <trkpt lat="45.65597" lon="4.67649">
        <ele>409.66</ele>
        <time>2015-04-26T08:03:33Z</time>
      </trkpt>
      <trkpt lat="45.65602" lon="4.67648">
        <ele>409.18</ele>
        <time>2015-04-26T08:03:34Z</time>
      </trkpt>
      <trkpt lat="45.65623" lon="4.67642">
        <ele>406.77</ele>
        <time>2015-04-26T08:03:38Z</time>
      </trkpt>
      <trkpt lat="45.65628" lon="4.67641">
        <ele>406.29</ele>
        <time>2015-04-26T08:03:39Z</time>
      </trkpt>
      <trkpt lat="45.65651" lon="4.67633">
        <ele>402.93</ele>
        <time>2015-04-26T08:03:44Z</time>
      </trkpt>
      <trkpt lat="45.65665" lon="4.67625">
        <ele>400.53</ele>
        <time>2015-04-26T08:03:47Z</time>
      </trkpt>
      <trkpt lat="45.65669" lon="4.67624">
        <ele>400.05</ele>
        <time>2015-04-26T08:03:48Z</time>
      </trkpt>
      <trkpt lat="45.65672" lon="4.67625">
        <ele>399.57</ele>
        <time>2015-04-26T08:03:49Z</time>
      </trkpt>
      <trkpt lat="45.65695" lon="4.67626">
        <ele>396.68</ele>
        <time>2015-04-26T08:03:54Z</time>
      </trkpt>
      <trkpt lat="45.657" lon="4.67625">
        <ele>396.2</ele>
        <time>2015-04-26T08:03:55Z</time>
      </trkpt>
      <trkpt lat="45.65705" lon="4.67622">
        <ele>395.72</ele>
        <time>2015-04-26T08:03:56Z</time>
      </trkpt>
      <trkpt lat="45.65708" lon="4.6762">
        <ele>395.24</ele>
        <time>2015-04-26T08:03:57Z</time>
      </trkpt>
      <trkpt lat="45.65711" lon="4.67619">
        <ele>394.76</ele>
        <time>2015-04-26T08:03:58Z</time>
      </trkpt>
      <trkpt lat="45.65714" lon="4.67619">
        <ele>394.28</ele>
        <time>2015-04-26T08:03:59Z</time>
      </trkpt>
      <trkpt lat="45.65716" lon="4.6762">
        <ele>393.8</ele>
        <time>2015-04-26T08:04:00Z</time>
      </trkpt>
      <trkpt lat="45.65725" lon="4.67621">
        <ele>391.39</ele>
        <time>2015-04-26T08:04:06Z</time>
      </trkpt>
      <trkpt lat="45.65727" lon="4.67621">
        <ele>391.87</ele>
        <time>2015-04-26T08:04:07Z</time>
      </trkpt>
      <trkpt lat="45.6573" lon="4.67621">
        <ele>391.39</ele>
        <time>2015-04-26T08:04:08Z</time>
      </trkpt>
      <trkpt lat="45.65732" lon="4.6762">
        <ele>391.39</ele>
        <time>2015-04-26T08:04:09Z</time>
      </trkpt>
      <trkpt lat="45.65734" lon="4.67619">
        <ele>391.39</ele>
        <time>2015-04-26T08:04:10Z</time>
      </trkpt>
      <trkpt lat="45.65737" lon="4.6762">
        <ele>391.39</ele>
        <time>2015-04-26T08:04:11Z</time>
      </trkpt>
      <trkpt lat="45.65739" lon="4.67621">
        <ele>391.39</ele>
        <time>2015-04-26T08:04:12Z</time>
      </trkpt>
      <trkpt lat="45.65741" lon="4.6762">
        <ele>390.91</ele>
        <time>2015-04-26T08:04:13Z</time>
      </trkpt>
      <trkpt lat="45.65743" lon="4.67618">
        <ele>390.91</ele>
        <time>2015-04-26T08:04:14Z</time>
      </trkpt>
      <trkpt lat="45.65744" lon="4.67615">
        <ele>390.91</ele>
        <time>2015-04-26T08:04:15Z</time>
      </trkpt>
      <trkpt lat="45.65746" lon="4.67614">
        <ele>390.91</ele>
        <time>2015-04-26T08:04:16Z</time>
      </trkpt>
      <trkpt lat="45.65748" lon="4.67613">
        <ele>390.91</ele>
        <time>2015-04-26T08:04:17Z</time>
      </trkpt>
      <trkpt lat="45.65749" lon="4.67614">
        <ele>390.91</ele>
        <time>2015-04-26T08:04:18Z</time>
      </trkpt>
      <trkpt lat="45.65751" lon="4.67615">
        <ele>391.39</ele>
        <time>2015-04-26T08:04:19Z</time>
      </trkpt>
      <trkpt lat="45.65761" lon="4.67634">
        <ele>390.91</ele>
        <time>2015-04-26T08:04:26Z</time>
      </trkpt>
      <trkpt lat="45.65761" lon="4.67636">
        <ele>390.91</ele>
        <time>2015-04-26T08:04:27Z</time>
      </trkpt>
      <trkpt lat="45.65762" lon="4.67649">
        <ele>389.47</ele>
        <time>2015-04-26T08:04:32Z</time>
      </trkpt>
      <trkpt lat="45.65763" lon="4.67651">
        <ele>388.99</ele>
        <time>2015-04-26T08:04:33Z</time>
      </trkpt>
      <trkpt lat="45.65764" lon="4.67652">
        <ele>388.99</ele>
        <time>2015-04-26T08:04:34Z</time>
      </trkpt>
      <trkpt lat="45.65766" lon="4.67654">
        <ele>388.51</ele>
        <time>2015-04-26T08:04:35Z</time>
      </trkpt>
      <trkpt lat="45.65767" lon="4.67656">
        <ele>388.51</ele>
        <time>2015-04-26T08:04:36Z</time>
      </trkpt>
      <trkpt lat="45.65778" lon="4.67671">
        <ele>386.59</ele>
        <time>2015-04-26T08:04:42Z</time>
      </trkpt>
      <trkpt lat="45.6578" lon="4.67673">
        <ele>386.59</ele>
        <time>2015-04-26T08:04:43Z</time>
      </trkpt>
      <trkpt lat="45.65781" lon="4.67676">
        <ele>386.59</ele>
        <time>2015-04-26T08:04:44Z</time>
      </trkpt>
      <trkpt lat="45.65783" lon="4.67679">
        <ele>386.11</ele>
        <time>2015-04-26T08:04:45Z</time>
      </trkpt>
      <trkpt lat="45.65784" lon="4.67683">
        <ele>385.15</ele>
        <time>2015-04-26T08:04:46Z</time>
      </trkpt>
      <trkpt lat="45.65795" lon="4.67714">
        <ele>383.22</ele>
        <time>2015-04-26T08:04:56Z</time>
      </trkpt>
      <trkpt lat="45.65796" lon="4.67718">
        <ele>383.22</ele>
        <time>2015-04-26T08:04:58Z</time>
      </trkpt>
      <trkpt lat="45.65797" lon="4.6772">
        <ele>382.74</ele>
        <time>2015-04-26T08:04:59Z</time>
      </trkpt>
      <trkpt lat="45.65807" lon="4.67754">
        <ele>383.22</ele>
        <time>2015-04-26T08:05:11Z</time>
      </trkpt>
      <trkpt lat="45.6582" lon="4.67792">
        <ele>388.51</ele>
        <time>2015-04-26T08:05:24Z</time>
      </trkpt>
      <trkpt lat="45.65845" lon="4.67837">
        <ele>388.51</ele>
        <time>2015-04-26T08:05:36Z</time>
      </trkpt>
      <trkpt lat="45.65868" lon="4.67881">
        <ele>391.39</ele>
        <time>2015-04-26T08:05:48Z</time>
      </trkpt>
      <trkpt lat="45.659" lon="4.67922">
        <ele>397.16</ele>
        <time>2015-04-26T08:06:02Z</time>
      </trkpt>
      <trkpt lat="45.65917" lon="4.67941">
        <ele>400.05</ele>
        <time>2015-04-26T08:06:13Z</time>
      </trkpt>
      <trkpt lat="45.65918" lon="4.67942">
        <ele>400.05</ele>
        <time>2015-04-26T08:06:14Z</time>
      </trkpt>
      <trkpt lat="45.6592" lon="4.67943">
        <ele>400.05</ele>
        <time>2015-04-26T08:06:15Z</time>
      </trkpt>
      <trkpt lat="45.65924" lon="4.67948">
        <ele>400.53</ele>
        <time>2015-04-26T08:06:19Z</time>
      </trkpt>
      <trkpt lat="45.65923" lon="4.67946">
        <ele>399.08</ele>
        <time>2015-04-26T08:06:28Z</time>
      </trkpt>
      <trkpt lat="45.65926" lon="4.6795">
        <ele>399.57</ele>
        <time>2015-04-26T08:06:41Z</time>
      </trkpt>
      <trkpt lat="45.65931" lon="4.67955">
        <ele>401.49</ele>
        <time>2015-04-26T08:06:53Z</time>
      </trkpt>
      <trkpt lat="45.65934" lon="4.67959">
        <ele>402.45</ele>
        <time>2015-04-26T08:07:01Z</time>
      </trkpt>
      <trkpt lat="45.65946" lon="4.67971">
        <ele>403.41</ele>
        <time>2015-04-26T08:07:14Z</time>
      </trkpt>
      <trkpt lat="45.65965" lon="4.67989">
        <ele>404.85</ele>
        <time>2015-04-26T08:07:29Z</time>
      </trkpt>
      <trkpt lat="45.65983" lon="4.68001">
        <ele>406.77</ele>
        <time>2015-04-26T08:07:42Z</time>
      </trkpt>
      <trkpt lat="45.65987" lon="4.68003">
        <ele>407.26</ele>
        <time>2015-04-26T08:07:54Z</time>
      </trkpt>
      <trkpt lat="45.65998" lon="4.68011">
        <ele>406.77</ele>
        <time>2015-04-26T08:08:04Z</time>
      </trkpt>
      <trkpt lat="45.66023" lon="4.6803">
        <ele>406.77</ele>
        <time>2015-04-26T08:08:17Z</time>
      </trkpt>
      <trkpt lat="45.66048" lon="4.68049">
        <ele>407.74</ele>
        <time>2015-04-26T08:08:30Z</time>
      </trkpt>
      <trkpt lat="45.66067" lon="4.68067">
        <ele>409.66</ele>
        <time>2015-04-26T08:08:44Z</time>
      </trkpt>
      <trkpt lat="45.66085" lon="4.68081">
        <ele>410.62</ele>
        <time>2015-04-26T08:08:58Z</time>
      </trkpt>
      <trkpt lat="45.66086" lon="4.68082">
        <ele>410.62</ele>
        <time>2015-04-26T08:08:59Z</time>
      </trkpt>
      <trkpt lat="45.66088" lon="4.68083">
        <ele>410.62</ele>
        <time>2015-04-26T08:09:00Z</time>
      </trkpt>
      <trkpt lat="45.66103" lon="4.68094">
        <ele>412.54</ele>
        <time>2015-04-26T08:09:12Z</time>
      </trkpt>
      <trkpt lat="45.66121" lon="4.6811">
        <ele>414.47</ele>
        <time>2015-04-26T08:09:26Z</time>
      </trkpt>
      <trkpt lat="45.66148" lon="4.6813">
        <ele>416.87</ele>
        <time>2015-04-26T08:09:42Z</time>
      </trkpt>
      <trkpt lat="45.66181" lon="4.68132">
        <ele>417.35</ele>
        <time>2015-04-26T08:09:56Z</time>
      </trkpt>
      <trkpt lat="45.66217" lon="4.68119">
        <ele>417.35</ele>
        <time>2015-04-26T08:10:11Z</time>
      </trkpt>
      <trkpt lat="45.66243" lon="4.68107">
        <ele>418.79</ele>
        <time>2015-04-26T08:10:21Z</time>
      </trkpt>
      <trkpt lat="45.66271" lon="4.68085">
        <ele>417.83</ele>
        <time>2015-04-26T08:10:29Z</time>
      </trkpt>
      <trkpt lat="45.66285" lon="4.68067">
        <ele>417.35</ele>
        <time>2015-04-26T08:10:34Z</time>
      </trkpt>
      <trkpt lat="45.66293" lon="4.68053">
        <ele>416.39</ele>
        <time>2015-04-26T08:10:37Z</time>
      </trkpt>
      <trkpt lat="45.66296" lon="4.68049">
        <ele>415.91</ele>
        <time>2015-04-26T08:10:38Z</time>
      </trkpt>
      <trkpt lat="45.66299" lon="4.68045">
        <ele>415.91</ele>
        <time>2015-04-26T08:10:39Z</time>
      </trkpt>
      <trkpt lat="45.66303" lon="4.68042">
        <ele>415.43</ele>
        <time>2015-04-26T08:10:40Z</time>
      </trkpt>
      <trkpt lat="45.66307" lon="4.6804">
        <ele>415.43</ele>
        <time>2015-04-26T08:10:41Z</time>
      </trkpt>
      <trkpt lat="45.66311" lon="4.68039">
        <ele>415.43</ele>
        <time>2015-04-26T08:10:42Z</time>
      </trkpt>
      <trkpt lat="45.66359" lon="4.6802">
        <ele>416.39</ele>
        <time>2015-04-26T08:10:55Z</time>
      </trkpt>
      <trkpt lat="45.66393" lon="4.67989">
        <ele>419.75</ele>
        <time>2015-04-26T08:11:08Z</time>
      </trkpt>
      <trkpt lat="45.66404" lon="4.67965">
        <ele>421.68</ele>
        <time>2015-04-26T08:11:17Z</time>
      </trkpt>
      <trkpt lat="45.66403" lon="4.67963">
        <ele>422.16</ele>
        <time>2015-04-26T08:11:18Z</time>
      </trkpt>
      <trkpt lat="45.66402" lon="4.67962">
        <ele>422.16</ele>
        <time>2015-04-26T08:11:19Z</time>
      </trkpt>
      <trkpt lat="45.66379" lon="4.67931">
        <ele>424.08</ele>
        <time>2015-04-26T08:11:33Z</time>
      </trkpt>
      <trkpt lat="45.6636" lon="4.67904">
        <ele>426</ele>
        <time>2015-04-26T08:11:47Z</time>
      </trkpt>
      <trkpt lat="45.6634" lon="4.67881">
        <ele>427.92</ele>
        <time>2015-04-26T08:12:00Z</time>
      </trkpt>
      <trkpt lat="45.66323" lon="4.67862">
        <ele>430.33</ele>
        <time>2015-04-26T08:12:12Z</time>
      </trkpt>
      <trkpt lat="45.66308" lon="4.67838">
        <ele>431.29</ele>
        <time>2015-04-26T08:12:25Z</time>
      </trkpt>
      <trkpt lat="45.66306" lon="4.67836">
        <ele>431.77</ele>
        <time>2015-04-26T08:12:26Z</time>
      </trkpt>
      <trkpt lat="45.66288" lon="4.67815">
        <ele>432.73</ele>
        <time>2015-04-26T08:12:40Z</time>
      </trkpt>
      <trkpt lat="45.66269" lon="4.67796">
        <ele>434.17</ele>
        <time>2015-04-26T08:12:54Z</time>
      </trkpt>
      <trkpt lat="45.66245" lon="4.67772">
        <ele>436.1</ele>
        <time>2015-04-26T08:13:10Z</time>
      </trkpt>
      <trkpt lat="45.6622" lon="4.67744">
        <ele>438.98</ele>
        <time>2015-04-26T08:13:29Z</time>
      </trkpt>
      <trkpt lat="45.66203" lon="4.67719">
        <ele>440.42</ele>
        <time>2015-04-26T08:13:44Z</time>
      </trkpt>
      <trkpt lat="45.66186" lon="4.67692">
        <ele>441.38</ele>
        <time>2015-04-26T08:13:58Z</time>
      </trkpt>
      <trkpt lat="45.6617" lon="4.67667">
        <ele>443.79</ele>
        <time>2015-04-26T08:14:14Z</time>
      </trkpt>
      <trkpt lat="45.66155" lon="4.67642">
        <ele>444.75</ele>
        <time>2015-04-26T08:14:26Z</time>
      </trkpt>
      <trkpt lat="45.66128" lon="4.67592">
        <ele>445.23</ele>
        <time>2015-04-26T08:14:43Z</time>
      </trkpt>
      <trkpt lat="45.66102" lon="4.67544">
        <ele>446.19</ele>
        <time>2015-04-26T08:14:58Z</time>
      </trkpt>
      <trkpt lat="45.66095" lon="4.6753">
        <ele>445.71</ele>
        <time>2015-04-26T08:15:01Z</time>
      </trkpt>
      <trkpt lat="45.66085" lon="4.6751">
        <ele>445.23</ele>
        <time>2015-04-26T08:15:05Z</time>
      </trkpt>
      <trkpt lat="45.66055" lon="4.67441">
        <ele>442.82</ele>
        <time>2015-04-26T08:15:17Z</time>
      </trkpt>
      <trkpt lat="45.66053" lon="4.67436">
        <ele>442.82</ele>
        <time>2015-04-26T08:15:18Z</time>
      </trkpt>
      <trkpt lat="45.66051" lon="4.6743">
        <ele>442.34</ele>
        <time>2015-04-26T08:15:19Z</time>
      </trkpt>
      <trkpt lat="45.66047" lon="4.67413">
        <ele>442.34</ele>
        <time>2015-04-26T08:15:22Z</time>
      </trkpt>
      <trkpt lat="45.66047" lon="4.67407">
        <ele>442.82</ele>
        <time>2015-04-26T08:15:23Z</time>
      </trkpt>
      <trkpt lat="45.66047" lon="4.67401">
        <ele>443.31</ele>
        <time>2015-04-26T08:15:24Z</time>
      </trkpt>
      <trkpt lat="45.66048" lon="4.67396">
        <ele>443.31</ele>
        <time>2015-04-26T08:15:25Z</time>
      </trkpt>
      <trkpt lat="45.66049" lon="4.67391">
        <ele>443.79</ele>
        <time>2015-04-26T08:15:26Z</time>
      </trkpt>
      <trkpt lat="45.6606" lon="4.67342">
        <ele>446.19</ele>
        <time>2015-04-26T08:15:37Z</time>
      </trkpt>
      <trkpt lat="45.66072" lon="4.67292">
        <ele>447.15</ele>
        <time>2015-04-26T08:15:50Z</time>
      </trkpt>
      <trkpt lat="45.66084" lon="4.67238">
        <ele>448.11</ele>
        <time>2015-04-26T08:16:04Z</time>
      </trkpt>
      <trkpt lat="45.66099" lon="4.67181">
        <ele>448.59</ele>
        <time>2015-04-26T08:16:20Z</time>
      </trkpt>
      <trkpt lat="45.66115" lon="4.67127">
        <ele>450.03</ele>
        <time>2015-04-26T08:16:35Z</time>
      </trkpt>
      <trkpt lat="45.66122" lon="4.67079">
        <ele>451</ele>
        <time>2015-04-26T08:16:50Z</time>
      </trkpt>
      <trkpt lat="45.66121" lon="4.67056">
        <ele>451</ele>
        <time>2015-04-26T08:16:56Z</time>
      </trkpt>
      <trkpt lat="45.66125" lon="4.67029">
        <ele>450.52</ele>
        <time>2015-04-26T08:17:01Z</time>
      </trkpt>
      <trkpt lat="45.66126" lon="4.67023">
        <ele>450.52</ele>
        <time>2015-04-26T08:17:02Z</time>
      </trkpt>
      <trkpt lat="45.66131" lon="4.66971">
        <ele>450.03</ele>
        <time>2015-04-26T08:17:10Z</time>
      </trkpt>
      <trkpt lat="45.66132" lon="4.66964">
        <ele>450.03</ele>
        <time>2015-04-26T08:17:11Z</time>
      </trkpt>
      <trkpt lat="45.66133" lon="4.66957">
        <ele>450.03</ele>
        <time>2015-04-26T08:17:12Z</time>
      </trkpt>
      <trkpt lat="45.66135" lon="4.66937">
        <ele>450.03</ele>
        <time>2015-04-26T08:17:15Z</time>
      </trkpt>
      <trkpt lat="45.66137" lon="4.6693">
        <ele>450.03</ele>
        <time>2015-04-26T08:17:16Z</time>
      </trkpt>
      <trkpt lat="45.66138" lon="4.66923">
        <ele>450.03</ele>
        <time>2015-04-26T08:17:17Z</time>
      </trkpt>
      <trkpt lat="45.66149" lon="4.66894">
        <ele>450.52</ele>
        <time>2015-04-26T08:17:22Z</time>
      </trkpt>
      <trkpt lat="45.66154" lon="4.66884">
        <ele>451</ele>
        <time>2015-04-26T08:17:24Z</time>
      </trkpt>
      <trkpt lat="45.66184" lon="4.66815">
        <ele>451.48</ele>
        <time>2015-04-26T08:17:39Z</time>
      </trkpt>
      <trkpt lat="45.66224" lon="4.6676">
        <ele>452.44</ele>
        <time>2015-04-26T08:17:54Z</time>
      </trkpt>
      <trkpt lat="45.66245" lon="4.66729">
        <ele>451</ele>
        <time>2015-04-26T08:18:05Z</time>
      </trkpt>
      <trkpt lat="45.66269" lon="4.66678">
        <ele>450.03</ele>
        <time>2015-04-26T08:18:18Z</time>
      </trkpt>
      <trkpt lat="45.66277" lon="4.66626">
        <ele>451.48</ele>
        <time>2015-04-26T08:18:29Z</time>
      </trkpt>
      <trkpt lat="45.66283" lon="4.6657">
        <ele>448.59</ele>
        <time>2015-04-26T08:18:43Z</time>
      </trkpt>
      <trkpt lat="45.66282" lon="4.6652">
        <ele>453.4</ele>
        <time>2015-04-26T08:18:57Z</time>
      </trkpt>
      <trkpt lat="45.66287" lon="4.66485">
        <ele>455.8</ele>
        <time>2015-04-26T08:19:10Z</time>
      </trkpt>
      <trkpt lat="45.663" lon="4.66444">
        <ele>459.65</ele>
        <time>2015-04-26T08:19:27Z</time>
      </trkpt>
      <trkpt lat="45.66305" lon="4.66431">
        <ele>460.61</ele>
        <time>2015-04-26T08:19:33Z</time>
      </trkpt>
      <trkpt lat="45.66305" lon="4.66427">
        <ele>461.09</ele>
        <time>2015-04-26T08:19:35Z</time>
      </trkpt>
      <trkpt lat="45.66304" lon="4.66426">
        <ele>461.57</ele>
        <time>2015-04-26T08:19:36Z</time>
      </trkpt>
      <trkpt lat="45.66284" lon="4.66412">
        <ele>465.42</ele>
        <time>2015-04-26T08:19:50Z</time>
      </trkpt>
      <trkpt lat="45.66271" lon="4.66405">
        <ele>466.86</ele>
        <time>2015-04-26T08:20:00Z</time>
      </trkpt>
      <trkpt lat="45.6627" lon="4.66405">
        <ele>466.86</ele>
        <time>2015-04-26T08:20:01Z</time>
      </trkpt>
      <trkpt lat="45.6626" lon="4.664">
        <ele>467.34</ele>
        <time>2015-04-26T08:20:07Z</time>
      </trkpt>
      <trkpt lat="45.66259" lon="4.66399">
        <ele>467.34</ele>
        <time>2015-04-26T08:20:08Z</time>
      </trkpt>
      <trkpt lat="45.66257" lon="4.66398">
        <ele>467.34</ele>
        <time>2015-04-26T08:20:09Z</time>
      </trkpt>
      <trkpt lat="45.66233" lon="4.66382">
        <ele>466.38</ele>
        <time>2015-04-26T08:20:22Z</time>
      </trkpt>
      <trkpt lat="45.66213" lon="4.66357">
        <ele>469.26</ele>
        <time>2015-04-26T08:20:37Z</time>
      </trkpt>
      <trkpt lat="45.66198" lon="4.66339">
        <ele>473.11</ele>
        <time>2015-04-26T08:20:51Z</time>
      </trkpt>
      <trkpt lat="45.66188" lon="4.66327">
        <ele>476.47</ele>
        <time>2015-04-26T08:21:05Z</time>
      </trkpt>
      <trkpt lat="45.66183" lon="4.66323">
        <ele>478.39</ele>
        <time>2015-04-26T08:21:11Z</time>
      </trkpt>
      <trkpt lat="45.66171" lon="4.66315">
        <ele>483.2</ele>
        <time>2015-04-26T08:21:26Z</time>
      </trkpt>
      <trkpt lat="45.66158" lon="4.66306">
        <ele>486.56</ele>
        <time>2015-04-26T08:21:40Z</time>
      </trkpt>
      <trkpt lat="45.66146" lon="4.66298">
        <ele>488.97</ele>
        <time>2015-04-26T08:21:51Z</time>
      </trkpt>
      <trkpt lat="45.66145" lon="4.66298">
        <ele>488.97</ele>
        <time>2015-04-26T08:21:52Z</time>
      </trkpt>
      <trkpt lat="45.66143" lon="4.66296">
        <ele>488.01</ele>
        <time>2015-04-26T08:21:59Z</time>
      </trkpt>
      <trkpt lat="45.66142" lon="4.66295">
        <ele>487.53</ele>
        <time>2015-04-26T08:22:00Z</time>
      </trkpt>
      <trkpt lat="45.66141" lon="4.66294">
        <ele>488.01</ele>
        <time>2015-04-26T08:22:01Z</time>
      </trkpt>
      <trkpt lat="45.66129" lon="4.66285">
        <ele>489.45</ele>
        <time>2015-04-26T08:22:14Z</time>
      </trkpt>
      <trkpt lat="45.66118" lon="4.66276">
        <ele>490.89</ele>
        <time>2015-04-26T08:22:27Z</time>
      </trkpt>
      <trkpt lat="45.66105" lon="4.66266">
        <ele>495.22</ele>
        <time>2015-04-26T08:22:43Z</time>
      </trkpt>
      <trkpt lat="45.66092" lon="4.66257">
        <ele>497.62</ele>
        <time>2015-04-26T08:22:58Z</time>
      </trkpt>
      <trkpt lat="45.66078" lon="4.66245">
        <ele>499.06</ele>
        <time>2015-04-26T08:23:12Z</time>
      </trkpt>
      <trkpt lat="45.66073" lon="4.66239">
        <ele>498.58</ele>
        <time>2015-04-26T08:23:17Z</time>
      </trkpt>
      <trkpt lat="45.66073" lon="4.66237">
        <ele>498.58</ele>
        <time>2015-04-26T08:23:18Z</time>
      </trkpt>
      <trkpt lat="45.6607" lon="4.66228">
        <ele>498.58</ele>
        <time>2015-04-26T08:23:24Z</time>
      </trkpt>
      <trkpt lat="45.6607" lon="4.66226">
        <ele>498.58</ele>
        <time>2015-04-26T08:23:25Z</time>
      </trkpt>
      <trkpt lat="45.66069" lon="4.66224">
        <ele>499.06</ele>
        <time>2015-04-26T08:23:26Z</time>
      </trkpt>
      <trkpt lat="45.66069" lon="4.66224">
        <ele>499.54</ele>
        <time>2015-04-26T08:23:40Z</time>
      </trkpt>
      <trkpt lat="45.66068" lon="4.66223">
        <ele>499.54</ele>
        <time>2015-04-26T08:24:09Z</time>
      </trkpt>
      <trkpt lat="45.66067" lon="4.66225">
        <ele>498.1</ele>
        <time>2015-04-26T08:24:18Z</time>
      </trkpt>
      <trkpt lat="45.66068" lon="4.66225">
        <ele>498.1</ele>
        <time>2015-04-26T08:24:21Z</time>
      </trkpt>
      <trkpt lat="45.66069" lon="4.66225">
        <ele>498.1</ele>
        <time>2015-04-26T08:24:22Z</time>
      </trkpt>
      <trkpt lat="45.66071" lon="4.66225">
        <ele>498.1</ele>
        <time>2015-04-26T08:24:23Z</time>
      </trkpt>
      <trkpt lat="45.66072" lon="4.66225">
        <ele>497.62</ele>
        <time>2015-04-26T08:24:24Z</time>
      </trkpt>
      <trkpt lat="45.66073" lon="4.66224">
        <ele>497.62</ele>
        <time>2015-04-26T08:24:25Z</time>
      </trkpt>
      <trkpt lat="45.66073" lon="4.66222">
        <ele>497.62</ele>
        <time>2015-04-26T08:24:26Z</time>
      </trkpt>
      <trkpt lat="45.66074" lon="4.66221">
        <ele>498.1</ele>
        <time>2015-04-26T08:24:27Z</time>
      </trkpt>
      <trkpt lat="45.66074" lon="4.6622">
        <ele>498.1</ele>
        <time>2015-04-26T08:24:28Z</time>
      </trkpt>
      <trkpt lat="45.66075" lon="4.66218">
        <ele>498.1</ele>
        <time>2015-04-26T08:24:29Z</time>
      </trkpt>
      <trkpt lat="45.66076" lon="4.66216">
        <ele>498.58</ele>
        <time>2015-04-26T08:24:30Z</time>
      </trkpt>
      <trkpt lat="45.66082" lon="4.6621">
        <ele>499.54</ele>
        <time>2015-04-26T08:24:36Z</time>
      </trkpt>
      <trkpt lat="45.66082" lon="4.66208">
        <ele>499.54</ele>
        <time>2015-04-26T08:24:37Z</time>
      </trkpt>
      <trkpt lat="45.66083" lon="4.66206">
        <ele>500.02</ele>
        <time>2015-04-26T08:24:38Z</time>
      </trkpt>
      <trkpt lat="45.66084" lon="4.66204">
        <ele>500.02</ele>
        <time>2015-04-26T08:24:39Z</time>
      </trkpt>
      <trkpt lat="45.66085" lon="4.66203">
        <ele>500.02</ele>
        <time>2015-04-26T08:24:40Z</time>
      </trkpt>
      <trkpt lat="45.66086" lon="4.66202">
        <ele>500.02</ele>
        <time>2015-04-26T08:24:41Z</time>
      </trkpt>
      <trkpt lat="45.66088" lon="4.66199">
        <ele>500.02</ele>
        <time>2015-04-26T08:24:43Z</time>
      </trkpt>
      <trkpt lat="45.66089" lon="4.66197">
        <ele>500.5</ele>
        <time>2015-04-26T08:24:44Z</time>
      </trkpt>
      <trkpt lat="45.6609" lon="4.66195">
        <ele>500.5</ele>
        <time>2015-04-26T08:24:45Z</time>
      </trkpt>
      <trkpt lat="45.66091" lon="4.66193">
        <ele>500.5</ele>
        <time>2015-04-26T08:24:46Z</time>
      </trkpt>
      <trkpt lat="45.66092" lon="4.66192">
        <ele>500.5</ele>
        <time>2015-04-26T08:24:47Z</time>
      </trkpt>
      <trkpt lat="45.66097" lon="4.66173">
        <ele>502.91</ele>
        <time>2015-04-26T08:24:56Z</time>
      </trkpt>
      <trkpt lat="45.66098" lon="4.6617">
        <ele>502.91</ele>
        <time>2015-04-26T08:24:57Z</time>
      </trkpt>
      <trkpt lat="45.66098" lon="4.66168">
        <ele>503.39</ele>
        <time>2015-04-26T08:24:58Z</time>
      </trkpt>
      <trkpt lat="45.66098" lon="4.66166">
        <ele>503.39</ele>
        <time>2015-04-26T08:24:59Z</time>
      </trkpt>
      <trkpt lat="45.66098" lon="4.66163">
        <ele>503.87</ele>
        <time>2015-04-26T08:25:00Z</time>
      </trkpt>
      <trkpt lat="45.66098" lon="4.66161">
        <ele>503.87</ele>
        <time>2015-04-26T08:25:01Z</time>
      </trkpt>
      <trkpt lat="45.66097" lon="4.66159">
        <ele>503.87</ele>
        <time>2015-04-26T08:25:02Z</time>
      </trkpt>
      <trkpt lat="45.66097" lon="4.66156">
        <ele>504.35</ele>
        <time>2015-04-26T08:25:03Z</time>
      </trkpt>
      <trkpt lat="45.66097" lon="4.66154">
        <ele>504.35</ele>
        <time>2015-04-26T08:25:04Z</time>
      </trkpt>
      <trkpt lat="45.66097" lon="4.66152">
        <ele>504.35</ele>
        <time>2015-04-26T08:25:05Z</time>
      </trkpt>
      <trkpt lat="45.66096" lon="4.6615">
        <ele>504.83</ele>
        <time>2015-04-26T08:25:06Z</time>
      </trkpt>
      <trkpt lat="45.66093" lon="4.66119">
        <ele>505.79</ele>
        <time>2015-04-26T08:25:20Z</time>
      </trkpt>
      <trkpt lat="45.66093" lon="4.66117">
        <ele>506.27</ele>
        <time>2015-04-26T08:25:21Z</time>
      </trkpt>
      <trkpt lat="45.66089" lon="4.66087">
        <ele>508.19</ele>
        <time>2015-04-26T08:25:35Z</time>
      </trkpt>
      <trkpt lat="45.66092" lon="4.66054">
        <ele>510.6</ele>
        <time>2015-04-26T08:25:49Z</time>
      </trkpt>
      <trkpt lat="45.66092" lon="4.66036">
        <ele>511.56</ele>
        <time>2015-04-26T08:25:57Z</time>
      </trkpt>
      <trkpt lat="45.66092" lon="4.66033">
        <ele>512.04</ele>
        <time>2015-04-26T08:25:58Z</time>
      </trkpt>
      <trkpt lat="45.66092" lon="4.66031">
        <ele>512.52</ele>
        <time>2015-04-26T08:25:59Z</time>
      </trkpt>
      <trkpt lat="45.66092" lon="4.66029">
        <ele>512.52</ele>
        <time>2015-04-26T08:26:00Z</time>
      </trkpt>
      <trkpt lat="45.66091" lon="4.66027">
        <ele>512.52</ele>
        <time>2015-04-26T08:26:01Z</time>
      </trkpt>
      <trkpt lat="45.66091" lon="4.66025">
        <ele>512.52</ele>
        <time>2015-04-26T08:26:02Z</time>
      </trkpt>
      <trkpt lat="45.6609" lon="4.66023">
        <ele>512.52</ele>
        <time>2015-04-26T08:26:03Z</time>
      </trkpt>
      <trkpt lat="45.6609" lon="4.66021">
        <ele>513</ele>
        <time>2015-04-26T08:26:04Z</time>
      </trkpt>
      <trkpt lat="45.6609" lon="4.66019">
        <ele>513</ele>
        <time>2015-04-26T08:26:05Z</time>
      </trkpt>
      <trkpt lat="45.6609" lon="4.66016">
        <ele>513</ele>
        <time>2015-04-26T08:26:06Z</time>
      </trkpt>
      <trkpt lat="45.6609" lon="4.66014">
        <ele>513</ele>
        <time>2015-04-26T08:26:07Z</time>
      </trkpt>
      <trkpt lat="45.6609" lon="4.66012">
        <ele>513</ele>
        <time>2015-04-26T08:26:08Z</time>
      </trkpt>
      <trkpt lat="45.6609" lon="4.6601">
        <ele>513</ele>
        <time>2015-04-26T08:26:09Z</time>
      </trkpt>
      <trkpt lat="45.6609" lon="4.66007">
        <ele>513</ele>
        <time>2015-04-26T08:26:10Z</time>
      </trkpt>
      <trkpt lat="45.6609" lon="4.66005">
        <ele>513</ele>
        <time>2015-04-26T08:26:11Z</time>
      </trkpt>
      <trkpt lat="45.6609" lon="4.66003">
        <ele>513</ele>
        <time>2015-04-26T08:26:12Z</time>
      </trkpt>
      <trkpt lat="45.6609" lon="4.66001">
        <ele>513</ele>
        <time>2015-04-26T08:26:13Z</time>
      </trkpt>
      <trkpt lat="45.66088" lon="4.65965">
        <ele>513.48</ele>
        <time>2015-04-26T08:26:27Z</time>
      </trkpt>
      <trkpt lat="45.66083" lon="4.65933">
        <ele>514.44</ele>
        <time>2015-04-26T08:26:39Z</time>
      </trkpt>
      <trkpt lat="45.66071" lon="4.65893">
        <ele>515.88</ele>
        <time>2015-04-26T08:26:55Z</time>
      </trkpt>
      <trkpt lat="45.66052" lon="4.65847">
        <ele>513.48</ele>
        <time>2015-04-26T08:27:07Z</time>
      </trkpt>
      <trkpt lat="45.66024" lon="4.65788">
        <ele>512.04</ele>
        <time>2015-04-26T08:27:20Z</time>
      </trkpt>
      <trkpt lat="45.65986" lon="4.65742">
        <ele>510.6</ele>
        <time>2015-04-26T08:27:33Z</time>
      </trkpt>
      <trkpt lat="45.65958" lon="4.65722">
        <ele>511.56</ele>
        <time>2015-04-26T08:27:44Z</time>
      </trkpt>
      <trkpt lat="45.65929" lon="4.65685">
        <ele>512.52</ele>
        <time>2015-04-26T08:27:59Z</time>
      </trkpt>
      <trkpt lat="45.65906" lon="4.6566">
        <ele>513.48</ele>
        <time>2015-04-26T08:28:12Z</time>
      </trkpt>
      <trkpt lat="45.65899" lon="4.65656">
        <ele>514.92</ele>
        <time>2015-04-26T08:28:17Z</time>
      </trkpt>
      <trkpt lat="45.65882" lon="4.65639">
        <ele>517.33</ele>
        <time>2015-04-26T08:28:30Z</time>
      </trkpt>
      <trkpt lat="45.65877" lon="4.65633">
        <ele>518.29</ele>
        <time>2015-04-26T08:28:35Z</time>
      </trkpt>
      <trkpt lat="45.65871" lon="4.65625">
        <ele>519.25</ele>
        <time>2015-04-26T08:28:41Z</time>
      </trkpt>
      <trkpt lat="45.65871" lon="4.65623">
        <ele>519.25</ele>
        <time>2015-04-26T08:28:42Z</time>
      </trkpt>
      <trkpt lat="45.6587" lon="4.65621">
        <ele>519.73</ele>
        <time>2015-04-26T08:28:43Z</time>
      </trkpt>
      <trkpt lat="45.65869" lon="4.65619">
        <ele>519.73</ele>
        <time>2015-04-26T08:28:44Z</time>
      </trkpt>
      <trkpt lat="45.65868" lon="4.65618">
        <ele>519.73</ele>
        <time>2015-04-26T08:28:45Z</time>
      </trkpt>
      <trkpt lat="45.65865" lon="4.65609">
        <ele>520.69</ele>
        <time>2015-04-26T08:28:51Z</time>
      </trkpt>
      <trkpt lat="45.65863" lon="4.65606">
        <ele>521.17</ele>
        <time>2015-04-26T08:28:54Z</time>
      </trkpt>
      <trkpt lat="45.6586" lon="4.65596">
        <ele>522.61</ele>
        <time>2015-04-26T08:29:06Z</time>
      </trkpt>
      <trkpt lat="45.6586" lon="4.65574">
        <ele>523.09</ele>
        <time>2015-04-26T08:29:19Z</time>
      </trkpt>
      <trkpt lat="45.65859" lon="4.65566">
        <ele>524.06</ele>
        <time>2015-04-26T08:29:24Z</time>
      </trkpt>
      <trkpt lat="45.65858" lon="4.65565">
        <ele>524.06</ele>
        <time>2015-04-26T08:29:31Z</time>
      </trkpt>
      <trkpt lat="45.65858" lon="4.65562">
        <ele>524.06</ele>
        <time>2015-04-26T08:29:33Z</time>
      </trkpt>
      <trkpt lat="45.65858" lon="4.65561">
        <ele>524.54</ele>
        <time>2015-04-26T08:29:34Z</time>
      </trkpt>
      <trkpt lat="45.65857" lon="4.65559">
        <ele>524.54</ele>
        <time>2015-04-26T08:29:35Z</time>
      </trkpt>
      <trkpt lat="45.65857" lon="4.65557">
        <ele>524.54</ele>
        <time>2015-04-26T08:29:36Z</time>
      </trkpt>
      <trkpt lat="45.65856" lon="4.65555">
        <ele>524.54</ele>
        <time>2015-04-26T08:29:37Z</time>
      </trkpt>
      <trkpt lat="45.65855" lon="4.65552">
        <ele>524.54</ele>
        <time>2015-04-26T08:29:38Z</time>
      </trkpt>
      <trkpt lat="45.65855" lon="4.6555">
        <ele>524.54</ele>
        <time>2015-04-26T08:29:39Z</time>
      </trkpt>
      <trkpt lat="45.65854" lon="4.65548">
        <ele>524.54</ele>
        <time>2015-04-26T08:29:40Z</time>
      </trkpt>
      <trkpt lat="45.65853" lon="4.65546">
        <ele>525.02</ele>
        <time>2015-04-26T08:29:41Z</time>
      </trkpt>
      <trkpt lat="45.65853" lon="4.65544">
        <ele>525.02</ele>
        <time>2015-04-26T08:29:42Z</time>
      </trkpt>
      <trkpt lat="45.65852" lon="4.65542">
        <ele>525.02</ele>
        <time>2015-04-26T08:29:43Z</time>
      </trkpt>
      <trkpt lat="45.65851" lon="4.6554">
        <ele>525.02</ele>
        <time>2015-04-26T08:29:44Z</time>
      </trkpt>
      <trkpt lat="45.65851" lon="4.65538">
        <ele>525.02</ele>
        <time>2015-04-26T08:29:45Z</time>
      </trkpt>
      <trkpt lat="45.6585" lon="4.65536">
        <ele>525.5</ele>
        <time>2015-04-26T08:29:46Z</time>
      </trkpt>
      <trkpt lat="45.65838" lon="4.65512">
        <ele>527.9</ele>
        <time>2015-04-26T08:30:00Z</time>
      </trkpt>
      <trkpt lat="45.65818" lon="4.65491">
        <ele>529.82</ele>
        <time>2015-04-26T08:30:17Z</time>
      </trkpt>
      <trkpt lat="45.65801" lon="4.65469">
        <ele>532.23</ele>
        <time>2015-04-26T08:30:33Z</time>
      </trkpt>
      <trkpt lat="45.65796" lon="4.65463">
        <ele>532.71</ele>
        <time>2015-04-26T08:30:38Z</time>
      </trkpt>
      <trkpt lat="45.65795" lon="4.65462">
        <ele>532.71</ele>
        <time>2015-04-26T08:30:39Z</time>
      </trkpt>
      <trkpt lat="45.65794" lon="4.6546">
        <ele>533.19</ele>
        <time>2015-04-26T08:30:40Z</time>
      </trkpt>
      <trkpt lat="45.65779" lon="4.65437">
        <ele>534.15</ele>
        <time>2015-04-26T08:30:54Z</time>
      </trkpt>
      <trkpt lat="45.65777" lon="4.65435">
        <ele>534.15</ele>
        <time>2015-04-26T08:30:55Z</time>
      </trkpt>
      <trkpt lat="45.65775" lon="4.65433">
        <ele>534.15</ele>
        <time>2015-04-26T08:30:56Z</time>
      </trkpt>
      <trkpt lat="45.65739" lon="4.6538">
        <ele>532.23</ele>
        <time>2015-04-26T08:31:09Z</time>
      </trkpt>
      <trkpt lat="45.65731" lon="4.65371">
        <ele>531.27</ele>
        <time>2015-04-26T08:31:11Z</time>
      </trkpt>
      <trkpt lat="45.65727" lon="4.65366">
        <ele>530.79</ele>
        <time>2015-04-26T08:31:12Z</time>
      </trkpt>
      <trkpt lat="45.65714" lon="4.65351">
        <ele>530.3</ele>
        <time>2015-04-26T08:31:15Z</time>
      </trkpt>
      <trkpt lat="45.65706" lon="4.65344">
        <ele>529.82</ele>
        <time>2015-04-26T08:31:17Z</time>
      </trkpt>
      <trkpt lat="45.65702" lon="4.6534">
        <ele>529.82</ele>
        <time>2015-04-26T08:31:18Z</time>
      </trkpt>
      <trkpt lat="45.65698" lon="4.65337">
        <ele>529.82</ele>
        <time>2015-04-26T08:31:19Z</time>
      </trkpt>
      <trkpt lat="45.65695" lon="4.65333">
        <ele>529.82</ele>
        <time>2015-04-26T08:31:20Z</time>
      </trkpt>
      <trkpt lat="45.65692" lon="4.65329">
        <ele>529.82</ele>
        <time>2015-04-26T08:31:21Z</time>
      </trkpt>
      <trkpt lat="45.65689" lon="4.65326">
        <ele>529.82</ele>
        <time>2015-04-26T08:31:22Z</time>
      </trkpt>
      <trkpt lat="45.65686" lon="4.65322">
        <ele>529.82</ele>
        <time>2015-04-26T08:31:23Z</time>
      </trkpt>
      <trkpt lat="45.65683" lon="4.65319">
        <ele>529.34</ele>
        <time>2015-04-26T08:31:24Z</time>
      </trkpt>
      <trkpt lat="45.6568" lon="4.65317">
        <ele>529.34</ele>
        <time>2015-04-26T08:31:25Z</time>
      </trkpt>
      <trkpt lat="45.65677" lon="4.65314">
        <ele>529.34</ele>
        <time>2015-04-26T08:31:26Z</time>
      </trkpt>
      <trkpt lat="45.65674" lon="4.65311">
        <ele>529.34</ele>
        <time>2015-04-26T08:31:27Z</time>
      </trkpt>
      <trkpt lat="45.65648" lon="4.65292">
        <ele>529.82</ele>
        <time>2015-04-26T08:31:36Z</time>
      </trkpt>
      <trkpt lat="45.65646" lon="4.6529">
        <ele>529.82</ele>
        <time>2015-04-26T08:31:37Z</time>
      </trkpt>
      <trkpt lat="45.65643" lon="4.65289">
        <ele>530.3</ele>
        <time>2015-04-26T08:31:38Z</time>
      </trkpt>
      <trkpt lat="45.65613" lon="4.65265">
        <ele>532.23</ele>
        <time>2015-04-26T08:31:52Z</time>
      </trkpt>
      <trkpt lat="45.65585" lon="4.65243">
        <ele>534.63</ele>
        <time>2015-04-26T08:32:07Z</time>
      </trkpt>
      <trkpt lat="45.65563" lon="4.65221">
        <ele>537.03</ele>
        <time>2015-04-26T08:32:22Z</time>
      </trkpt>
      <trkpt lat="45.65545" lon="4.65202">
        <ele>538.96</ele>
        <time>2015-04-26T08:32:35Z</time>
      </trkpt>
      <trkpt lat="45.65532" lon="4.65189">
        <ele>539.44</ele>
        <time>2015-04-26T08:32:45Z</time>
      </trkpt>
      <trkpt lat="45.65509" lon="4.65163">
        <ele>542.32</ele>
        <time>2015-04-26T08:33:01Z</time>
      </trkpt>
      <trkpt lat="45.65508" lon="4.65163">
        <ele>542.32</ele>
        <time>2015-04-26T08:33:02Z</time>
      </trkpt>
      <trkpt lat="45.65506" lon="4.65163">
        <ele>542.32</ele>
        <time>2015-04-26T08:33:03Z</time>
      </trkpt>
      <trkpt lat="45.65505" lon="4.65162">
        <ele>542.8</ele>
        <time>2015-04-26T08:33:04Z</time>
      </trkpt>
      <trkpt lat="45.65503" lon="4.65161">
        <ele>542.8</ele>
        <time>2015-04-26T08:33:05Z</time>
      </trkpt>
      <trkpt lat="45.65502" lon="4.65159">
        <ele>542.8</ele>
        <time>2015-04-26T08:33:06Z</time>
      </trkpt>
      <trkpt lat="45.65502" lon="4.65157">
        <ele>542.8</ele>
        <time>2015-04-26T08:33:07Z</time>
      </trkpt>
      <trkpt lat="45.65501" lon="4.65154">
        <ele>543.28</ele>
        <time>2015-04-26T08:33:08Z</time>
      </trkpt>
      <trkpt lat="45.655" lon="4.65152">
        <ele>543.28</ele>
        <time>2015-04-26T08:33:09Z</time>
      </trkpt>
      <trkpt lat="45.65499" lon="4.65151">
        <ele>543.28</ele>
        <time>2015-04-26T08:33:10Z</time>
      </trkpt>
      <trkpt lat="45.6549" lon="4.65139">
        <ele>543.76</ele>
        <time>2015-04-26T08:33:18Z</time>
      </trkpt>
      <trkpt lat="45.65488" lon="4.65138">
        <ele>543.76</ele>
        <time>2015-04-26T08:33:19Z</time>
      </trkpt>
      <trkpt lat="45.65487" lon="4.65136">
        <ele>543.76</ele>
        <time>2015-04-26T08:33:20Z</time>
      </trkpt>
      <trkpt lat="45.65486" lon="4.65135">
        <ele>543.76</ele>
        <time>2015-04-26T08:33:21Z</time>
      </trkpt>
      <trkpt lat="45.65484" lon="4.65134">
        <ele>543.76</ele>
        <time>2015-04-26T08:33:22Z</time>
      </trkpt>
      <trkpt lat="45.65483" lon="4.65132">
        <ele>544.24</ele>
        <time>2015-04-26T08:33:23Z</time>
      </trkpt>
      <trkpt lat="45.65482" lon="4.65131">
        <ele>544.24</ele>
        <time>2015-04-26T08:33:24Z</time>
      </trkpt>
      <trkpt lat="45.6548" lon="4.6513">
        <ele>544.24</ele>
        <time>2015-04-26T08:33:25Z</time>
      </trkpt>
      <trkpt lat="45.65479" lon="4.65129">
        <ele>544.24</ele>
        <time>2015-04-26T08:33:26Z</time>
      </trkpt>
      <trkpt lat="45.65464" lon="4.65107">
        <ele>545.2</ele>
        <time>2015-04-26T08:33:40Z</time>
      </trkpt>
      <trkpt lat="45.65449" lon="4.65087">
        <ele>546.65</ele>
        <time>2015-04-26T08:33:54Z</time>
      </trkpt>
      <trkpt lat="45.65443" lon="4.6508">
        <ele>547.13</ele>
        <time>2015-04-26T08:33:59Z</time>
      </trkpt>
      <trkpt lat="45.65442" lon="4.65078">
        <ele>547.61</ele>
        <time>2015-04-26T08:34:00Z</time>
      </trkpt>
      <trkpt lat="45.65422" lon="4.65048">
        <ele>550.01</ele>
        <time>2015-04-26T08:34:19Z</time>
      </trkpt>
      <trkpt lat="45.65408" lon="4.65026">
        <ele>551.45</ele>
        <time>2015-04-26T08:34:31Z</time>
      </trkpt>
      <trkpt lat="45.6539" lon="4.65003">
        <ele>552.41</ele>
        <time>2015-04-26T08:34:44Z</time>
      </trkpt>
      <trkpt lat="45.65389" lon="4.65002">
        <ele>552.41</ele>
        <time>2015-04-26T08:34:45Z</time>
      </trkpt>
      <trkpt lat="45.65388" lon="4.65">
        <ele>552.9</ele>
        <time>2015-04-26T08:34:46Z</time>
      </trkpt>
      <trkpt lat="45.65387" lon="4.64998">
        <ele>552.9</ele>
        <time>2015-04-26T08:34:47Z</time>
      </trkpt>
      <trkpt lat="45.65385" lon="4.64996">
        <ele>553.38</ele>
        <time>2015-04-26T08:34:48Z</time>
      </trkpt>
      <trkpt lat="45.65359" lon="4.64967">
        <ele>554.34</ele>
        <time>2015-04-26T08:35:04Z</time>
      </trkpt>
      <trkpt lat="45.65334" lon="4.6494">
        <ele>554.82</ele>
        <time>2015-04-26T08:35:13Z</time>
      </trkpt>
      <trkpt lat="45.65327" lon="4.64934">
        <ele>554.82</ele>
        <time>2015-04-26T08:35:15Z</time>
      </trkpt>
      <trkpt lat="45.65274" lon="4.64873">
        <ele>552.41</ele>
        <time>2015-04-26T08:35:30Z</time>
      </trkpt>
      <trkpt lat="45.65219" lon="4.64811">
        <ele>550.97</ele>
        <time>2015-04-26T08:35:43Z</time>
      </trkpt>
      <trkpt lat="45.65215" lon="4.64807">
        <ele>550.97</ele>
        <time>2015-04-26T08:35:44Z</time>
      </trkpt>
      <trkpt lat="45.65207" lon="4.64799">
        <ele>550.49</ele>
        <time>2015-04-26T08:35:46Z</time>
      </trkpt>
      <trkpt lat="45.65192" lon="4.64779">
        <ele>550.49</ele>
        <time>2015-04-26T08:35:50Z</time>
      </trkpt>
      <trkpt lat="45.65181" lon="4.64759">
        <ele>550.49</ele>
        <time>2015-04-26T08:35:54Z</time>
      </trkpt>
      <trkpt lat="45.65179" lon="4.64754">
        <ele>550.49</ele>
        <time>2015-04-26T08:35:55Z</time>
      </trkpt>
      <trkpt lat="45.65178" lon="4.64748">
        <ele>550.49</ele>
        <time>2015-04-26T08:35:56Z</time>
      </trkpt>
      <trkpt lat="45.6515" lon="4.64653">
        <ele>549.05</ele>
        <time>2015-04-26T08:36:11Z</time>
      </trkpt>
      <trkpt lat="45.65108" lon="4.64561">
        <ele>549.53</ele>
        <time>2015-04-26T08:36:27Z</time>
      </trkpt>
      <trkpt lat="45.65084" lon="4.64511">
        <ele>549.05</ele>
        <time>2015-04-26T08:36:40Z</time>
      </trkpt>
      <trkpt lat="45.65084" lon="4.64512">
        <ele>549.53</ele>
        <time>2015-04-26T08:36:56Z</time>
      </trkpt>
      <trkpt lat="45.65082" lon="4.64511">
        <ele>549.05</ele>
        <time>2015-04-26T08:36:58Z</time>
      </trkpt>
      <trkpt lat="45.65081" lon="4.64509">
        <ele>549.05</ele>
        <time>2015-04-26T08:36:59Z</time>
      </trkpt>
      <trkpt lat="45.65079" lon="4.64507">
        <ele>549.05</ele>
        <time>2015-04-26T08:37:00Z</time>
      </trkpt>
      <trkpt lat="45.65078" lon="4.64504">
        <ele>549.05</ele>
        <time>2015-04-26T08:37:01Z</time>
      </trkpt>
      <trkpt lat="45.65076" lon="4.645">
        <ele>549.05</ele>
        <time>2015-04-26T08:37:02Z</time>
      </trkpt>
      <trkpt lat="45.65075" lon="4.64496">
        <ele>549.05</ele>
        <time>2015-04-26T08:37:03Z</time>
      </trkpt>
      <trkpt lat="45.65051" lon="4.64442">
        <ele>548.57</ele>
        <time>2015-04-26T08:37:16Z</time>
      </trkpt>
      <trkpt lat="45.65023" lon="4.64396">
        <ele>549.53</ele>
        <time>2015-04-26T08:37:29Z</time>
      </trkpt>
      <trkpt lat="45.64999" lon="4.64359">
        <ele>551.93</ele>
        <time>2015-04-26T08:37:42Z</time>
      </trkpt>
      <trkpt lat="45.64976" lon="4.64309">
        <ele>555.78</ele>
        <time>2015-04-26T08:38:01Z</time>
      </trkpt>
      <trkpt lat="45.6496" lon="4.64274">
        <ele>558.18</ele>
        <time>2015-04-26T08:38:16Z</time>
      </trkpt>
      <trkpt lat="45.64942" lon="4.64241">
        <ele>560.11</ele>
        <time>2015-04-26T08:38:31Z</time>
      </trkpt>
      <trkpt lat="45.6493" lon="4.64195">
        <ele>560.59</ele>
        <time>2015-04-26T08:38:46Z</time>
      </trkpt>
      <trkpt lat="45.64918" lon="4.64138">
        <ele>561.55</ele>
        <time>2015-04-26T08:39:01Z</time>
      </trkpt>
      <trkpt lat="45.64888" lon="4.64086">
        <ele>563.47</ele>
        <time>2015-04-26T08:39:17Z</time>
      </trkpt>
      <trkpt lat="45.64864" lon="4.64042">
        <ele>564.91</ele>
        <time>2015-04-26T08:39:31Z</time>
      </trkpt>
      <trkpt lat="45.64842" lon="4.63997">
        <ele>567.32</ele>
        <time>2015-04-26T08:39:48Z</time>
      </trkpt>
      <trkpt lat="45.64841" lon="4.63995">
        <ele>567.8</ele>
        <time>2015-04-26T08:39:49Z</time>
      </trkpt>
      <trkpt lat="45.64818" lon="4.63958">
        <ele>570.68</ele>
        <time>2015-04-26T08:40:07Z</time>
      </trkpt>
      <trkpt lat="45.64812" lon="4.63951">
        <ele>571.16</ele>
        <time>2015-04-26T08:40:11Z</time>
      </trkpt>
      <trkpt lat="45.6481" lon="4.63946">
        <ele>571.64</ele>
        <time>2015-04-26T08:40:13Z</time>
      </trkpt>
      <trkpt lat="45.64808" lon="4.63944">
        <ele>572.12</ele>
        <time>2015-04-26T08:40:14Z</time>
      </trkpt>
      <trkpt lat="45.64806" lon="4.63943">
        <ele>572.12</ele>
        <time>2015-04-26T08:40:15Z</time>
      </trkpt>
      <trkpt lat="45.64805" lon="4.63941">
        <ele>572.12</ele>
        <time>2015-04-26T08:40:16Z</time>
      </trkpt>
      <trkpt lat="45.64803" lon="4.63939">
        <ele>572.6</ele>
        <time>2015-04-26T08:40:17Z</time>
      </trkpt>
      <trkpt lat="45.64782" lon="4.63914">
        <ele>575.01</ele>
        <time>2015-04-26T08:40:32Z</time>
      </trkpt>
      <trkpt lat="45.64773" lon="4.63901">
        <ele>576.93</ele>
        <time>2015-04-26T08:40:39Z</time>
      </trkpt>
      <trkpt lat="45.64772" lon="4.63899">
        <ele>576.93</ele>
        <time>2015-04-26T08:40:40Z</time>
      </trkpt>
      <trkpt lat="45.64767" lon="4.63888">
        <ele>577.41</ele>
        <time>2015-04-26T08:40:46Z</time>
      </trkpt>
      <trkpt lat="45.64766" lon="4.63886">
        <ele>577.41</ele>
        <time>2015-04-26T08:40:47Z</time>
      </trkpt>
      <trkpt lat="45.64765" lon="4.63885">
        <ele>577.89</ele>
        <time>2015-04-26T08:40:48Z</time>
      </trkpt>
      <trkpt lat="45.64764" lon="4.63883">
        <ele>577.89</ele>
        <time>2015-04-26T08:40:49Z</time>
      </trkpt>
      <trkpt lat="45.64763" lon="4.63881">
        <ele>578.37</ele>
        <time>2015-04-26T08:40:50Z</time>
      </trkpt>
      <trkpt lat="45.64762" lon="4.63879">
        <ele>578.37</ele>
        <time>2015-04-26T08:40:51Z</time>
      </trkpt>
      <trkpt lat="45.64761" lon="4.63877">
        <ele>578.37</ele>
        <time>2015-04-26T08:40:52Z</time>
      </trkpt>
      <trkpt lat="45.64748" lon="4.63849">
        <ele>580.77</ele>
        <time>2015-04-26T08:41:08Z</time>
      </trkpt>
      <trkpt lat="45.64732" lon="4.63824">
        <ele>583.66</ele>
        <time>2015-04-26T08:41:24Z</time>
      </trkpt>
      <trkpt lat="45.64718" lon="4.63807">
        <ele>586.06</ele>
        <time>2015-04-26T08:41:37Z</time>
      </trkpt>
      <trkpt lat="45.64715" lon="4.63805">
        <ele>586.54</ele>
        <time>2015-04-26T08:41:40Z</time>
      </trkpt>
      <trkpt lat="45.64714" lon="4.63804">
        <ele>587.02</ele>
        <time>2015-04-26T08:41:41Z</time>
      </trkpt>
      <trkpt lat="45.64694" lon="4.6379">
        <ele>591.83</ele>
        <time>2015-04-26T08:41:54Z</time>
      </trkpt>
      <trkpt lat="45.6469" lon="4.63787">
        <ele>592.79</ele>
        <time>2015-04-26T08:41:57Z</time>
      </trkpt>
      <trkpt lat="45.64688" lon="4.63787">
        <ele>592.79</ele>
        <time>2015-04-26T08:41:58Z</time>
      </trkpt>
      <trkpt lat="45.64687" lon="4.63787">
        <ele>592.79</ele>
        <time>2015-04-26T08:41:59Z</time>
      </trkpt>
      <trkpt lat="45.64685" lon="4.63785">
        <ele>592.79</ele>
        <time>2015-04-26T08:42:00Z</time>
      </trkpt>
      <trkpt lat="45.64683" lon="4.63784">
        <ele>593.27</ele>
        <time>2015-04-26T08:42:01Z</time>
      </trkpt>
      <trkpt lat="45.64681" lon="4.63782">
        <ele>593.27</ele>
        <time>2015-04-26T08:42:02Z</time>
      </trkpt>
      <trkpt lat="45.64658" lon="4.63772">
        <ele>593.75</ele>
        <time>2015-04-26T08:42:16Z</time>
      </trkpt>
      <trkpt lat="45.64639" lon="4.63755">
        <ele>594.71</ele>
        <time>2015-04-26T08:42:30Z</time>
      </trkpt>
      <trkpt lat="45.64623" lon="4.63733">
        <ele>595.67</ele>
        <time>2015-04-26T08:42:44Z</time>
      </trkpt>
      <trkpt lat="45.64622" lon="4.63731">
        <ele>595.67</ele>
        <time>2015-04-26T08:42:45Z</time>
      </trkpt>
      <trkpt lat="45.64621" lon="4.63729">
        <ele>595.67</ele>
        <time>2015-04-26T08:42:46Z</time>
      </trkpt>
      <trkpt lat="45.64621" lon="4.63728">
        <ele>596.15</ele>
        <time>2015-04-26T08:42:47Z</time>
      </trkpt>
      <trkpt lat="45.6462" lon="4.63727">
        <ele>596.15</ele>
        <time>2015-04-26T08:42:48Z</time>
      </trkpt>
      <trkpt lat="45.64619" lon="4.63725">
        <ele>596.64</ele>
        <time>2015-04-26T08:42:49Z</time>
      </trkpt>
      <trkpt lat="45.64606" lon="4.63699">
        <ele>599.04</ele>
        <time>2015-04-26T08:43:04Z</time>
      </trkpt>
      <trkpt lat="45.64605" lon="4.63698">
        <ele>599.04</ele>
        <time>2015-04-26T08:43:05Z</time>
      </trkpt>
      <trkpt lat="45.64596" lon="4.63668">
        <ele>600.96</ele>
        <time>2015-04-26T08:43:20Z</time>
      </trkpt>
      <trkpt lat="45.64595" lon="4.63666">
        <ele>600.96</ele>
        <time>2015-04-26T08:43:21Z</time>
      </trkpt>
      <trkpt lat="45.64595" lon="4.63664">
        <ele>600.96</ele>
        <time>2015-04-26T08:43:22Z</time>
      </trkpt>
      <trkpt lat="45.64595" lon="4.63661">
        <ele>601.44</ele>
        <time>2015-04-26T08:43:24Z</time>
      </trkpt>
      <trkpt lat="45.64595" lon="4.63659">
        <ele>601.44</ele>
        <time>2015-04-26T08:43:25Z</time>
      </trkpt>
      <trkpt lat="45.64595" lon="4.63657">
        <ele>601.92</ele>
        <time>2015-04-26T08:43:26Z</time>
      </trkpt>
      <trkpt lat="45.64595" lon="4.63655">
        <ele>602.4</ele>
        <time>2015-04-26T08:43:27Z</time>
      </trkpt>
      <trkpt lat="45.64594" lon="4.63653">
        <ele>602.4</ele>
        <time>2015-04-26T08:43:28Z</time>
      </trkpt>
      <trkpt lat="45.64594" lon="4.63651">
        <ele>602.88</ele>
        <time>2015-04-26T08:43:29Z</time>
      </trkpt>
      <trkpt lat="45.64594" lon="4.63649">
        <ele>602.88</ele>
        <time>2015-04-26T08:43:30Z</time>
      </trkpt>
      <trkpt lat="45.64594" lon="4.63647">
        <ele>603.36</ele>
        <time>2015-04-26T08:43:31Z</time>
      </trkpt>
      <trkpt lat="45.64589" lon="4.63616">
        <ele>606.73</ele>
        <time>2015-04-26T08:43:46Z</time>
      </trkpt>
      <trkpt lat="45.64586" lon="4.63589">
        <ele>609.13</ele>
        <time>2015-04-26T08:43:59Z</time>
      </trkpt>
      <trkpt lat="45.64586" lon="4.63587">
        <ele>609.13</ele>
        <time>2015-04-26T08:44:00Z</time>
      </trkpt>
      <trkpt lat="45.64586" lon="4.63585">
        <ele>609.13</ele>
        <time>2015-04-26T08:44:01Z</time>
      </trkpt>
      <trkpt lat="45.64586" lon="4.63583">
        <ele>609.13</ele>
        <time>2015-04-26T08:44:02Z</time>
      </trkpt>
      <trkpt lat="45.64586" lon="4.63581">
        <ele>609.61</ele>
        <time>2015-04-26T08:44:03Z</time>
      </trkpt>
      <trkpt lat="45.64586" lon="4.63579">
        <ele>609.61</ele>
        <time>2015-04-26T08:44:04Z</time>
      </trkpt>
      <trkpt lat="45.64587" lon="4.63576">
        <ele>609.61</ele>
        <time>2015-04-26T08:44:05Z</time>
      </trkpt>
      <trkpt lat="45.64587" lon="4.63574">
        <ele>609.61</ele>
        <time>2015-04-26T08:44:06Z</time>
      </trkpt>
      <trkpt lat="45.64587" lon="4.63572">
        <ele>609.61</ele>
        <time>2015-04-26T08:44:07Z</time>
      </trkpt>
      <trkpt lat="45.64586" lon="4.6357">
        <ele>609.61</ele>
        <time>2015-04-26T08:44:08Z</time>
      </trkpt>
      <trkpt lat="45.64585" lon="4.63564">
        <ele>609.61</ele>
        <time>2015-04-26T08:44:11Z</time>
      </trkpt>
      <trkpt lat="45.64584" lon="4.63529">
        <ele>611.06</ele>
        <time>2015-04-26T08:44:27Z</time>
      </trkpt>
      <trkpt lat="45.64584" lon="4.63516">
        <ele>610.57</ele>
        <time>2015-04-26T08:44:33Z</time>
      </trkpt>
      <trkpt lat="45.64585" lon="4.63514">
        <ele>610.09</ele>
        <time>2015-04-26T08:44:34Z</time>
      </trkpt>
      <trkpt lat="45.64584" lon="4.63512">
        <ele>610.09</ele>
        <time>2015-04-26T08:44:35Z</time>
      </trkpt>
      <trkpt lat="45.64584" lon="4.63509">
        <ele>609.61</ele>
        <time>2015-04-26T08:44:36Z</time>
      </trkpt>
      <trkpt lat="45.64584" lon="4.63507">
        <ele>609.13</ele>
        <time>2015-04-26T08:44:37Z</time>
      </trkpt>
      <trkpt lat="45.64584" lon="4.63504">
        <ele>609.13</ele>
        <time>2015-04-26T08:44:38Z</time>
      </trkpt>
      <trkpt lat="45.64581" lon="4.63461">
        <ele>608.17</ele>
        <time>2015-04-26T08:44:54Z</time>
      </trkpt>
      <trkpt lat="45.6458" lon="4.63413">
        <ele>608.65</ele>
        <time>2015-04-26T08:45:08Z</time>
      </trkpt>
      <trkpt lat="45.64567" lon="4.63347">
        <ele>610.09</ele>
        <time>2015-04-26T08:45:25Z</time>
      </trkpt>
      <trkpt lat="45.64547" lon="4.63301">
        <ele>613.46</ele>
        <time>2015-04-26T08:45:40Z</time>
      </trkpt>
      <trkpt lat="45.6452" lon="4.63267">
        <ele>612.98</ele>
        <time>2015-04-26T08:45:54Z</time>
      </trkpt>
      <trkpt lat="45.64495" lon="4.63251">
        <ele>613.46</ele>
        <time>2015-04-26T08:46:06Z</time>
      </trkpt>
      <trkpt lat="45.64475" lon="4.63244">
        <ele>614.42</ele>
        <time>2015-04-26T08:46:17Z</time>
      </trkpt>
      <trkpt lat="45.64473" lon="4.63242">
        <ele>614.42</ele>
        <time>2015-04-26T08:46:18Z</time>
      </trkpt>
      <trkpt lat="45.64471" lon="4.63242">
        <ele>614.9</ele>
        <time>2015-04-26T08:46:19Z</time>
      </trkpt>
      <trkpt lat="45.64469" lon="4.63241">
        <ele>614.9</ele>
        <time>2015-04-26T08:46:20Z</time>
      </trkpt>
      <trkpt lat="45.64467" lon="4.63241">
        <ele>614.9</ele>
        <time>2015-04-26T08:46:21Z</time>
      </trkpt>
      <trkpt lat="45.64465" lon="4.6324">
        <ele>614.9</ele>
        <time>2015-04-26T08:46:22Z</time>
      </trkpt>
      <trkpt lat="45.64463" lon="4.63239">
        <ele>614.9</ele>
        <time>2015-04-26T08:46:23Z</time>
      </trkpt>
      <trkpt lat="45.64462" lon="4.63237">
        <ele>615.38</ele>
        <time>2015-04-26T08:46:24Z</time>
      </trkpt>
      <trkpt lat="45.6446" lon="4.63236">
        <ele>615.38</ele>
        <time>2015-04-26T08:46:25Z</time>
      </trkpt>
      <trkpt lat="45.64433" lon="4.63214">
        <ele>617.78</ele>
        <time>2015-04-26T08:46:40Z</time>
      </trkpt>
      <trkpt lat="45.64413" lon="4.63189">
        <ele>619.71</ele>
        <time>2015-04-26T08:46:54Z</time>
      </trkpt>
      <trkpt lat="45.64412" lon="4.63187">
        <ele>618.75</ele>
        <time>2015-04-26T08:47:04Z</time>
      </trkpt>
      <trkpt lat="45.64411" lon="4.63185">
        <ele>618.75</ele>
        <time>2015-04-26T08:47:08Z</time>
      </trkpt>
      <trkpt lat="45.6441" lon="4.63184">
        <ele>618.75</ele>
        <time>2015-04-26T08:47:09Z</time>
      </trkpt>
      <trkpt lat="45.64396" lon="4.63169">
        <ele>619.23</ele>
        <time>2015-04-26T08:47:18Z</time>
      </trkpt>
      <trkpt lat="45.64395" lon="4.63166">
        <ele>619.23</ele>
        <time>2015-04-26T08:47:19Z</time>
      </trkpt>
      <trkpt lat="45.64394" lon="4.63165">
        <ele>619.71</ele>
        <time>2015-04-26T08:47:20Z</time>
      </trkpt>
      <trkpt lat="45.64368" lon="4.63132">
        <ele>620.19</ele>
        <time>2015-04-26T08:47:36Z</time>
      </trkpt>
      <trkpt lat="45.64348" lon="4.63101">
        <ele>619.71</ele>
        <time>2015-04-26T08:47:48Z</time>
      </trkpt>
      <trkpt lat="45.64332" lon="4.63064">
        <ele>618.75</ele>
        <time>2015-04-26T08:48:00Z</time>
      </trkpt>
      <trkpt lat="45.64328" lon="4.63049">
        <ele>618.26</ele>
        <time>2015-04-26T08:48:03Z</time>
      </trkpt>
      <trkpt lat="45.64326" lon="4.63043">
        <ele>618.26</ele>
        <time>2015-04-26T08:48:04Z</time>
      </trkpt>
      <trkpt lat="45.64324" lon="4.63024">
        <ele>617.78</ele>
        <time>2015-04-26T08:48:07Z</time>
      </trkpt>
      <trkpt lat="45.64312" lon="4.62959">
        <ele>616.82</ele>
        <time>2015-04-26T08:48:20Z</time>
      </trkpt>
      <trkpt lat="45.64292" lon="4.62899">
        <ele>618.75</ele>
        <time>2015-04-26T08:48:34Z</time>
      </trkpt>
      <trkpt lat="45.64283" lon="4.62862">
        <ele>621.15</ele>
        <time>2015-04-26T08:48:46Z</time>
      </trkpt>
      <trkpt lat="45.64281" lon="4.62861">
        <ele>621.63</ele>
        <time>2015-04-26T08:48:47Z</time>
      </trkpt>
      <trkpt lat="45.64279" lon="4.62861">
        <ele>622.11</ele>
        <time>2015-04-26T08:48:48Z</time>
      </trkpt>
      <trkpt lat="45.64278" lon="4.62862">
        <ele>622.11</ele>
        <time>2015-04-26T08:48:49Z</time>
      </trkpt>
      <trkpt lat="45.64276" lon="4.62863">
        <ele>622.11</ele>
        <time>2015-04-26T08:48:50Z</time>
      </trkpt>
      <trkpt lat="45.64274" lon="4.62865">
        <ele>622.11</ele>
        <time>2015-04-26T08:48:51Z</time>
      </trkpt>
      <trkpt lat="45.64246" lon="4.62887">
        <ele>624.03</ele>
        <time>2015-04-26T08:49:08Z</time>
      </trkpt>
      <trkpt lat="45.64222" lon="4.62904">
        <ele>626.92</ele>
        <time>2015-04-26T08:49:22Z</time>
      </trkpt>
      <trkpt lat="45.64201" lon="4.62916">
        <ele>627.88</ele>
        <time>2015-04-26T08:49:34Z</time>
      </trkpt>
      <trkpt lat="45.64176" lon="4.62931">
        <ele>630.28</ele>
        <time>2015-04-26T08:49:49Z</time>
      </trkpt>
      <trkpt lat="45.64168" lon="4.62933">
        <ele>631.72</ele>
        <time>2015-04-26T08:49:59Z</time>
      </trkpt>
      <trkpt lat="45.64166" lon="4.62933">
        <ele>629.32</ele>
        <time>2015-04-26T08:50:17Z</time>
      </trkpt>
      <trkpt lat="45.64162" lon="4.62934">
        <ele>633.17</ele>
        <time>2015-04-26T08:50:46Z</time>
      </trkpt>
      <trkpt lat="45.6416" lon="4.62932">
        <ele>636.53</ele>
        <time>2015-04-26T08:51:32Z</time>
      </trkpt>
      <trkpt lat="45.64163" lon="4.62932">
        <ele>635.09</ele>
        <time>2015-04-26T08:52:22Z</time>
      </trkpt>
      <trkpt lat="45.64161" lon="4.62936">
        <ele>637.97</ele>
        <time>2015-04-26T08:53:05Z</time>
      </trkpt>
      <trkpt lat="45.64162" lon="4.62939">
        <ele>636.53</ele>
        <time>2015-04-26T08:53:26Z</time>
      </trkpt>
      <trkpt lat="45.64159" lon="4.62939">
        <ele>635.09</ele>
        <time>2015-04-26T08:53:36Z</time>
      </trkpt>
      <trkpt lat="45.64157" lon="4.6294">
        <ele>634.61</ele>
        <time>2015-04-26T08:53:37Z</time>
      </trkpt>
      <trkpt lat="45.64156" lon="4.6294">
        <ele>634.13</ele>
        <time>2015-04-26T08:53:38Z</time>
      </trkpt>
      <trkpt lat="45.64154" lon="4.6294">
        <ele>634.13</ele>
        <time>2015-04-26T08:53:39Z</time>
      </trkpt>
      <trkpt lat="45.64153" lon="4.62941">
        <ele>633.65</ele>
        <time>2015-04-26T08:53:40Z</time>
      </trkpt>
      <trkpt lat="45.64152" lon="4.62941">
        <ele>633.65</ele>
        <time>2015-04-26T08:53:41Z</time>
      </trkpt>
      <trkpt lat="45.6415" lon="4.62942">
        <ele>633.65</ele>
        <time>2015-04-26T08:53:43Z</time>
      </trkpt>
      <trkpt lat="45.64148" lon="4.62943">
        <ele>633.65</ele>
        <time>2015-04-26T08:53:44Z</time>
      </trkpt>
      <trkpt lat="45.64147" lon="4.62943">
        <ele>633.65</ele>
        <time>2015-04-26T08:53:45Z</time>
      </trkpt>
      <trkpt lat="45.64145" lon="4.62944">
        <ele>634.13</ele>
        <time>2015-04-26T08:53:46Z</time>
      </trkpt>
      <trkpt lat="45.64143" lon="4.62945">
        <ele>634.13</ele>
        <time>2015-04-26T08:53:47Z</time>
      </trkpt>
      <trkpt lat="45.64141" lon="4.62947">
        <ele>634.13</ele>
        <time>2015-04-26T08:53:48Z</time>
      </trkpt>
      <trkpt lat="45.64119" lon="4.62961">
        <ele>635.09</ele>
        <time>2015-04-26T08:53:59Z</time>
      </trkpt>
      <trkpt lat="45.64094" lon="4.6298">
        <ele>635.09</ele>
        <time>2015-04-26T08:54:11Z</time>
      </trkpt>
      <trkpt lat="45.64088" lon="4.62985">
        <ele>635.09</ele>
        <time>2015-04-26T08:54:14Z</time>
      </trkpt>
      <trkpt lat="45.64086" lon="4.62987">
        <ele>635.57</ele>
        <time>2015-04-26T08:54:15Z</time>
      </trkpt>
      <trkpt lat="45.64067" lon="4.62997">
        <ele>637.01</ele>
        <time>2015-04-26T08:54:24Z</time>
      </trkpt>
      <trkpt lat="45.64064" lon="4.62998">
        <ele>637.01</ele>
        <time>2015-04-26T08:54:25Z</time>
      </trkpt>
      <trkpt lat="45.64062" lon="4.62999">
        <ele>637.01</ele>
        <time>2015-04-26T08:54:26Z</time>
      </trkpt>
      <trkpt lat="45.64061" lon="4.63">
        <ele>637.49</ele>
        <time>2015-04-26T08:54:27Z</time>
      </trkpt>
      <trkpt lat="45.64043" lon="4.63008">
        <ele>640.38</ele>
        <time>2015-04-26T08:54:37Z</time>
      </trkpt>
      <trkpt lat="45.64034" lon="4.63011">
        <ele>640.86</ele>
        <time>2015-04-26T08:54:43Z</time>
      </trkpt>
      <trkpt lat="45.6403" lon="4.63013">
        <ele>640.86</ele>
        <time>2015-04-26T08:54:45Z</time>
      </trkpt>
      <trkpt lat="45.64005" lon="4.63024">
        <ele>644.7</ele>
        <time>2015-04-26T08:54:58Z</time>
      </trkpt>
      <trkpt lat="45.63996" lon="4.63031">
        <ele>646.14</ele>
        <time>2015-04-26T08:55:01Z</time>
      </trkpt>
      <trkpt lat="45.63994" lon="4.63032">
        <ele>646.62</ele>
        <time>2015-04-26T08:55:02Z</time>
      </trkpt>
      <trkpt lat="45.63991" lon="4.63034">
        <ele>646.62</ele>
        <time>2015-04-26T08:55:03Z</time>
      </trkpt>
      <trkpt lat="45.63987" lon="4.63035">
        <ele>647.1</ele>
        <time>2015-04-26T08:55:04Z</time>
      </trkpt>
      <trkpt lat="45.63981" lon="4.63038">
        <ele>647.59</ele>
        <time>2015-04-26T08:55:05Z</time>
      </trkpt>
      <trkpt lat="45.63976" lon="4.6304">
        <ele>648.07</ele>
        <time>2015-04-26T08:55:06Z</time>
      </trkpt>
      <trkpt lat="45.63969" lon="4.63043">
        <ele>648.07</ele>
        <time>2015-04-26T08:55:07Z</time>
      </trkpt>
      <trkpt lat="45.63962" lon="4.63046">
        <ele>648.07</ele>
        <time>2015-04-26T08:55:08Z</time>
      </trkpt>
      <trkpt lat="45.6393" lon="4.63061">
        <ele>643.26</ele>
        <time>2015-04-26T08:55:16Z</time>
      </trkpt>
      <trkpt lat="45.63914" lon="4.6307">
        <ele>639.41</ele>
        <time>2015-04-26T08:55:24Z</time>
      </trkpt>
      <trkpt lat="45.6391" lon="4.63071">
        <ele>639.41</ele>
        <time>2015-04-26T08:55:25Z</time>
      </trkpt>
      <trkpt lat="45.63907" lon="4.63072">
        <ele>638.45</ele>
        <time>2015-04-26T08:55:26Z</time>
      </trkpt>
      <trkpt lat="45.63904" lon="4.63073">
        <ele>637.97</ele>
        <time>2015-04-26T08:55:27Z</time>
      </trkpt>
      <trkpt lat="45.639" lon="4.63073">
        <ele>637.49</ele>
        <time>2015-04-26T08:55:28Z</time>
      </trkpt>
      <trkpt lat="45.63897" lon="4.63072">
        <ele>637.01</ele>
        <time>2015-04-26T08:55:29Z</time>
      </trkpt>
      <trkpt lat="45.63896" lon="4.63073">
        <ele>636.53</ele>
        <time>2015-04-26T08:55:30Z</time>
      </trkpt>
      <trkpt lat="45.63871" lon="4.63083">
        <ele>631.24</ele>
        <time>2015-04-26T08:55:39Z</time>
      </trkpt>
      <trkpt lat="45.63844" lon="4.63099">
        <ele>624.99</ele>
        <time>2015-04-26T08:55:47Z</time>
      </trkpt>
      <trkpt lat="45.63839" lon="4.63102">
        <ele>624.03</ele>
        <time>2015-04-26T08:55:48Z</time>
      </trkpt>
      <trkpt lat="45.63809" lon="4.63107">
        <ele>615.86</ele>
        <time>2015-04-26T08:55:57Z</time>
      </trkpt>
      <trkpt lat="45.63804" lon="4.63104">
        <ele>614.42</ele>
        <time>2015-04-26T08:55:59Z</time>
      </trkpt>
      <trkpt lat="45.63802" lon="4.63102">
        <ele>614.42</ele>
        <time>2015-04-26T08:56:00Z</time>
      </trkpt>
      <trkpt lat="45.638" lon="4.63099">
        <ele>613.94</ele>
        <time>2015-04-26T08:56:01Z</time>
      </trkpt>
      <trkpt lat="45.63799" lon="4.63096">
        <ele>613.46</ele>
        <time>2015-04-26T08:56:02Z</time>
      </trkpt>
      <trkpt lat="45.63798" lon="4.63092">
        <ele>613.46</ele>
        <time>2015-04-26T08:56:03Z</time>
      </trkpt>
      <trkpt lat="45.63796" lon="4.63088">
        <ele>612.98</ele>
        <time>2015-04-26T08:56:04Z</time>
      </trkpt>
      <trkpt lat="45.63782" lon="4.6306">
        <ele>610.57</ele>
        <time>2015-04-26T08:56:13Z</time>
      </trkpt>
      <trkpt lat="45.63765" lon="4.63026">
        <ele>603.85</ele>
        <time>2015-04-26T08:56:24Z</time>
      </trkpt>
      <trkpt lat="45.63762" lon="4.63019">
        <ele>602.88</ele>
        <time>2015-04-26T08:56:25Z</time>
      </trkpt>
      <trkpt lat="45.63759" lon="4.63005">
        <ele>600.96</ele>
        <time>2015-04-26T08:56:27Z</time>
      </trkpt>
      <trkpt lat="45.63757" lon="4.63001">
        <ele>600</ele>
        <time>2015-04-26T08:56:28Z</time>
      </trkpt>
      <trkpt lat="45.63754" lon="4.62998">
        <ele>599.52</ele>
        <time>2015-04-26T08:56:29Z</time>
      </trkpt>
      <trkpt lat="45.63751" lon="4.62996">
        <ele>599.04</ele>
        <time>2015-04-26T08:56:30Z</time>
      </trkpt>
      <trkpt lat="45.63747" lon="4.62993">
        <ele>598.56</ele>
        <time>2015-04-26T08:56:31Z</time>
      </trkpt>
      <trkpt lat="45.63743" lon="4.62991">
        <ele>598.08</ele>
        <time>2015-04-26T08:56:32Z</time>
      </trkpt>
      <trkpt lat="45.63734" lon="4.62986">
        <ele>597.12</ele>
        <time>2015-04-26T08:56:34Z</time>
      </trkpt>
      <trkpt lat="45.6372" lon="4.62977">
        <ele>596.15</ele>
        <time>2015-04-26T08:56:37Z</time>
      </trkpt>
      <trkpt lat="45.63715" lon="4.62974">
        <ele>596.15</ele>
        <time>2015-04-26T08:56:38Z</time>
      </trkpt>
      <trkpt lat="45.63711" lon="4.62969">
        <ele>595.67</ele>
        <time>2015-04-26T08:56:39Z</time>
      </trkpt>
      <trkpt lat="45.63706" lon="4.62965">
        <ele>595.19</ele>
        <time>2015-04-26T08:56:40Z</time>
      </trkpt>
      <trkpt lat="45.63701" lon="4.62962">
        <ele>594.71</ele>
        <time>2015-04-26T08:56:41Z</time>
      </trkpt>
      <trkpt lat="45.63696" lon="4.62959">
        <ele>594.23</ele>
        <time>2015-04-26T08:56:42Z</time>
      </trkpt>
      <trkpt lat="45.63691" lon="4.62957">
        <ele>593.75</ele>
        <time>2015-04-26T08:56:43Z</time>
      </trkpt>
      <trkpt lat="45.63686" lon="4.62956">
        <ele>593.75</ele>
        <time>2015-04-26T08:56:44Z</time>
      </trkpt>
      <trkpt lat="45.63644" lon="4.62957">
        <ele>590.87</ele>
        <time>2015-04-26T08:56:54Z</time>
      </trkpt>
      <trkpt lat="45.63583" lon="4.62954">
        <ele>587.5</ele>
        <time>2015-04-26T08:57:05Z</time>
      </trkpt>
      <trkpt lat="45.6357" lon="4.62952">
        <ele>587.5</ele>
        <time>2015-04-26T08:57:07Z</time>
      </trkpt>
      <trkpt lat="45.63533" lon="4.62935">
        <ele>583.18</ele>
        <time>2015-04-26T08:57:15Z</time>
      </trkpt>
      <trkpt lat="45.63535" lon="4.62937">
        <ele>582.7</ele>
        <time>2015-04-26T08:57:28Z</time>
      </trkpt>
      <trkpt lat="45.63548" lon="4.62925">
        <ele>581.73</ele>
        <time>2015-04-26T08:57:44Z</time>
      </trkpt>
      <trkpt lat="45.63556" lon="4.62908">
        <ele>584.62</ele>
        <time>2015-04-26T08:57:59Z</time>
      </trkpt>
      <trkpt lat="45.63564" lon="4.62892">
        <ele>587.02</ele>
        <time>2015-04-26T08:58:15Z</time>
      </trkpt>
      <trkpt lat="45.63571" lon="4.62872">
        <ele>588.46</ele>
        <time>2015-04-26T08:58:30Z</time>
      </trkpt>
      <trkpt lat="45.63572" lon="4.62868">
        <ele>588.46</ele>
        <time>2015-04-26T08:58:47Z</time>
      </trkpt>
      <trkpt lat="45.63573" lon="4.62868">
        <ele>587.02</ele>
        <time>2015-04-26T08:59:06Z</time>
      </trkpt>
      <trkpt lat="45.63575" lon="4.62865">
        <ele>589.91</ele>
        <time>2015-04-26T08:59:25Z</time>
      </trkpt>
      <trkpt lat="45.63576" lon="4.62855">
        <ele>588.95</ele>
        <time>2015-04-26T08:59:37Z</time>
      </trkpt>
      <trkpt lat="45.63576" lon="4.62852">
        <ele>589.43</ele>
        <time>2015-04-26T08:59:42Z</time>
      </trkpt>
      <trkpt lat="45.63577" lon="4.62831">
        <ele>589.91</ele>
        <time>2015-04-26T08:59:56Z</time>
      </trkpt>
      <trkpt lat="45.63578" lon="4.62803">
        <ele>593.27</ele>
        <time>2015-04-26T09:00:12Z</time>
      </trkpt>
      <trkpt lat="45.63581" lon="4.62782">
        <ele>597.12</ele>
        <time>2015-04-26T09:00:28Z</time>
      </trkpt>
      <trkpt lat="45.63587" lon="4.62769">
        <ele>597.6</ele>
        <time>2015-04-26T09:00:42Z</time>
      </trkpt>
      <trkpt lat="45.63589" lon="4.62765">
        <ele>597.6</ele>
        <time>2015-04-26T09:00:46Z</time>
      </trkpt>
      <trkpt lat="45.63589" lon="4.62763">
        <ele>597.6</ele>
        <time>2015-04-26T09:00:47Z</time>
      </trkpt>
      <trkpt lat="45.63593" lon="4.62755">
        <ele>599.04</ele>
        <time>2015-04-26T09:00:52Z</time>
      </trkpt>
      <trkpt lat="45.63593" lon="4.62754">
        <ele>599.04</ele>
        <time>2015-04-26T09:00:53Z</time>
      </trkpt>
      <trkpt lat="45.63596" lon="4.62747">
        <ele>600.48</ele>
        <time>2015-04-26T09:00:58Z</time>
      </trkpt>
      <trkpt lat="45.63604" lon="4.62735">
        <ele>602.4</ele>
        <time>2015-04-26T09:01:08Z</time>
      </trkpt>
      <trkpt lat="45.63604" lon="4.62734">
        <ele>602.4</ele>
        <time>2015-04-26T09:01:09Z</time>
      </trkpt>
      <trkpt lat="45.63611" lon="4.62725">
        <ele>603.85</ele>
        <time>2015-04-26T09:01:17Z</time>
      </trkpt>
      <trkpt lat="45.6362" lon="4.62715">
        <ele>605.77</ele>
        <time>2015-04-26T09:01:27Z</time>
      </trkpt>
      <trkpt lat="45.63621" lon="4.62714">
        <ele>605.77</ele>
        <time>2015-04-26T09:01:28Z</time>
      </trkpt>
      <trkpt lat="45.63622" lon="4.62711">
        <ele>605.77</ele>
        <time>2015-04-26T09:01:31Z</time>
      </trkpt>
      <trkpt lat="45.63626" lon="4.62704">
        <ele>606.25</ele>
        <time>2015-04-26T09:01:36Z</time>
      </trkpt>
      <trkpt lat="45.63627" lon="4.62702">
        <ele>606.25</ele>
        <time>2015-04-26T09:01:37Z</time>
      </trkpt>
      <trkpt lat="45.63628" lon="4.627">
        <ele>606.25</ele>
        <time>2015-04-26T09:01:38Z</time>
      </trkpt>
      <trkpt lat="45.63636" lon="4.62677">
        <ele>608.65</ele>
        <time>2015-04-26T09:01:53Z</time>
      </trkpt>
      <trkpt lat="45.63637" lon="4.62676">
        <ele>608.65</ele>
        <time>2015-04-26T09:01:54Z</time>
      </trkpt>
      <trkpt lat="45.63644" lon="4.62656">
        <ele>612.02</ele>
        <time>2015-04-26T09:02:07Z</time>
      </trkpt>
      <trkpt lat="45.63649" lon="4.62635">
        <ele>613.94</ele>
        <time>2015-04-26T09:02:20Z</time>
      </trkpt>
      <trkpt lat="45.6365" lon="4.62634">
        <ele>613.94</ele>
        <time>2015-04-26T09:02:21Z</time>
      </trkpt>
      <trkpt lat="45.6365" lon="4.62632">
        <ele>614.42</ele>
        <time>2015-04-26T09:02:22Z</time>
      </trkpt>
      <trkpt lat="45.63651" lon="4.6263">
        <ele>614.42</ele>
        <time>2015-04-26T09:02:23Z</time>
      </trkpt>
      <trkpt lat="45.63651" lon="4.62629">
        <ele>614.9</ele>
        <time>2015-04-26T09:02:24Z</time>
      </trkpt>
      <trkpt lat="45.63652" lon="4.62627">
        <ele>614.9</ele>
        <time>2015-04-26T09:02:25Z</time>
      </trkpt>
      <trkpt lat="45.63653" lon="4.62625">
        <ele>614.9</ele>
        <time>2015-04-26T09:02:26Z</time>
      </trkpt>
      <trkpt lat="45.63653" lon="4.62624">
        <ele>614.42</ele>
        <time>2015-04-26T09:02:27Z</time>
      </trkpt>
      <trkpt lat="45.63653" lon="4.62622">
        <ele>614.9</ele>
        <time>2015-04-26T09:02:28Z</time>
      </trkpt>
      <trkpt lat="45.63658" lon="4.62609">
        <ele>615.38</ele>
        <time>2015-04-26T09:02:36Z</time>
      </trkpt>
      <trkpt lat="45.63658" lon="4.62607">
        <ele>615.38</ele>
        <time>2015-04-26T09:02:37Z</time>
      </trkpt>
      <trkpt lat="45.63659" lon="4.62605">
        <ele>615.38</ele>
        <time>2015-04-26T09:02:38Z</time>
      </trkpt>
      <trkpt lat="45.6366" lon="4.62603">
        <ele>615.38</ele>
        <time>2015-04-26T09:02:39Z</time>
      </trkpt>
      <trkpt lat="45.6366" lon="4.62602">
        <ele>615.38</ele>
        <time>2015-04-26T09:02:40Z</time>
      </trkpt>
      <trkpt lat="45.63661" lon="4.626">
        <ele>615.38</ele>
        <time>2015-04-26T09:02:41Z</time>
      </trkpt>
      <trkpt lat="45.63661" lon="4.62599">
        <ele>615.38</ele>
        <time>2015-04-26T09:02:42Z</time>
      </trkpt>
      <trkpt lat="45.63662" lon="4.62597">
        <ele>615.86</ele>
        <time>2015-04-26T09:02:43Z</time>
      </trkpt>
      <trkpt lat="45.63663" lon="4.62596">
        <ele>615.86</ele>
        <time>2015-04-26T09:02:44Z</time>
      </trkpt>
      <trkpt lat="45.63663" lon="4.62594">
        <ele>615.86</ele>
        <time>2015-04-26T09:02:45Z</time>
      </trkpt>
      <trkpt lat="45.63664" lon="4.62593">
        <ele>615.86</ele>
        <time>2015-04-26T09:02:46Z</time>
      </trkpt>
      <trkpt lat="45.63664" lon="4.62591">
        <ele>615.86</ele>
        <time>2015-04-26T09:02:47Z</time>
      </trkpt>
      <trkpt lat="45.63665" lon="4.62589">
        <ele>616.34</ele>
        <time>2015-04-26T09:02:48Z</time>
      </trkpt>
      <trkpt lat="45.63665" lon="4.62588">
        <ele>616.34</ele>
        <time>2015-04-26T09:02:49Z</time>
      </trkpt>
      <trkpt lat="45.63666" lon="4.62586">
        <ele>616.82</ele>
        <time>2015-04-26T09:02:50Z</time>
      </trkpt>
      <trkpt lat="45.63667" lon="4.62583">
        <ele>616.82</ele>
        <time>2015-04-26T09:02:52Z</time>
      </trkpt>
      <trkpt lat="45.63668" lon="4.62582">
        <ele>616.82</ele>
        <time>2015-04-26T09:02:53Z</time>
      </trkpt>
      <trkpt lat="45.63668" lon="4.6258">
        <ele>616.82</ele>
        <time>2015-04-26T09:02:54Z</time>
      </trkpt>
      <trkpt lat="45.63669" lon="4.62578">
        <ele>617.3</ele>
        <time>2015-04-26T09:02:55Z</time>
      </trkpt>
      <trkpt lat="45.6367" lon="4.62576">
        <ele>617.3</ele>
        <time>2015-04-26T09:02:56Z</time>
      </trkpt>
      <trkpt lat="45.6367" lon="4.62575">
        <ele>617.3</ele>
        <time>2015-04-26T09:02:57Z</time>
      </trkpt>
      <trkpt lat="45.63671" lon="4.62573">
        <ele>617.3</ele>
        <time>2015-04-26T09:02:58Z</time>
      </trkpt>
      <trkpt lat="45.6368" lon="4.62555">
        <ele>618.26</ele>
        <time>2015-04-26T09:03:10Z</time>
      </trkpt>
      <trkpt lat="45.6368" lon="4.62554">
        <ele>618.75</ele>
        <time>2015-04-26T09:03:11Z</time>
      </trkpt>
      <trkpt lat="45.63681" lon="4.62552">
        <ele>618.75</ele>
        <time>2015-04-26T09:03:12Z</time>
      </trkpt>
      <trkpt lat="45.63682" lon="4.6255">
        <ele>618.26</ele>
        <time>2015-04-26T09:03:13Z</time>
      </trkpt>
      <trkpt lat="45.63682" lon="4.62547">
        <ele>618.26</ele>
        <time>2015-04-26T09:03:14Z</time>
      </trkpt>
      <trkpt lat="45.63683" lon="4.62545">
        <ele>618.26</ele>
        <time>2015-04-26T09:03:15Z</time>
      </trkpt>
      <trkpt lat="45.6369" lon="4.62518">
        <ele>615.38</ele>
        <time>2015-04-26T09:03:21Z</time>
      </trkpt>
      <trkpt lat="45.63694" lon="4.62513">
        <ele>614.9</ele>
        <time>2015-04-26T09:03:22Z</time>
      </trkpt>
      <trkpt lat="45.63697" lon="4.62508">
        <ele>614.9</ele>
        <time>2015-04-26T09:03:23Z</time>
      </trkpt>
      <trkpt lat="45.637" lon="4.62505">
        <ele>614.9</ele>
        <time>2015-04-26T09:03:24Z</time>
      </trkpt>
      <trkpt lat="45.63702" lon="4.62505">
        <ele>614.9</ele>
        <time>2015-04-26T09:03:25Z</time>
      </trkpt>
      <trkpt lat="45.6372" lon="4.62488">
        <ele>618.75</ele>
        <time>2015-04-26T09:03:40Z</time>
      </trkpt>
      <trkpt lat="45.63733" lon="4.62466">
        <ele>621.15</ele>
        <time>2015-04-26T09:03:54Z</time>
      </trkpt>
      <trkpt lat="45.63743" lon="4.62455">
        <ele>620.67</ele>
        <time>2015-04-26T09:03:59Z</time>
      </trkpt>
      <trkpt lat="45.63744" lon="4.6245">
        <ele>621.15</ele>
        <time>2015-04-26T09:04:00Z</time>
      </trkpt>
      <trkpt lat="45.63744" lon="4.62445">
        <ele>621.15</ele>
        <time>2015-04-26T09:04:01Z</time>
      </trkpt>
      <trkpt lat="45.63736" lon="4.62408">
        <ele>621.63</ele>
        <time>2015-04-26T09:04:13Z</time>
      </trkpt>
      <trkpt lat="45.63722" lon="4.62379">
        <ele>624.03</ele>
        <time>2015-04-26T09:04:27Z</time>
      </trkpt>
      <trkpt lat="45.63718" lon="4.62371">
        <ele>624.51</ele>
        <time>2015-04-26T09:04:31Z</time>
      </trkpt>
      <trkpt lat="45.63718" lon="4.62369">
        <ele>624.99</ele>
        <time>2015-04-26T09:04:32Z</time>
      </trkpt>
      <trkpt lat="45.63718" lon="4.62366">
        <ele>624.51</ele>
        <time>2015-04-26T09:04:33Z</time>
      </trkpt>
      <trkpt lat="45.63717" lon="4.62364">
        <ele>624.51</ele>
        <time>2015-04-26T09:04:34Z</time>
      </trkpt>
      <trkpt lat="45.63717" lon="4.62361">
        <ele>624.51</ele>
        <time>2015-04-26T09:04:35Z</time>
      </trkpt>
      <trkpt lat="45.63717" lon="4.62359">
        <ele>624.51</ele>
        <time>2015-04-26T09:04:36Z</time>
      </trkpt>
      <trkpt lat="45.63717" lon="4.62357">
        <ele>624.99</ele>
        <time>2015-04-26T09:04:37Z</time>
      </trkpt>
      <trkpt lat="45.63717" lon="4.6235">
        <ele>624.99</ele>
        <time>2015-04-26T09:04:40Z</time>
      </trkpt>
      <trkpt lat="45.63718" lon="4.62348">
        <ele>624.99</ele>
        <time>2015-04-26T09:04:41Z</time>
      </trkpt>
      <trkpt lat="45.63722" lon="4.62326">
        <ele>625.96</ele>
        <time>2015-04-26T09:04:50Z</time>
      </trkpt>
      <trkpt lat="45.63723" lon="4.62324">
        <ele>625.96</ele>
        <time>2015-04-26T09:04:51Z</time>
      </trkpt>
      <trkpt lat="45.63724" lon="4.62322">
        <ele>626.44</ele>
        <time>2015-04-26T09:04:52Z</time>
      </trkpt>
      <trkpt lat="45.63724" lon="4.6232">
        <ele>626.44</ele>
        <time>2015-04-26T09:04:53Z</time>
      </trkpt>
      <trkpt lat="45.63725" lon="4.62318">
        <ele>626.92</ele>
        <time>2015-04-26T09:04:54Z</time>
      </trkpt>
      <trkpt lat="45.63726" lon="4.62316">
        <ele>626.92</ele>
        <time>2015-04-26T09:04:55Z</time>
      </trkpt>
      <trkpt lat="45.63739" lon="4.62285">
        <ele>627.88</ele>
        <time>2015-04-26T09:05:10Z</time>
      </trkpt>
      <trkpt lat="45.63752" lon="4.62268">
        <ele>628.84</ele>
        <time>2015-04-26T09:05:21Z</time>
      </trkpt>
      <trkpt lat="45.63753" lon="4.62266">
        <ele>628.84</ele>
        <time>2015-04-26T09:05:22Z</time>
      </trkpt>
      <trkpt lat="45.63775" lon="4.62225">
        <ele>628.84</ele>
        <time>2015-04-26T09:05:36Z</time>
      </trkpt>
      <trkpt lat="45.63802" lon="4.62168">
        <ele>629.8</ele>
        <time>2015-04-26T09:05:52Z</time>
      </trkpt>
      <trkpt lat="45.63825" lon="4.62125">
        <ele>630.76</ele>
        <time>2015-04-26T09:06:08Z</time>
      </trkpt>
      <trkpt lat="45.63853" lon="4.62083">
        <ele>631.24</ele>
        <time>2015-04-26T09:06:25Z</time>
      </trkpt>
      <trkpt lat="45.63874" lon="4.62053">
        <ele>632.68</ele>
        <time>2015-04-26T09:06:38Z</time>
      </trkpt>
      <trkpt lat="45.6389" lon="4.62019">
        <ele>633.17</ele>
        <time>2015-04-26T09:06:50Z</time>
      </trkpt>
      <trkpt lat="45.63895" lon="4.61972">
        <ele>633.17</ele>
        <time>2015-04-26T09:07:02Z</time>
      </trkpt>
      <trkpt lat="45.63881" lon="4.61927">
        <ele>635.09</ele>
        <time>2015-04-26T09:07:18Z</time>
      </trkpt>
      <trkpt lat="45.63869" lon="4.61899">
        <ele>638.45</ele>
        <time>2015-04-26T09:07:31Z</time>
      </trkpt>
      <trkpt lat="45.63864" lon="4.61866">
        <ele>640.86</ele>
        <time>2015-04-26T09:07:45Z</time>
      </trkpt>
      <trkpt lat="45.63872" lon="4.61829">
        <ele>639.89</ele>
        <time>2015-04-26T09:08:01Z</time>
      </trkpt>
      <trkpt lat="45.63885" lon="4.61773">
        <ele>637.49</ele>
        <time>2015-04-26T09:08:13Z</time>
      </trkpt>
      <trkpt lat="45.63895" lon="4.61721">
        <ele>638.45</ele>
        <time>2015-04-26T09:08:26Z</time>
      </trkpt>
      <trkpt lat="45.63901" lon="4.61665">
        <ele>639.89</ele>
        <time>2015-04-26T09:08:41Z</time>
      </trkpt>
      <trkpt lat="45.6391" lon="4.61633">
        <ele>639.41</ele>
        <time>2015-04-26T09:08:53Z</time>
      </trkpt>
      <trkpt lat="45.63905" lon="4.61587">
        <ele>636.53</ele>
        <time>2015-04-26T09:09:02Z</time>
      </trkpt>
      <trkpt lat="45.63889" lon="4.61528">
        <ele>633.17</ele>
        <time>2015-04-26T09:09:08Z</time>
      </trkpt>
      <trkpt lat="45.63883" lon="4.61499">
        <ele>631.72</ele>
        <time>2015-04-26T09:09:12Z</time>
      </trkpt>
      <trkpt lat="45.6388" lon="4.61497">
        <ele>631.24</ele>
        <time>2015-04-26T09:09:13Z</time>
      </trkpt>
      <trkpt lat="45.63875" lon="4.61498">
        <ele>630.76</ele>
        <time>2015-04-26T09:09:14Z</time>
      </trkpt>
      <trkpt lat="45.63872" lon="4.61502">
        <ele>630.28</ele>
        <time>2015-04-26T09:09:15Z</time>
      </trkpt>
      <trkpt lat="45.63868" lon="4.61506">
        <ele>630.28</ele>
        <time>2015-04-26T09:09:16Z</time>
      </trkpt>
      <trkpt lat="45.63864" lon="4.61509">
        <ele>629.8</ele>
        <time>2015-04-26T09:09:17Z</time>
      </trkpt>
      <trkpt lat="45.63862" lon="4.61511">
        <ele>629.32</ele>
        <time>2015-04-26T09:09:18Z</time>
      </trkpt>
      <trkpt lat="45.63859" lon="4.61513">
        <ele>628.84</ele>
        <time>2015-04-26T09:09:19Z</time>
      </trkpt>
      <trkpt lat="45.63856" lon="4.61515">
        <ele>628.36</ele>
        <time>2015-04-26T09:09:20Z</time>
      </trkpt>
      <trkpt lat="45.63839" lon="4.61535">
        <ele>626.44</ele>
        <time>2015-04-26T09:09:27Z</time>
      </trkpt>
      <trkpt lat="45.63833" lon="4.61543">
        <ele>625.47</ele>
        <time>2015-04-26T09:09:29Z</time>
      </trkpt>
      <trkpt lat="45.63822" lon="4.61556">
        <ele>622.59</ele>
        <time>2015-04-26T09:09:32Z</time>
      </trkpt>
      <trkpt lat="45.63802" lon="4.61587">
        <ele>615.86</ele>
        <time>2015-04-26T09:09:38Z</time>
      </trkpt>
      <trkpt lat="45.638" lon="4.61592">
        <ele>615.38</ele>
        <time>2015-04-26T09:09:39Z</time>
      </trkpt>
      <trkpt lat="45.63797" lon="4.61594">
        <ele>615.38</ele>
        <time>2015-04-26T09:09:40Z</time>
      </trkpt>
      <trkpt lat="45.63794" lon="4.61593">
        <ele>614.42</ele>
        <time>2015-04-26T09:09:41Z</time>
      </trkpt>
      <trkpt lat="45.63791" lon="4.6159">
        <ele>613.94</ele>
        <time>2015-04-26T09:09:42Z</time>
      </trkpt>
      <trkpt lat="45.63788" lon="4.61585">
        <ele>613.46</ele>
        <time>2015-04-26T09:09:43Z</time>
      </trkpt>
      <trkpt lat="45.63785" lon="4.61577">
        <ele>612.5</ele>
        <time>2015-04-26T09:09:44Z</time>
      </trkpt>
      <trkpt lat="45.63774" lon="4.6155">
        <ele>609.13</ele>
        <time>2015-04-26T09:09:47Z</time>
      </trkpt>
      <trkpt lat="45.63772" lon="4.61541">
        <ele>607.69</ele>
        <time>2015-04-26T09:09:48Z</time>
      </trkpt>
      <trkpt lat="45.63767" lon="4.61518">
        <ele>604.33</ele>
        <time>2015-04-26T09:09:51Z</time>
      </trkpt>
      <trkpt lat="45.63764" lon="4.61511">
        <ele>603.36</ele>
        <time>2015-04-26T09:09:52Z</time>
      </trkpt>
      <trkpt lat="45.63757" lon="4.61496">
        <ele>602.4</ele>
        <time>2015-04-26T09:09:54Z</time>
      </trkpt>
      <trkpt lat="45.63754" lon="4.61489">
        <ele>602.4</ele>
        <time>2015-04-26T09:09:55Z</time>
      </trkpt>
      <trkpt lat="45.63749" lon="4.61481">
        <ele>601.44</ele>
        <time>2015-04-26T09:09:56Z</time>
      </trkpt>
      <trkpt lat="45.63743" lon="4.61475">
        <ele>600.48</ele>
        <time>2015-04-26T09:09:57Z</time>
      </trkpt>
      <trkpt lat="45.63737" lon="4.61473">
        <ele>600</ele>
        <time>2015-04-26T09:09:58Z</time>
      </trkpt>
      <trkpt lat="45.63731" lon="4.61472">
        <ele>599.04</ele>
        <time>2015-04-26T09:09:59Z</time>
      </trkpt>
      <trkpt lat="45.63727" lon="4.61472">
        <ele>598.56</ele>
        <time>2015-04-26T09:10:00Z</time>
      </trkpt>
      <trkpt lat="45.63722" lon="4.61473">
        <ele>598.08</ele>
        <time>2015-04-26T09:10:01Z</time>
      </trkpt>
      <trkpt lat="45.63716" lon="4.61474">
        <ele>597.6</ele>
        <time>2015-04-26T09:10:02Z</time>
      </trkpt>
      <trkpt lat="45.63699" lon="4.6148">
        <ele>596.15</ele>
        <time>2015-04-26T09:10:05Z</time>
      </trkpt>
      <trkpt lat="45.63654" lon="4.61505">
        <ele>593.75</ele>
        <time>2015-04-26T09:10:13Z</time>
      </trkpt>
      <trkpt lat="45.63649" lon="4.61507">
        <ele>594.23</ele>
        <time>2015-04-26T09:10:14Z</time>
      </trkpt>
      <trkpt lat="45.63645" lon="4.61509">
        <ele>594.23</ele>
        <time>2015-04-26T09:10:15Z</time>
      </trkpt>
      <trkpt lat="45.63641" lon="4.61509">
        <ele>593.75</ele>
        <time>2015-04-26T09:10:16Z</time>
      </trkpt>
      <trkpt lat="45.63638" lon="4.61509">
        <ele>593.27</ele>
        <time>2015-04-26T09:10:17Z</time>
      </trkpt>
      <trkpt lat="45.63635" lon="4.61509">
        <ele>593.27</ele>
        <time>2015-04-26T09:10:18Z</time>
      </trkpt>
      <trkpt lat="45.63632" lon="4.61507">
        <ele>592.79</ele>
        <time>2015-04-26T09:10:19Z</time>
      </trkpt>
      <trkpt lat="45.6363" lon="4.61504">
        <ele>592.31</ele>
        <time>2015-04-26T09:10:20Z</time>
      </trkpt>
      <trkpt lat="45.63629" lon="4.61501">
        <ele>592.31</ele>
        <time>2015-04-26T09:10:21Z</time>
      </trkpt>
      <trkpt lat="45.63627" lon="4.61498">
        <ele>592.31</ele>
        <time>2015-04-26T09:10:22Z</time>
      </trkpt>
      <trkpt lat="45.63626" lon="4.61496">
        <ele>592.31</ele>
        <time>2015-04-26T09:10:23Z</time>
      </trkpt>
      <trkpt lat="45.63625" lon="4.61493">
        <ele>591.83</ele>
        <time>2015-04-26T09:10:24Z</time>
      </trkpt>
      <trkpt lat="45.63624" lon="4.6149">
        <ele>591.83</ele>
        <time>2015-04-26T09:10:25Z</time>
      </trkpt>
      <trkpt lat="45.63623" lon="4.61488">
        <ele>591.83</ele>
        <time>2015-04-26T09:10:26Z</time>
      </trkpt>
      <trkpt lat="45.63621" lon="4.61485">
        <ele>591.83</ele>
        <time>2015-04-26T09:10:27Z</time>
      </trkpt>
      <trkpt lat="45.6362" lon="4.61483">
        <ele>591.83</ele>
        <time>2015-04-26T09:10:28Z</time>
      </trkpt>
      <trkpt lat="45.63618" lon="4.6148">
        <ele>592.31</ele>
        <time>2015-04-26T09:10:29Z</time>
      </trkpt>
      <trkpt lat="45.63616" lon="4.61476">
        <ele>592.31</ele>
        <time>2015-04-26T09:10:30Z</time>
      </trkpt>
      <trkpt lat="45.63607" lon="4.61466">
        <ele>592.31</ele>
        <time>2015-04-26T09:10:33Z</time>
      </trkpt>
      <trkpt lat="45.63603" lon="4.61462">
        <ele>592.31</ele>
        <time>2015-04-26T09:10:34Z</time>
      </trkpt>
      <trkpt lat="45.63598" lon="4.6146">
        <ele>591.83</ele>
        <time>2015-04-26T09:10:35Z</time>
      </trkpt>
      <trkpt lat="45.6358" lon="4.61455">
        <ele>590.39</ele>
        <time>2015-04-26T09:10:38Z</time>
      </trkpt>
      <trkpt lat="45.63573" lon="4.61454">
        <ele>590.39</ele>
        <time>2015-04-26T09:10:39Z</time>
      </trkpt>
      <trkpt lat="45.63566" lon="4.61455">
        <ele>589.91</ele>
        <time>2015-04-26T09:10:40Z</time>
      </trkpt>
      <trkpt lat="45.63559" lon="4.61458">
        <ele>589.91</ele>
        <time>2015-04-26T09:10:41Z</time>
      </trkpt>
      <trkpt lat="45.63553" lon="4.61461">
        <ele>589.91</ele>
        <time>2015-04-26T09:10:42Z</time>
      </trkpt>
      <trkpt lat="45.63547" lon="4.61463">
        <ele>589.91</ele>
        <time>2015-04-26T09:10:43Z</time>
      </trkpt>
      <trkpt lat="45.63527" lon="4.61474">
        <ele>590.87</ele>
        <time>2015-04-26T09:10:48Z</time>
      </trkpt>
      <trkpt lat="45.63526" lon="4.61478">
        <ele>590.87</ele>
        <time>2015-04-26T09:10:49Z</time>
      </trkpt>
      <trkpt lat="45.63525" lon="4.61481">
        <ele>590.87</ele>
        <time>2015-04-26T09:10:50Z</time>
      </trkpt>
      <trkpt lat="45.63524" lon="4.61483">
        <ele>590.87</ele>
        <time>2015-04-26T09:10:51Z</time>
      </trkpt>
      <trkpt lat="45.63523" lon="4.61485">
        <ele>590.87</ele>
        <time>2015-04-26T09:10:52Z</time>
      </trkpt>
      <trkpt lat="45.6352" lon="4.61493">
        <ele>591.35</ele>
        <time>2015-04-26T09:10:56Z</time>
      </trkpt>
      <trkpt lat="45.63519" lon="4.61495">
        <ele>591.35</ele>
        <time>2015-04-26T09:10:57Z</time>
      </trkpt>
      <trkpt lat="45.63519" lon="4.61497">
        <ele>591.35</ele>
        <time>2015-04-26T09:10:58Z</time>
      </trkpt>
      <trkpt lat="45.63518" lon="4.61499">
        <ele>591.35</ele>
        <time>2015-04-26T09:10:59Z</time>
      </trkpt>
      <trkpt lat="45.63518" lon="4.61501">
        <ele>591.35</ele>
        <time>2015-04-26T09:11:00Z</time>
      </trkpt>
      <trkpt lat="45.63517" lon="4.61503">
        <ele>591.83</ele>
        <time>2015-04-26T09:11:01Z</time>
      </trkpt>
      <trkpt lat="45.63517" lon="4.61506">
        <ele>592.31</ele>
        <time>2015-04-26T09:11:02Z</time>
      </trkpt>
      <trkpt lat="45.63516" lon="4.61508">
        <ele>592.79</ele>
        <time>2015-04-26T09:11:03Z</time>
      </trkpt>
      <trkpt lat="45.63516" lon="4.61511">
        <ele>592.79</ele>
        <time>2015-04-26T09:11:04Z</time>
      </trkpt>
      <trkpt lat="45.63515" lon="4.61513">
        <ele>593.27</ele>
        <time>2015-04-26T09:11:05Z</time>
      </trkpt>
      <trkpt lat="45.635" lon="4.61541">
        <ele>597.12</ele>
        <time>2015-04-26T09:11:19Z</time>
      </trkpt>
      <trkpt lat="45.63486" lon="4.6157">
        <ele>600.48</ele>
        <time>2015-04-26T09:11:32Z</time>
      </trkpt>
      <trkpt lat="45.63485" lon="4.61572">
        <ele>600.48</ele>
        <time>2015-04-26T09:11:33Z</time>
      </trkpt>
      <trkpt lat="45.63483" lon="4.61573">
        <ele>600.48</ele>
        <time>2015-04-26T09:11:34Z</time>
      </trkpt>
      <trkpt lat="45.6347" lon="4.61583">
        <ele>600.48</ele>
        <time>2015-04-26T09:11:45Z</time>
      </trkpt>
      <trkpt lat="45.63468" lon="4.61584">
        <ele>600</ele>
        <time>2015-04-26T09:11:46Z</time>
      </trkpt>
      <trkpt lat="45.63454" lon="4.61592">
        <ele>600.96</ele>
        <time>2015-04-26T09:11:57Z</time>
      </trkpt>
      <trkpt lat="45.63453" lon="4.61591">
        <ele>601.44</ele>
        <time>2015-04-26T09:11:58Z</time>
      </trkpt>
      <trkpt lat="45.63452" lon="4.61591">
        <ele>601.44</ele>
        <time>2015-04-26T09:11:59Z</time>
      </trkpt>
      <trkpt lat="45.63451" lon="4.61591">
        <ele>601.44</ele>
        <time>2015-04-26T09:12:00Z</time>
      </trkpt>
      <trkpt lat="45.6345" lon="4.61592">
        <ele>601.44</ele>
        <time>2015-04-26T09:12:01Z</time>
      </trkpt>
      <trkpt lat="45.6344" lon="4.61593">
        <ele>602.88</ele>
        <time>2015-04-26T09:12:08Z</time>
      </trkpt>
      <trkpt lat="45.63439" lon="4.61592">
        <ele>602.88</ele>
        <time>2015-04-26T09:12:09Z</time>
      </trkpt>
      <trkpt lat="45.63437" lon="4.61592">
        <ele>603.36</ele>
        <time>2015-04-26T09:12:10Z</time>
      </trkpt>
      <trkpt lat="45.63417" lon="4.61587">
        <ele>606.73</ele>
        <time>2015-04-26T09:12:25Z</time>
      </trkpt>
      <trkpt lat="45.63413" lon="4.61586">
        <ele>607.21</ele>
        <time>2015-04-26T09:12:28Z</time>
      </trkpt>
      <trkpt lat="45.63412" lon="4.61585">
        <ele>607.69</ele>
        <time>2015-04-26T09:12:29Z</time>
      </trkpt>
      <trkpt lat="45.6341" lon="4.61585">
        <ele>607.69</ele>
        <time>2015-04-26T09:12:30Z</time>
      </trkpt>
      <trkpt lat="45.63409" lon="4.61584">
        <ele>608.17</ele>
        <time>2015-04-26T09:12:31Z</time>
      </trkpt>
      <trkpt lat="45.63408" lon="4.61583">
        <ele>608.17</ele>
        <time>2015-04-26T09:12:32Z</time>
      </trkpt>
      <trkpt lat="45.63407" lon="4.61582">
        <ele>608.65</ele>
        <time>2015-04-26T09:12:33Z</time>
      </trkpt>
      <trkpt lat="45.63406" lon="4.61582">
        <ele>608.65</ele>
        <time>2015-04-26T09:12:34Z</time>
      </trkpt>
      <trkpt lat="45.63405" lon="4.61581">
        <ele>608.65</ele>
        <time>2015-04-26T09:12:35Z</time>
      </trkpt>
      <trkpt lat="45.63403" lon="4.6158">
        <ele>609.13</ele>
        <time>2015-04-26T09:12:36Z</time>
      </trkpt>
      <trkpt lat="45.63402" lon="4.6158">
        <ele>609.13</ele>
        <time>2015-04-26T09:12:37Z</time>
      </trkpt>
      <trkpt lat="45.63401" lon="4.61579">
        <ele>609.61</ele>
        <time>2015-04-26T09:12:38Z</time>
      </trkpt>
      <trkpt lat="45.634" lon="4.61578">
        <ele>609.61</ele>
        <time>2015-04-26T09:12:39Z</time>
      </trkpt>
      <trkpt lat="45.63399" lon="4.61577">
        <ele>609.61</ele>
        <time>2015-04-26T09:12:40Z</time>
      </trkpt>
      <trkpt lat="45.63398" lon="4.61576">
        <ele>609.61</ele>
        <time>2015-04-26T09:12:41Z</time>
      </trkpt>
      <trkpt lat="45.63397" lon="4.61575">
        <ele>610.09</ele>
        <time>2015-04-26T09:12:42Z</time>
      </trkpt>
      <trkpt lat="45.63396" lon="4.61574">
        <ele>610.09</ele>
        <time>2015-04-26T09:12:43Z</time>
      </trkpt>
      <trkpt lat="45.63395" lon="4.61572">
        <ele>610.57</ele>
        <time>2015-04-26T09:12:44Z</time>
      </trkpt>
      <trkpt lat="45.63394" lon="4.61571">
        <ele>610.57</ele>
        <time>2015-04-26T09:12:45Z</time>
      </trkpt>
      <trkpt lat="45.63393" lon="4.6157">
        <ele>610.57</ele>
        <time>2015-04-26T09:12:46Z</time>
      </trkpt>
      <trkpt lat="45.63392" lon="4.61569">
        <ele>611.06</ele>
        <time>2015-04-26T09:12:47Z</time>
      </trkpt>
      <trkpt lat="45.63391" lon="4.61568">
        <ele>611.06</ele>
        <time>2015-04-26T09:12:48Z</time>
      </trkpt>
      <trkpt lat="45.6339" lon="4.61567">
        <ele>611.06</ele>
        <time>2015-04-26T09:12:49Z</time>
      </trkpt>
      <trkpt lat="45.63389" lon="4.61566">
        <ele>611.06</ele>
        <time>2015-04-26T09:12:50Z</time>
      </trkpt>
      <trkpt lat="45.63368" lon="4.61549">
        <ele>611.54</ele>
        <time>2015-04-26T09:13:04Z</time>
      </trkpt>
      <trkpt lat="45.63355" lon="4.61538">
        <ele>610.57</ele>
        <time>2015-04-26T09:13:08Z</time>
      </trkpt>
      <trkpt lat="45.63352" lon="4.61534">
        <ele>610.09</ele>
        <time>2015-04-26T09:13:09Z</time>
      </trkpt>
      <trkpt lat="45.63348" lon="4.6153">
        <ele>610.09</ele>
        <time>2015-04-26T09:13:10Z</time>
      </trkpt>
      <trkpt lat="45.63318" lon="4.61504">
        <ele>606.73</ele>
        <time>2015-04-26T09:13:16Z</time>
      </trkpt>
      <trkpt lat="45.63312" lon="4.61503">
        <ele>606.25</ele>
        <time>2015-04-26T09:13:17Z</time>
      </trkpt>
      <trkpt lat="45.633" lon="4.61503">
        <ele>605.29</ele>
        <time>2015-04-26T09:13:19Z</time>
      </trkpt>
      <trkpt lat="45.63294" lon="4.61506">
        <ele>605.29</ele>
        <time>2015-04-26T09:13:20Z</time>
      </trkpt>
      <trkpt lat="45.63289" lon="4.61509">
        <ele>604.81</ele>
        <time>2015-04-26T09:13:21Z</time>
      </trkpt>
      <trkpt lat="45.63285" lon="4.61513">
        <ele>604.33</ele>
        <time>2015-04-26T09:13:22Z</time>
      </trkpt>
      <trkpt lat="45.63282" lon="4.61517">
        <ele>603.85</ele>
        <time>2015-04-26T09:13:23Z</time>
      </trkpt>
      <trkpt lat="45.63276" lon="4.61526">
        <ele>602.4</ele>
        <time>2015-04-26T09:13:25Z</time>
      </trkpt>
      <trkpt lat="45.63268" lon="4.61537">
        <ele>600.48</ele>
        <time>2015-04-26T09:13:27Z</time>
      </trkpt>
      <trkpt lat="45.63263" lon="4.61543">
        <ele>600</ele>
        <time>2015-04-26T09:13:28Z</time>
      </trkpt>
      <trkpt lat="45.63258" lon="4.6155">
        <ele>599.04</ele>
        <time>2015-04-26T09:13:29Z</time>
      </trkpt>
      <trkpt lat="45.63236" lon="4.61585">
        <ele>594.23</ele>
        <time>2015-04-26T09:13:34Z</time>
      </trkpt>
      <trkpt lat="45.63204" lon="4.61641">
        <ele>587.5</ele>
        <time>2015-04-26T09:13:43Z</time>
      </trkpt>
      <trkpt lat="45.6319" lon="4.61655">
        <ele>586.06</ele>
        <time>2015-04-26T09:13:46Z</time>
      </trkpt>
      <trkpt lat="45.63185" lon="4.61658">
        <ele>585.58</ele>
        <time>2015-04-26T09:13:47Z</time>
      </trkpt>
      <trkpt lat="45.63178" lon="4.61661">
        <ele>585.1</ele>
        <time>2015-04-26T09:13:48Z</time>
      </trkpt>
      <trkpt lat="45.63172" lon="4.61662">
        <ele>584.62</ele>
        <time>2015-04-26T09:13:49Z</time>
      </trkpt>
      <trkpt lat="45.63167" lon="4.61662">
        <ele>583.66</ele>
        <time>2015-04-26T09:13:50Z</time>
      </trkpt>
      <trkpt lat="45.63162" lon="4.61663">
        <ele>583.18</ele>
        <time>2015-04-26T09:13:51Z</time>
      </trkpt>
      <trkpt lat="45.63158" lon="4.61665">
        <ele>582.22</ele>
        <time>2015-04-26T09:13:52Z</time>
      </trkpt>
      <trkpt lat="45.63156" lon="4.61669">
        <ele>581.73</ele>
        <time>2015-04-26T09:13:53Z</time>
      </trkpt>
      <trkpt lat="45.63154" lon="4.61675">
        <ele>581.25</ele>
        <time>2015-04-26T09:13:54Z</time>
      </trkpt>
      <trkpt lat="45.63154" lon="4.61683">
        <ele>580.29</ele>
        <time>2015-04-26T09:13:55Z</time>
      </trkpt>
      <trkpt lat="45.63152" lon="4.61691">
        <ele>579.81</ele>
        <time>2015-04-26T09:13:56Z</time>
      </trkpt>
      <trkpt lat="45.63151" lon="4.61699">
        <ele>578.85</ele>
        <time>2015-04-26T09:13:57Z</time>
      </trkpt>
      <trkpt lat="45.6315" lon="4.6173">
        <ele>575.97</ele>
        <time>2015-04-26T09:14:01Z</time>
      </trkpt>
      <trkpt lat="45.6315" lon="4.61739">
        <ele>575.01</ele>
        <time>2015-04-26T09:14:02Z</time>
      </trkpt>
      <trkpt lat="45.63151" lon="4.61746">
        <ele>574.04</ele>
        <time>2015-04-26T09:14:03Z</time>
      </trkpt>
      <trkpt lat="45.63152" lon="4.61753">
        <ele>573.56</ele>
        <time>2015-04-26T09:14:04Z</time>
      </trkpt>
      <trkpt lat="45.63154" lon="4.61759">
        <ele>572.6</ele>
        <time>2015-04-26T09:14:05Z</time>
      </trkpt>
      <trkpt lat="45.63155" lon="4.61765">
        <ele>572.12</ele>
        <time>2015-04-26T09:14:06Z</time>
      </trkpt>
      <trkpt lat="45.63157" lon="4.6177">
        <ele>571.16</ele>
        <time>2015-04-26T09:14:07Z</time>
      </trkpt>
      <trkpt lat="45.63158" lon="4.61775">
        <ele>570.68</ele>
        <time>2015-04-26T09:14:08Z</time>
      </trkpt>
      <trkpt lat="45.63157" lon="4.61778">
        <ele>570.2</ele>
        <time>2015-04-26T09:14:09Z</time>
      </trkpt>
      <trkpt lat="45.63155" lon="4.61781">
        <ele>569.72</ele>
        <time>2015-04-26T09:14:10Z</time>
      </trkpt>
      <trkpt lat="45.63151" lon="4.6178">
        <ele>569.24</ele>
        <time>2015-04-26T09:14:11Z</time>
      </trkpt>
      <trkpt lat="45.63149" lon="4.61777">
        <ele>569.24</ele>
        <time>2015-04-26T09:14:12Z</time>
      </trkpt>
      <trkpt lat="45.63146" lon="4.61775">
        <ele>568.76</ele>
        <time>2015-04-26T09:14:13Z</time>
      </trkpt>
      <trkpt lat="45.63144" lon="4.61773">
        <ele>568.76</ele>
        <time>2015-04-26T09:14:14Z</time>
      </trkpt>
      <trkpt lat="45.63136" lon="4.61765">
        <ele>569.24</ele>
        <time>2015-04-26T09:14:18Z</time>
      </trkpt>
      <trkpt lat="45.63127" lon="4.61735">
        <ele>570.68</ele>
        <time>2015-04-26T09:14:29Z</time>
      </trkpt>
      <trkpt lat="45.6312" lon="4.61723">
        <ele>570.2</ele>
        <time>2015-04-26T09:14:32Z</time>
      </trkpt>
      <trkpt lat="45.63116" lon="4.6172">
        <ele>570.2</ele>
        <time>2015-04-26T09:14:33Z</time>
      </trkpt>
      <trkpt lat="45.63111" lon="4.61716">
        <ele>569.72</ele>
        <time>2015-04-26T09:14:34Z</time>
      </trkpt>
      <trkpt lat="45.63108" lon="4.61711">
        <ele>569.72</ele>
        <time>2015-04-26T09:14:35Z</time>
      </trkpt>
      <trkpt lat="45.63104" lon="4.61705">
        <ele>569.24</ele>
        <time>2015-04-26T09:14:36Z</time>
      </trkpt>
      <trkpt lat="45.631" lon="4.61698">
        <ele>569.72</ele>
        <time>2015-04-26T09:14:37Z</time>
      </trkpt>
      <trkpt lat="45.63093" lon="4.61685">
        <ele>569.24</ele>
        <time>2015-04-26T09:14:39Z</time>
      </trkpt>
      <trkpt lat="45.63085" lon="4.61673">
        <ele>568.76</ele>
        <time>2015-04-26T09:14:41Z</time>
      </trkpt>
      <trkpt lat="45.63081" lon="4.61669">
        <ele>568.28</ele>
        <time>2015-04-26T09:14:42Z</time>
      </trkpt>
      <trkpt lat="45.63077" lon="4.61667">
        <ele>568.28</ele>
        <time>2015-04-26T09:14:43Z</time>
      </trkpt>
      <trkpt lat="45.63073" lon="4.61666">
        <ele>567.8</ele>
        <time>2015-04-26T09:14:44Z</time>
      </trkpt>
      <trkpt lat="45.63068" lon="4.61664">
        <ele>567.8</ele>
        <time>2015-04-26T09:14:45Z</time>
      </trkpt>
      <trkpt lat="45.63063" lon="4.61663">
        <ele>567.8</ele>
        <time>2015-04-26T09:14:46Z</time>
      </trkpt>
      <trkpt lat="45.63048" lon="4.61657">
        <ele>566.83</ele>
        <time>2015-04-26T09:14:49Z</time>
      </trkpt>
      <trkpt lat="45.63044" lon="4.61657">
        <ele>566.35</ele>
        <time>2015-04-26T09:14:50Z</time>
      </trkpt>
      <trkpt lat="45.63039" lon="4.61657">
        <ele>566.35</ele>
        <time>2015-04-26T09:14:51Z</time>
      </trkpt>
      <trkpt lat="45.63034" lon="4.61659">
        <ele>565.87</ele>
        <time>2015-04-26T09:14:52Z</time>
      </trkpt>
      <trkpt lat="45.6303" lon="4.61661">
        <ele>565.87</ele>
        <time>2015-04-26T09:14:53Z</time>
      </trkpt>
      <trkpt lat="45.63026" lon="4.61664">
        <ele>565.87</ele>
        <time>2015-04-26T09:14:54Z</time>
      </trkpt>
      <trkpt lat="45.63022" lon="4.61667">
        <ele>565.87</ele>
        <time>2015-04-26T09:14:55Z</time>
      </trkpt>
      <trkpt lat="45.63001" lon="4.61697">
        <ele>569.72</ele>
        <time>2015-04-26T09:15:05Z</time>
      </trkpt>
      <trkpt lat="45.62987" lon="4.61737">
        <ele>572.12</ele>
        <time>2015-04-26T09:15:16Z</time>
      </trkpt>
      <trkpt lat="45.62967" lon="4.6178">
        <ele>569.24</ele>
        <time>2015-04-26T09:15:28Z</time>
      </trkpt>
      <trkpt lat="45.62954" lon="4.61824">
        <ele>567.8</ele>
        <time>2015-04-26T09:15:42Z</time>
      </trkpt>
      <trkpt lat="45.62936" lon="4.61863">
        <ele>569.72</ele>
        <time>2015-04-26T09:15:56Z</time>
      </trkpt>
      <trkpt lat="45.6291" lon="4.61901">
        <ele>572.12</ele>
        <time>2015-04-26T09:16:13Z</time>
      </trkpt>
      <trkpt lat="45.62893" lon="4.61932">
        <ele>574.53</ele>
        <time>2015-04-26T09:16:28Z</time>
      </trkpt>
      <trkpt lat="45.6289" lon="4.61939">
        <ele>574.53</ele>
        <time>2015-04-26T09:16:31Z</time>
      </trkpt>
      <trkpt lat="45.62889" lon="4.61941">
        <ele>575.01</ele>
        <time>2015-04-26T09:16:32Z</time>
      </trkpt>
      <trkpt lat="45.62888" lon="4.61943">
        <ele>575.01</ele>
        <time>2015-04-26T09:16:33Z</time>
      </trkpt>
      <trkpt lat="45.62887" lon="4.61945">
        <ele>575.01</ele>
        <time>2015-04-26T09:16:34Z</time>
      </trkpt>
      <trkpt lat="45.62886" lon="4.61946">
        <ele>575.01</ele>
        <time>2015-04-26T09:16:35Z</time>
      </trkpt>
      <trkpt lat="45.62884" lon="4.61948">
        <ele>575.49</ele>
        <time>2015-04-26T09:16:36Z</time>
      </trkpt>
      <trkpt lat="45.62883" lon="4.61949">
        <ele>575.01</ele>
        <time>2015-04-26T09:16:37Z</time>
      </trkpt>
      <trkpt lat="45.62882" lon="4.6195">
        <ele>575.01</ele>
        <time>2015-04-26T09:16:38Z</time>
      </trkpt>
      <trkpt lat="45.62881" lon="4.61952">
        <ele>575.01</ele>
        <time>2015-04-26T09:16:39Z</time>
      </trkpt>
      <trkpt lat="45.62876" lon="4.61955">
        <ele>575.49</ele>
        <time>2015-04-26T09:16:43Z</time>
      </trkpt>
      <trkpt lat="45.62872" lon="4.61957">
        <ele>575.01</ele>
        <time>2015-04-26T09:16:56Z</time>
      </trkpt>
      <trkpt lat="45.62863" lon="4.61965">
        <ele>576.45</ele>
        <time>2015-04-26T09:17:09Z</time>
      </trkpt>
      <trkpt lat="45.6285" lon="4.61972">
        <ele>579.81</ele>
        <time>2015-04-26T09:17:25Z</time>
      </trkpt>
      <trkpt lat="45.62837" lon="4.61979">
        <ele>582.22</ele>
        <time>2015-04-26T09:17:42Z</time>
      </trkpt>
      <trkpt lat="45.6282" lon="4.61979">
        <ele>585.58</ele>
        <time>2015-04-26T09:18:02Z</time>
      </trkpt>
      <trkpt lat="45.62808" lon="4.6197">
        <ele>589.43</ele>
        <time>2015-04-26T09:18:19Z</time>
      </trkpt>
      <trkpt lat="45.62803" lon="4.61966">
        <ele>590.87</ele>
        <time>2015-04-26T09:18:34Z</time>
      </trkpt>
      <trkpt lat="45.62798" lon="4.61961">
        <ele>593.27</ele>
        <time>2015-04-26T09:18:54Z</time>
      </trkpt>
      <trkpt lat="45.62787" lon="4.61951">
        <ele>595.67</ele>
        <time>2015-04-26T09:19:11Z</time>
      </trkpt>
      <trkpt lat="45.62786" lon="4.61951">
        <ele>596.15</ele>
        <time>2015-04-26T09:19:12Z</time>
      </trkpt>
      <trkpt lat="45.6277" lon="4.61938">
        <ele>601.44</ele>
        <time>2015-04-26T09:19:33Z</time>
      </trkpt>
      <trkpt lat="45.62753" lon="4.61921">
        <ele>606.25</ele>
        <time>2015-04-26T09:19:53Z</time>
      </trkpt>
      <trkpt lat="45.62746" lon="4.61916">
        <ele>607.69</ele>
        <time>2015-04-26T09:20:00Z</time>
      </trkpt>
      <trkpt lat="45.62746" lon="4.61914">
        <ele>608.17</ele>
        <time>2015-04-26T09:20:01Z</time>
      </trkpt>
      <trkpt lat="45.62728" lon="4.61899">
        <ele>610.09</ele>
        <time>2015-04-26T09:20:20Z</time>
      </trkpt>
      <trkpt lat="45.6272" lon="4.61885">
        <ele>610.57</ele>
        <time>2015-04-26T09:20:38Z</time>
      </trkpt>
      <trkpt lat="45.6272" lon="4.61883">
        <ele>609.61</ele>
        <time>2015-04-26T09:20:51Z</time>
      </trkpt>
      <trkpt lat="45.6271" lon="4.6186">
        <ele>610.09</ele>
        <time>2015-04-26T09:21:08Z</time>
      </trkpt>
      <trkpt lat="45.62702" lon="4.61838">
        <ele>611.06</ele>
        <time>2015-04-26T09:21:23Z</time>
      </trkpt>
      <trkpt lat="45.62699" lon="4.61827">
        <ele>612.02</ele>
        <time>2015-04-26T09:21:38Z</time>
      </trkpt>
      <trkpt lat="45.62697" lon="4.61821">
        <ele>613.46</ele>
        <time>2015-04-26T09:21:53Z</time>
      </trkpt>
      <trkpt lat="45.62688" lon="4.61787">
        <ele>615.86</ele>
        <time>2015-04-26T09:22:07Z</time>
      </trkpt>
      <trkpt lat="45.62677" lon="4.61753">
        <ele>620.19</ele>
        <time>2015-04-26T09:22:19Z</time>
      </trkpt>
      <trkpt lat="45.6266" lon="4.61712">
        <ele>621.15</ele>
        <time>2015-04-26T09:22:32Z</time>
      </trkpt>
      <trkpt lat="45.62638" lon="4.61662">
        <ele>619.23</ele>
        <time>2015-04-26T09:22:45Z</time>
      </trkpt>
      <trkpt lat="45.62636" lon="4.61656">
        <ele>619.23</ele>
        <time>2015-04-26T09:22:46Z</time>
      </trkpt>
      <trkpt lat="45.62635" lon="4.6165">
        <ele>619.23</ele>
        <time>2015-04-26T09:22:47Z</time>
      </trkpt>
      <trkpt lat="45.62635" lon="4.61644">
        <ele>619.23</ele>
        <time>2015-04-26T09:22:48Z</time>
      </trkpt>
      <trkpt lat="45.62635" lon="4.6164">
        <ele>619.23</ele>
        <time>2015-04-26T09:22:49Z</time>
      </trkpt>
      <trkpt lat="45.62635" lon="4.61636">
        <ele>619.23</ele>
        <time>2015-04-26T09:22:50Z</time>
      </trkpt>
      <trkpt lat="45.62635" lon="4.61633">
        <ele>618.75</ele>
        <time>2015-04-26T09:22:51Z</time>
      </trkpt>
      <trkpt lat="45.62636" lon="4.6163">
        <ele>618.75</ele>
        <time>2015-04-26T09:22:52Z</time>
      </trkpt>
      <trkpt lat="45.62636" lon="4.61627">
        <ele>618.75</ele>
        <time>2015-04-26T09:22:53Z</time>
      </trkpt>
      <trkpt lat="45.62636" lon="4.61625">
        <ele>618.26</ele>
        <time>2015-04-26T09:22:54Z</time>
      </trkpt>
      <trkpt lat="45.62637" lon="4.61622">
        <ele>618.26</ele>
        <time>2015-04-26T09:22:55Z</time>
      </trkpt>
      <trkpt lat="45.62632" lon="4.61591">
        <ele>616.34</ele>
        <time>2015-04-26T09:23:08Z</time>
      </trkpt>
      <trkpt lat="45.62626" lon="4.61584">
        <ele>617.3</ele>
        <time>2015-04-26T09:23:12Z</time>
      </trkpt>
      <trkpt lat="45.62624" lon="4.61583">
        <ele>617.3</ele>
        <time>2015-04-26T09:23:13Z</time>
      </trkpt>
      <trkpt lat="45.62623" lon="4.61581">
        <ele>617.78</ele>
        <time>2015-04-26T09:23:14Z</time>
      </trkpt>
      <trkpt lat="45.62599" lon="4.6155">
        <ele>618.26</ele>
        <time>2015-04-26T09:23:25Z</time>
      </trkpt>
      <trkpt lat="45.6256" lon="4.61534">
        <ele>619.23</ele>
        <time>2015-04-26T09:23:38Z</time>
      </trkpt>
      <trkpt lat="45.62527" lon="4.6154">
        <ele>619.23</ele>
        <time>2015-04-26T09:23:51Z</time>
      </trkpt>
      <trkpt lat="45.62473" lon="4.61569">
        <ele>615.38</ele>
        <time>2015-04-26T09:24:02Z</time>
      </trkpt>
      <trkpt lat="45.6245" lon="4.61579">
        <ele>613.94</ele>
        <time>2015-04-26T09:24:06Z</time>
      </trkpt>
      <trkpt lat="45.62435" lon="4.61591">
        <ele>613.46</ele>
        <time>2015-04-26T09:24:09Z</time>
      </trkpt>
      <trkpt lat="45.62407" lon="4.61596">
        <ele>614.9</ele>
        <time>2015-04-26T09:24:18Z</time>
      </trkpt>
      <trkpt lat="45.62371" lon="4.61591">
        <ele>619.23</ele>
        <time>2015-04-26T09:24:32Z</time>
      </trkpt>
      <trkpt lat="45.62356" lon="4.61584">
        <ele>621.15</ele>
        <time>2015-04-26T09:24:39Z</time>
      </trkpt>
      <trkpt lat="45.62354" lon="4.61583">
        <ele>621.63</ele>
        <time>2015-04-26T09:24:40Z</time>
      </trkpt>
      <trkpt lat="45.62353" lon="4.61582">
        <ele>621.63</ele>
        <time>2015-04-26T09:24:41Z</time>
      </trkpt>
      <trkpt lat="45.62351" lon="4.6158">
        <ele>622.11</ele>
        <time>2015-04-26T09:24:42Z</time>
      </trkpt>
      <trkpt lat="45.62349" lon="4.61579">
        <ele>622.11</ele>
        <time>2015-04-26T09:24:43Z</time>
      </trkpt>
      <trkpt lat="45.62347" lon="4.61578">
        <ele>622.59</ele>
        <time>2015-04-26T09:24:44Z</time>
      </trkpt>
      <trkpt lat="45.62345" lon="4.61577">
        <ele>623.07</ele>
        <time>2015-04-26T09:24:45Z</time>
      </trkpt>
      <trkpt lat="45.62344" lon="4.61576">
        <ele>623.55</ele>
        <time>2015-04-26T09:24:46Z</time>
      </trkpt>
      <trkpt lat="45.62321" lon="4.61552">
        <ele>626.92</ele>
        <time>2015-04-26T09:25:02Z</time>
      </trkpt>
      <trkpt lat="45.62316" lon="4.61533">
        <ele>629.32</ele>
        <time>2015-04-26T09:25:16Z</time>
      </trkpt>
      <trkpt lat="45.62308" lon="4.61514">
        <ele>632.68</ele>
        <time>2015-04-26T09:25:33Z</time>
      </trkpt>
      <trkpt lat="45.62297" lon="4.61497">
        <ele>635.09</ele>
        <time>2015-04-26T09:25:50Z</time>
      </trkpt>
      <trkpt lat="45.62286" lon="4.61482">
        <ele>637.49</ele>
        <time>2015-04-26T09:26:08Z</time>
      </trkpt>
      <trkpt lat="45.62283" lon="4.61482">
        <ele>638.93</ele>
        <time>2015-04-26T09:26:26Z</time>
      </trkpt>
      <trkpt lat="45.62283" lon="4.6148">
        <ele>639.41</ele>
        <time>2015-04-26T09:26:27Z</time>
      </trkpt>
      <trkpt lat="45.62283" lon="4.61478">
        <ele>639.41</ele>
        <time>2015-04-26T09:26:28Z</time>
      </trkpt>
      <trkpt lat="45.62283" lon="4.61474">
        <ele>638.93</ele>
        <time>2015-04-26T09:26:32Z</time>
      </trkpt>
      <trkpt lat="45.62283" lon="4.61472">
        <ele>638.93</ele>
        <time>2015-04-26T09:26:33Z</time>
      </trkpt>
      <trkpt lat="45.62282" lon="4.61471">
        <ele>638.93</ele>
        <time>2015-04-26T09:26:34Z</time>
      </trkpt>
      <trkpt lat="45.62281" lon="4.6147">
        <ele>639.41</ele>
        <time>2015-04-26T09:26:35Z</time>
      </trkpt>
      <trkpt lat="45.6228" lon="4.61469">
        <ele>639.41</ele>
        <time>2015-04-26T09:26:36Z</time>
      </trkpt>
      <trkpt lat="45.6228" lon="4.61468">
        <ele>639.41</ele>
        <time>2015-04-26T09:26:37Z</time>
      </trkpt>
      <trkpt lat="45.62279" lon="4.61467">
        <ele>639.41</ele>
        <time>2015-04-26T09:26:38Z</time>
      </trkpt>
      <trkpt lat="45.62278" lon="4.61466">
        <ele>639.89</ele>
        <time>2015-04-26T09:26:39Z</time>
      </trkpt>
      <trkpt lat="45.62268" lon="4.6145">
        <ele>641.34</ele>
        <time>2015-04-26T09:26:54Z</time>
      </trkpt>
      <trkpt lat="45.62257" lon="4.61438">
        <ele>644.7</ele>
        <time>2015-04-26T09:27:09Z</time>
      </trkpt>
      <trkpt lat="45.62246" lon="4.61425">
        <ele>645.18</ele>
        <time>2015-04-26T09:27:23Z</time>
      </trkpt>
      <trkpt lat="45.6224" lon="4.61422">
        <ele>645.66</ele>
        <time>2015-04-26T09:27:29Z</time>
      </trkpt>
      <trkpt lat="45.62239" lon="4.61422">
        <ele>646.14</ele>
        <time>2015-04-26T09:27:30Z</time>
      </trkpt>
      <trkpt lat="45.62237" lon="4.61421">
        <ele>646.14</ele>
        <time>2015-04-26T09:27:32Z</time>
      </trkpt>
      <trkpt lat="45.62236" lon="4.6142">
        <ele>646.14</ele>
        <time>2015-04-26T09:27:33Z</time>
      </trkpt>
      <trkpt lat="45.62235" lon="4.61419">
        <ele>646.62</ele>
        <time>2015-04-26T09:27:34Z</time>
      </trkpt>
      <trkpt lat="45.62234" lon="4.61418">
        <ele>646.62</ele>
        <time>2015-04-26T09:27:35Z</time>
      </trkpt>
      <trkpt lat="45.62233" lon="4.61418">
        <ele>646.62</ele>
        <time>2015-04-26T09:27:36Z</time>
      </trkpt>
      <trkpt lat="45.62232" lon="4.61417">
        <ele>646.62</ele>
        <time>2015-04-26T09:27:37Z</time>
      </trkpt>
      <trkpt lat="45.62216" lon="4.61409">
        <ele>649.03</ele>
        <time>2015-04-26T09:27:51Z</time>
      </trkpt>
      <trkpt lat="45.62198" lon="4.61393">
        <ele>650.47</ele>
        <time>2015-04-26T09:28:09Z</time>
      </trkpt>
      <trkpt lat="45.62187" lon="4.61376">
        <ele>651.43</ele>
        <time>2015-04-26T09:28:26Z</time>
      </trkpt>
      <trkpt lat="45.6218" lon="4.61364">
        <ele>652.87</ele>
        <time>2015-04-26T09:28:38Z</time>
      </trkpt>
      <trkpt lat="45.62178" lon="4.61359">
        <ele>654.31</ele>
        <time>2015-04-26T09:28:53Z</time>
      </trkpt>
      <trkpt lat="45.62178" lon="4.61358">
        <ele>652.87</ele>
        <time>2015-04-26T09:29:25Z</time>
      </trkpt>
      <trkpt lat="45.62181" lon="4.61358">
        <ele>654.31</ele>
        <time>2015-04-26T09:30:00Z</time>
      </trkpt>
      <trkpt lat="45.62179" lon="4.61361">
        <ele>655.76</ele>
        <time>2015-04-26T09:30:31Z</time>
      </trkpt>
      <trkpt lat="45.62181" lon="4.61361">
        <ele>654.8</ele>
        <time>2015-04-26T09:31:06Z</time>
      </trkpt>
      <trkpt lat="45.62179" lon="4.61363">
        <ele>650.95</ele>
        <time>2015-04-26T09:31:31Z</time>
      </trkpt>
      <trkpt lat="45.62174" lon="4.6137">
        <ele>649.99</ele>
        <time>2015-04-26T09:31:57Z</time>
      </trkpt>
      <trkpt lat="45.62177" lon="4.61368">
        <ele>648.07</ele>
        <time>2015-04-26T09:32:25Z</time>
      </trkpt>
      <trkpt lat="45.62178" lon="4.61357">
        <ele>649.03</ele>
        <time>2015-04-26T09:32:53Z</time>
      </trkpt>
      <trkpt lat="45.62177" lon="4.61355">
        <ele>646.14</ele>
        <time>2015-04-26T09:33:19Z</time>
      </trkpt>
      <trkpt lat="45.62178" lon="4.61348">
        <ele>641.82</ele>
        <time>2015-04-26T09:33:45Z</time>
      </trkpt>
      <trkpt lat="45.62175" lon="4.61348">
        <ele>642.78</ele>
        <time>2015-04-26T09:33:53Z</time>
      </trkpt>
      <trkpt lat="45.62173" lon="4.61347">
        <ele>643.26</ele>
        <time>2015-04-26T09:33:54Z</time>
      </trkpt>
      <trkpt lat="45.62172" lon="4.61347">
        <ele>643.26</ele>
        <time>2015-04-26T09:33:55Z</time>
      </trkpt>
      <trkpt lat="45.62171" lon="4.61347">
        <ele>643.74</ele>
        <time>2015-04-26T09:33:56Z</time>
      </trkpt>
      <trkpt lat="45.62169" lon="4.61347">
        <ele>643.74</ele>
        <time>2015-04-26T09:33:57Z</time>
      </trkpt>
      <trkpt lat="45.62167" lon="4.61347">
        <ele>644.22</ele>
        <time>2015-04-26T09:33:58Z</time>
      </trkpt>
      <trkpt lat="45.62166" lon="4.61347">
        <ele>644.7</ele>
        <time>2015-04-26T09:33:59Z</time>
      </trkpt>
      <trkpt lat="45.62154" lon="4.61338">
        <ele>643.26</ele>
        <time>2015-04-26T09:34:11Z</time>
      </trkpt>
      <trkpt lat="45.62153" lon="4.61337">
        <ele>643.26</ele>
        <time>2015-04-26T09:34:12Z</time>
      </trkpt>
      <trkpt lat="45.62152" lon="4.61336">
        <ele>643.26</ele>
        <time>2015-04-26T09:34:13Z</time>
      </trkpt>
      <trkpt lat="45.62151" lon="4.61335">
        <ele>643.26</ele>
        <time>2015-04-26T09:34:14Z</time>
      </trkpt>
      <trkpt lat="45.6215" lon="4.61333">
        <ele>643.26</ele>
        <time>2015-04-26T09:34:15Z</time>
      </trkpt>
      <trkpt lat="45.62148" lon="4.61332">
        <ele>643.26</ele>
        <time>2015-04-26T09:34:16Z</time>
      </trkpt>
      <trkpt lat="45.62147" lon="4.61331">
        <ele>643.26</ele>
        <time>2015-04-26T09:34:17Z</time>
      </trkpt>
      <trkpt lat="45.62146" lon="4.6133">
        <ele>643.26</ele>
        <time>2015-04-26T09:34:18Z</time>
      </trkpt>
      <trkpt lat="45.62145" lon="4.61329">
        <ele>643.74</ele>
        <time>2015-04-26T09:34:19Z</time>
      </trkpt>
      <trkpt lat="45.62143" lon="4.61328">
        <ele>643.26</ele>
        <time>2015-04-26T09:34:20Z</time>
      </trkpt>
      <trkpt lat="45.62142" lon="4.61327">
        <ele>643.26</ele>
        <time>2015-04-26T09:34:21Z</time>
      </trkpt>
      <trkpt lat="45.62141" lon="4.61325">
        <ele>643.26</ele>
        <time>2015-04-26T09:34:22Z</time>
      </trkpt>
      <trkpt lat="45.62131" lon="4.6131">
        <ele>643.74</ele>
        <time>2015-04-26T09:34:33Z</time>
      </trkpt>
      <trkpt lat="45.6213" lon="4.61308">
        <ele>643.74</ele>
        <time>2015-04-26T09:34:34Z</time>
      </trkpt>
      <trkpt lat="45.62109" lon="4.6129">
        <ele>649.51</ele>
        <time>2015-04-26T09:34:49Z</time>
      </trkpt>
      <trkpt lat="45.62107" lon="4.61288">
        <ele>649.51</ele>
        <time>2015-04-26T09:34:50Z</time>
      </trkpt>
      <trkpt lat="45.62106" lon="4.61287">
        <ele>649.51</ele>
        <time>2015-04-26T09:34:51Z</time>
      </trkpt>
      <trkpt lat="45.62105" lon="4.61286">
        <ele>649.03</ele>
        <time>2015-04-26T09:34:52Z</time>
      </trkpt>
      <trkpt lat="45.62105" lon="4.61284">
        <ele>649.03</ele>
        <time>2015-04-26T09:34:53Z</time>
      </trkpt>
      <trkpt lat="45.62104" lon="4.61282">
        <ele>648.55</ele>
        <time>2015-04-26T09:34:54Z</time>
      </trkpt>
      <trkpt lat="45.62102" lon="4.61281">
        <ele>648.55</ele>
        <time>2015-04-26T09:34:55Z</time>
      </trkpt>
      <trkpt lat="45.62101" lon="4.6128">
        <ele>648.07</ele>
        <time>2015-04-26T09:34:56Z</time>
      </trkpt>
      <trkpt lat="45.62099" lon="4.61279">
        <ele>648.07</ele>
        <time>2015-04-26T09:34:57Z</time>
      </trkpt>
      <trkpt lat="45.62098" lon="4.61278">
        <ele>648.07</ele>
        <time>2015-04-26T09:34:58Z</time>
      </trkpt>
      <trkpt lat="45.62097" lon="4.61276">
        <ele>647.59</ele>
        <time>2015-04-26T09:34:59Z</time>
      </trkpt>
      <trkpt lat="45.62096" lon="4.61275">
        <ele>647.59</ele>
        <time>2015-04-26T09:35:00Z</time>
      </trkpt>
      <trkpt lat="45.62095" lon="4.61274">
        <ele>647.59</ele>
        <time>2015-04-26T09:35:01Z</time>
      </trkpt>
      <trkpt lat="45.62094" lon="4.61273">
        <ele>647.59</ele>
        <time>2015-04-26T09:35:02Z</time>
      </trkpt>
      <trkpt lat="45.62091" lon="4.6127">
        <ele>647.1</ele>
        <time>2015-04-26T09:35:05Z</time>
      </trkpt>
      <trkpt lat="45.6208" lon="4.61258">
        <ele>648.07</ele>
        <time>2015-04-26T09:35:19Z</time>
      </trkpt>
      <trkpt lat="45.62073" lon="4.61249">
        <ele>649.03</ele>
        <time>2015-04-26T09:35:29Z</time>
      </trkpt>
      <trkpt lat="45.6207" lon="4.61246">
        <ele>651.43</ele>
        <time>2015-04-26T09:35:41Z</time>
      </trkpt>
      <trkpt lat="45.62062" lon="4.61243">
        <ele>654.31</ele>
        <time>2015-04-26T09:35:53Z</time>
      </trkpt>
      <trkpt lat="45.62055" lon="4.61233">
        <ele>659.12</ele>
        <time>2015-04-26T09:36:07Z</time>
      </trkpt>
      <trkpt lat="45.62044" lon="4.61228">
        <ele>664.41</ele>
        <time>2015-04-26T09:36:22Z</time>
      </trkpt>
      <trkpt lat="45.62038" lon="4.6122">
        <ele>665.85</ele>
        <time>2015-04-26T09:36:36Z</time>
      </trkpt>
      <trkpt lat="45.62031" lon="4.61212">
        <ele>668.25</ele>
        <time>2015-04-26T09:36:49Z</time>
      </trkpt>
      <trkpt lat="45.62023" lon="4.61198">
        <ele>669.22</ele>
        <time>2015-04-26T09:37:01Z</time>
      </trkpt>
      <trkpt lat="45.62022" lon="4.61197">
        <ele>669.7</ele>
        <time>2015-04-26T09:37:02Z</time>
      </trkpt>
      <trkpt lat="45.62013" lon="4.61178">
        <ele>674.5</ele>
        <time>2015-04-26T09:37:17Z</time>
      </trkpt>
      <trkpt lat="45.62008" lon="4.6117">
        <ele>676.42</ele>
        <time>2015-04-26T09:37:29Z</time>
      </trkpt>
      <trkpt lat="45.62" lon="4.61157">
        <ele>678.83</ele>
        <time>2015-04-26T09:37:44Z</time>
      </trkpt>
      <trkpt lat="45.61995" lon="4.61142">
        <ele>683.15</ele>
        <time>2015-04-26T09:37:57Z</time>
      </trkpt>
      <trkpt lat="45.61994" lon="4.61123">
        <ele>689.4</ele>
        <time>2015-04-26T09:38:13Z</time>
      </trkpt>
      <trkpt lat="45.61995" lon="4.61111">
        <ele>689.4</ele>
        <time>2015-04-26T09:38:25Z</time>
      </trkpt>
      <trkpt lat="45.61996" lon="4.61105">
        <ele>687.48</ele>
        <time>2015-04-26T09:38:43Z</time>
      </trkpt>
      <trkpt lat="45.61999" lon="4.61094">
        <ele>688.92</ele>
        <time>2015-04-26T09:38:57Z</time>
      </trkpt>
      <trkpt lat="45.62003" lon="4.61082">
        <ele>693.25</ele>
        <time>2015-04-26T09:39:11Z</time>
      </trkpt>
      <trkpt lat="45.62005" lon="4.61073">
        <ele>692.29</ele>
        <time>2015-04-26T09:39:24Z</time>
      </trkpt>
      <trkpt lat="45.62007" lon="4.61059">
        <ele>695.17</ele>
        <time>2015-04-26T09:39:37Z</time>
      </trkpt>
      <trkpt lat="45.6201" lon="4.61046">
        <ele>698.05</ele>
        <time>2015-04-26T09:39:52Z</time>
      </trkpt>
      <trkpt lat="45.62014" lon="4.61034">
        <ele>699.02</ele>
        <time>2015-04-26T09:40:08Z</time>
      </trkpt>
      <trkpt lat="45.62014" lon="4.61027">
        <ele>700.94</ele>
        <time>2015-04-26T09:40:13Z</time>
      </trkpt>
      <trkpt lat="45.62014" lon="4.61025">
        <ele>700.46</ele>
        <time>2015-04-26T09:40:14Z</time>
      </trkpt>
      <trkpt lat="45.62017" lon="4.61006">
        <ele>702.38</ele>
        <time>2015-04-26T09:40:25Z</time>
      </trkpt>
      <trkpt lat="45.62024" lon="4.60987">
        <ele>706.23</ele>
        <time>2015-04-26T09:40:38Z</time>
      </trkpt>
      <trkpt lat="45.62032" lon="4.60966">
        <ele>709.59</ele>
        <time>2015-04-26T09:40:51Z</time>
      </trkpt>
      <trkpt lat="45.62039" lon="4.60947">
        <ele>714.4</ele>
        <time>2015-04-26T09:41:05Z</time>
      </trkpt>
      <trkpt lat="45.62046" lon="4.60935">
        <ele>715.36</ele>
        <time>2015-04-26T09:41:19Z</time>
      </trkpt>
      <trkpt lat="45.62051" lon="4.60916">
        <ele>713.44</ele>
        <time>2015-04-26T09:41:33Z</time>
      </trkpt>
      <trkpt lat="45.62054" lon="4.60914">
        <ele>714.4</ele>
        <time>2015-04-26T09:41:49Z</time>
      </trkpt>
      <trkpt lat="45.62051" lon="4.60913">
        <ele>717.28</ele>
        <time>2015-04-26T09:42:08Z</time>
      </trkpt>
      <trkpt lat="45.62051" lon="4.6091">
        <ele>717.28</ele>
        <time>2015-04-26T09:42:10Z</time>
      </trkpt>
      <trkpt lat="45.6205" lon="4.60907">
        <ele>717.28</ele>
        <time>2015-04-26T09:42:11Z</time>
      </trkpt>
      <trkpt lat="45.62049" lon="4.60905">
        <ele>717.28</ele>
        <time>2015-04-26T09:42:12Z</time>
      </trkpt>
      <trkpt lat="45.62049" lon="4.60902">
        <ele>717.28</ele>
        <time>2015-04-26T09:42:13Z</time>
      </trkpt>
      <trkpt lat="45.62048" lon="4.60899">
        <ele>717.76</ele>
        <time>2015-04-26T09:42:14Z</time>
      </trkpt>
      <trkpt lat="45.62047" lon="4.60898">
        <ele>718.24</ele>
        <time>2015-04-26T09:42:15Z</time>
      </trkpt>
      <trkpt lat="45.62042" lon="4.60891">
        <ele>719.2</ele>
        <time>2015-04-26T09:42:18Z</time>
      </trkpt>
      <trkpt lat="45.6204" lon="4.60891">
        <ele>719.68</ele>
        <time>2015-04-26T09:42:19Z</time>
      </trkpt>
      <trkpt lat="45.62038" lon="4.6089">
        <ele>720.16</ele>
        <time>2015-04-26T09:42:20Z</time>
      </trkpt>
      <trkpt lat="45.62016" lon="4.60884">
        <ele>718.24</ele>
        <time>2015-04-26T09:42:31Z</time>
      </trkpt>
      <trkpt lat="45.61997" lon="4.6089">
        <ele>717.28</ele>
        <time>2015-04-26T09:42:40Z</time>
      </trkpt>
      <trkpt lat="45.61982" lon="4.60899">
        <ele>716.8</ele>
        <time>2015-04-26T09:42:46Z</time>
      </trkpt>
      <trkpt lat="45.61979" lon="4.60901">
        <ele>716.32</ele>
        <time>2015-04-26T09:42:47Z</time>
      </trkpt>
      <trkpt lat="45.61976" lon="4.60902">
        <ele>715.84</ele>
        <time>2015-04-26T09:42:48Z</time>
      </trkpt>
      <trkpt lat="45.61972" lon="4.60904">
        <ele>715.36</ele>
        <time>2015-04-26T09:42:49Z</time>
      </trkpt>
      <trkpt lat="45.61969" lon="4.60905">
        <ele>715.36</ele>
        <time>2015-04-26T09:42:50Z</time>
      </trkpt>
      <trkpt lat="45.61967" lon="4.60905">
        <ele>714.88</ele>
        <time>2015-04-26T09:42:51Z</time>
      </trkpt>
      <trkpt lat="45.61963" lon="4.60907">
        <ele>714.4</ele>
        <time>2015-04-26T09:42:52Z</time>
      </trkpt>
      <trkpt lat="45.61926" lon="4.60913">
        <ele>711.99</ele>
        <time>2015-04-26T09:43:02Z</time>
      </trkpt>
      <trkpt lat="45.61923" lon="4.60915">
        <ele>711.99</ele>
        <time>2015-04-26T09:43:03Z</time>
      </trkpt>
      <trkpt lat="45.61892" lon="4.60942">
        <ele>709.11</ele>
        <time>2015-04-26T09:43:12Z</time>
      </trkpt>
      <trkpt lat="45.61861" lon="4.6096">
        <ele>706.23</ele>
        <time>2015-04-26T09:43:23Z</time>
      </trkpt>
      <trkpt lat="45.61838" lon="4.60961">
        <ele>703.34</ele>
        <time>2015-04-26T09:43:34Z</time>
      </trkpt>
      <trkpt lat="45.61813" lon="4.6096">
        <ele>699.98</ele>
        <time>2015-04-26T09:43:47Z</time>
      </trkpt>
      <trkpt lat="45.61806" lon="4.60959">
        <ele>699.5</ele>
        <time>2015-04-26T09:43:50Z</time>
      </trkpt>
      <trkpt lat="45.61804" lon="4.60959">
        <ele>699.5</ele>
        <time>2015-04-26T09:43:51Z</time>
      </trkpt>
      <trkpt lat="45.61801" lon="4.60959">
        <ele>699.5</ele>
        <time>2015-04-26T09:43:52Z</time>
      </trkpt>
      <trkpt lat="45.61776" lon="4.6096">
        <ele>701.42</ele>
        <time>2015-04-26T09:43:59Z</time>
      </trkpt>
      <trkpt lat="45.6177" lon="4.60961">
        <ele>701.9</ele>
        <time>2015-04-26T09:44:00Z</time>
      </trkpt>
      <trkpt lat="45.61765" lon="4.60961">
        <ele>702.38</ele>
        <time>2015-04-26T09:44:01Z</time>
      </trkpt>
      <trkpt lat="45.6176" lon="4.60963">
        <ele>702.86</ele>
        <time>2015-04-26T09:44:02Z</time>
      </trkpt>
      <trkpt lat="45.61756" lon="4.60966">
        <ele>703.34</ele>
        <time>2015-04-26T09:44:03Z</time>
      </trkpt>
      <trkpt lat="45.61752" lon="4.6097">
        <ele>704.3</ele>
        <time>2015-04-26T09:44:04Z</time>
      </trkpt>
      <trkpt lat="45.6172" lon="4.61">
        <ele>708.15</ele>
        <time>2015-04-26T09:44:11Z</time>
      </trkpt>
      <trkpt lat="45.61715" lon="4.61004">
        <ele>708.63</ele>
        <time>2015-04-26T09:44:12Z</time>
      </trkpt>
      <trkpt lat="45.61698" lon="4.61018">
        <ele>711.51</ele>
        <time>2015-04-26T09:44:16Z</time>
      </trkpt>
      <trkpt lat="45.61695" lon="4.61022">
        <ele>711.99</ele>
        <time>2015-04-26T09:44:17Z</time>
      </trkpt>
      <trkpt lat="45.61665" lon="4.6106">
        <ele>717.28</ele>
        <time>2015-04-26T09:44:26Z</time>
      </trkpt>
      <trkpt lat="45.61656" lon="4.61079">
        <ele>718.72</ele>
        <time>2015-04-26T09:44:29Z</time>
      </trkpt>
      <trkpt lat="45.61651" lon="4.61087">
        <ele>719.2</ele>
        <time>2015-04-26T09:44:30Z</time>
      </trkpt>
      <trkpt lat="45.61643" lon="4.61105">
        <ele>719.68</ele>
        <time>2015-04-26T09:44:32Z</time>
      </trkpt>
      <trkpt lat="45.6164" lon="4.61114">
        <ele>720.16</ele>
        <time>2015-04-26T09:44:33Z</time>
      </trkpt>
      <trkpt lat="45.6162" lon="4.61183">
        <ele>718.72</ele>
        <time>2015-04-26T09:44:41Z</time>
      </trkpt>
      <trkpt lat="45.61595" lon="4.61242">
        <ele>715.84</ele>
        <time>2015-04-26T09:44:49Z</time>
      </trkpt>
      <trkpt lat="45.61594" lon="4.61248">
        <ele>715.84</ele>
        <time>2015-04-26T09:44:50Z</time>
      </trkpt>
      <trkpt lat="45.61592" lon="4.61263">
        <ele>714.88</ele>
        <time>2015-04-26T09:44:52Z</time>
      </trkpt>
      <trkpt lat="45.61588" lon="4.61272">
        <ele>714.88</ele>
        <time>2015-04-26T09:44:53Z</time>
      </trkpt>
      <trkpt lat="45.61585" lon="4.6128">
        <ele>714.4</ele>
        <time>2015-04-26T09:44:54Z</time>
      </trkpt>
      <trkpt lat="45.61582" lon="4.61289">
        <ele>714.4</ele>
        <time>2015-04-26T09:44:55Z</time>
      </trkpt>
      <trkpt lat="45.61579" lon="4.61296">
        <ele>714.4</ele>
        <time>2015-04-26T09:44:56Z</time>
      </trkpt>
      <trkpt lat="45.61573" lon="4.61312">
        <ele>713.92</ele>
        <time>2015-04-26T09:44:58Z</time>
      </trkpt>
      <trkpt lat="45.61563" lon="4.61345">
        <ele>714.4</ele>
        <time>2015-04-26T09:45:02Z</time>
      </trkpt>
      <trkpt lat="45.61555" lon="4.61362">
        <ele>714.88</ele>
        <time>2015-04-26T09:45:04Z</time>
      </trkpt>
      <trkpt lat="45.61551" lon="4.61371">
        <ele>714.88</ele>
        <time>2015-04-26T09:45:05Z</time>
      </trkpt>
      <trkpt lat="45.61535" lon="4.61401">
        <ele>713.44</ele>
        <time>2015-04-26T09:45:09Z</time>
      </trkpt>
      <trkpt lat="45.61531" lon="4.61406">
        <ele>712.47</ele>
        <time>2015-04-26T09:45:10Z</time>
      </trkpt>
      <trkpt lat="45.61527" lon="4.6141">
        <ele>711.03</ele>
        <time>2015-04-26T09:45:11Z</time>
      </trkpt>
      <trkpt lat="45.615" lon="4.61426">
        <ele>705.26</ele>
        <time>2015-04-26T09:45:18Z</time>
      </trkpt>
      <trkpt lat="45.61497" lon="4.61429">
        <ele>704.78</ele>
        <time>2015-04-26T09:45:19Z</time>
      </trkpt>
      <trkpt lat="45.61493" lon="4.61431">
        <ele>703.82</ele>
        <time>2015-04-26T09:45:20Z</time>
      </trkpt>
      <trkpt lat="45.6149" lon="4.61434">
        <ele>702.86</ele>
        <time>2015-04-26T09:45:21Z</time>
      </trkpt>
      <trkpt lat="45.61487" lon="4.61437">
        <ele>702.38</ele>
        <time>2015-04-26T09:45:22Z</time>
      </trkpt>
      <trkpt lat="45.61484" lon="4.61442">
        <ele>701.9</ele>
        <time>2015-04-26T09:45:23Z</time>
      </trkpt>
      <trkpt lat="45.61481" lon="4.61448">
        <ele>701.9</ele>
        <time>2015-04-26T09:45:24Z</time>
      </trkpt>
      <trkpt lat="45.61454" lon="4.61476">
        <ele>695.65</ele>
        <time>2015-04-26T09:45:33Z</time>
      </trkpt>
      <trkpt lat="45.61444" lon="4.61483">
        <ele>693.25</ele>
        <time>2015-04-26T09:45:36Z</time>
      </trkpt>
      <trkpt lat="45.61441" lon="4.61483">
        <ele>691.81</ele>
        <time>2015-04-26T09:45:37Z</time>
      </trkpt>
      <trkpt lat="45.61439" lon="4.61482">
        <ele>691.33</ele>
        <time>2015-04-26T09:45:38Z</time>
      </trkpt>
      <trkpt lat="45.61437" lon="4.6148">
        <ele>690.36</ele>
        <time>2015-04-26T09:45:39Z</time>
      </trkpt>
      <trkpt lat="45.61435" lon="4.61476">
        <ele>689.4</ele>
        <time>2015-04-26T09:45:40Z</time>
      </trkpt>
      <trkpt lat="45.61433" lon="4.61472">
        <ele>688.92</ele>
        <time>2015-04-26T09:45:41Z</time>
      </trkpt>
      <trkpt lat="45.61408" lon="4.61432">
        <ele>675.46</ele>
        <time>2015-04-26T09:45:51Z</time>
      </trkpt>
      <trkpt lat="45.61394" lon="4.61414">
        <ele>662.97</ele>
        <time>2015-04-26T09:45:57Z</time>
      </trkpt>
      <trkpt lat="45.61392" lon="4.6141">
        <ele>662.01</ele>
        <time>2015-04-26T09:45:58Z</time>
      </trkpt>
      <trkpt lat="45.61389" lon="4.61406">
        <ele>661.52</ele>
        <time>2015-04-26T09:45:59Z</time>
      </trkpt>
      <trkpt lat="45.61383" lon="4.61398">
        <ele>659.6</ele>
        <time>2015-04-26T09:46:01Z</time>
      </trkpt>
      <trkpt lat="45.61373" lon="4.61387">
        <ele>655.28</ele>
        <time>2015-04-26T09:46:04Z</time>
      </trkpt>
      <trkpt lat="45.61368" lon="4.61377">
        <ele>653.35</ele>
        <time>2015-04-26T09:46:06Z</time>
      </trkpt>
      <trkpt lat="45.61365" lon="4.61372">
        <ele>651.91</ele>
        <time>2015-04-26T09:46:07Z</time>
      </trkpt>
      <trkpt lat="45.6136" lon="4.61363">
        <ele>649.99</ele>
        <time>2015-04-26T09:46:09Z</time>
      </trkpt>
      <trkpt lat="45.61356" lon="4.61359">
        <ele>649.51</ele>
        <time>2015-04-26T09:46:10Z</time>
      </trkpt>
      <trkpt lat="45.61353" lon="4.61355">
        <ele>649.03</ele>
        <time>2015-04-26T09:46:11Z</time>
      </trkpt>
      <trkpt lat="45.6135" lon="4.61351">
        <ele>648.55</ele>
        <time>2015-04-26T09:46:12Z</time>
      </trkpt>
      <trkpt lat="45.61346" lon="4.61348">
        <ele>648.07</ele>
        <time>2015-04-26T09:46:13Z</time>
      </trkpt>
      <trkpt lat="45.61343" lon="4.61347">
        <ele>645.66</ele>
        <time>2015-04-26T09:46:14Z</time>
      </trkpt>
      <trkpt lat="45.6134" lon="4.61344">
        <ele>642.3</ele>
        <time>2015-04-26T09:46:15Z</time>
      </trkpt>
      <trkpt lat="45.61314" lon="4.61319">
        <ele>629.32</ele>
        <time>2015-04-26T09:46:24Z</time>
      </trkpt>
      <trkpt lat="45.61295" lon="4.61295">
        <ele>625.47</ele>
        <time>2015-04-26T09:46:30Z</time>
      </trkpt>
      <trkpt lat="45.6127" lon="4.61252">
        <ele>616.34</ele>
        <time>2015-04-26T09:46:39Z</time>
      </trkpt>
      <trkpt lat="45.61264" lon="4.61249">
        <ele>614.42</ele>
        <time>2015-04-26T09:46:41Z</time>
      </trkpt>
      <trkpt lat="45.6125" lon="4.61244">
        <ele>610.57</ele>
        <time>2015-04-26T09:46:44Z</time>
      </trkpt>
      <trkpt lat="45.61245" lon="4.61241">
        <ele>609.61</ele>
        <time>2015-04-26T09:46:45Z</time>
      </trkpt>
      <trkpt lat="45.6124" lon="4.61236">
        <ele>608.65</ele>
        <time>2015-04-26T09:46:46Z</time>
      </trkpt>
      <trkpt lat="45.61235" lon="4.61232">
        <ele>607.69</ele>
        <time>2015-04-26T09:46:47Z</time>
      </trkpt>
      <trkpt lat="45.6123" lon="4.61227">
        <ele>607.21</ele>
        <time>2015-04-26T09:46:48Z</time>
      </trkpt>
      <trkpt lat="45.61224" lon="4.61222">
        <ele>606.73</ele>
        <time>2015-04-26T09:46:49Z</time>
      </trkpt>
      <trkpt lat="45.61218" lon="4.61219">
        <ele>605.77</ele>
        <time>2015-04-26T09:46:50Z</time>
      </trkpt>
      <trkpt lat="45.61212" lon="4.61217">
        <ele>605.29</ele>
        <time>2015-04-26T09:46:51Z</time>
      </trkpt>
      <trkpt lat="45.61206" lon="4.61214">
        <ele>604.81</ele>
        <time>2015-04-26T09:46:52Z</time>
      </trkpt>
      <trkpt lat="45.61201" lon="4.61212">
        <ele>604.33</ele>
        <time>2015-04-26T09:46:53Z</time>
      </trkpt>
      <trkpt lat="45.61196" lon="4.61211">
        <ele>604.33</ele>
        <time>2015-04-26T09:46:54Z</time>
      </trkpt>
      <trkpt lat="45.6119" lon="4.61211">
        <ele>603.85</ele>
        <time>2015-04-26T09:46:55Z</time>
      </trkpt>
      <trkpt lat="45.61184" lon="4.61213">
        <ele>603.36</ele>
        <time>2015-04-26T09:46:56Z</time>
      </trkpt>
      <trkpt lat="45.61177" lon="4.61215">
        <ele>602.88</ele>
        <time>2015-04-26T09:46:57Z</time>
      </trkpt>
      <trkpt lat="45.61171" lon="4.61216">
        <ele>602.4</ele>
        <time>2015-04-26T09:46:58Z</time>
      </trkpt>
      <trkpt lat="45.61164" lon="4.61215">
        <ele>601.92</ele>
        <time>2015-04-26T09:46:59Z</time>
      </trkpt>
      <trkpt lat="45.61157" lon="4.61213">
        <ele>601.92</ele>
        <time>2015-04-26T09:47:00Z</time>
      </trkpt>
      <trkpt lat="45.61151" lon="4.61212">
        <ele>601.44</ele>
        <time>2015-04-26T09:47:01Z</time>
      </trkpt>
      <trkpt lat="45.61145" lon="4.61213">
        <ele>600.48</ele>
        <time>2015-04-26T09:47:02Z</time>
      </trkpt>
      <trkpt lat="45.61139" lon="4.61214">
        <ele>600</ele>
        <time>2015-04-26T09:47:03Z</time>
      </trkpt>
      <trkpt lat="45.61136" lon="4.61219">
        <ele>599.52</ele>
        <time>2015-04-26T09:47:04Z</time>
      </trkpt>
      <trkpt lat="45.61133" lon="4.61227">
        <ele>598.56</ele>
        <time>2015-04-26T09:47:05Z</time>
      </trkpt>
      <trkpt lat="45.6113" lon="4.61233">
        <ele>597.6</ele>
        <time>2015-04-26T09:47:06Z</time>
      </trkpt>
      <trkpt lat="45.61125" lon="4.6124">
        <ele>597.12</ele>
        <time>2015-04-26T09:47:07Z</time>
      </trkpt>
      <trkpt lat="45.6112" lon="4.61247">
        <ele>596.15</ele>
        <time>2015-04-26T09:47:08Z</time>
      </trkpt>
      <trkpt lat="45.61096" lon="4.61277">
        <ele>592.31</ele>
        <time>2015-04-26T09:47:12Z</time>
      </trkpt>
      <trkpt lat="45.6109" lon="4.61285">
        <ele>591.35</ele>
        <time>2015-04-26T09:47:13Z</time>
      </trkpt>
      <trkpt lat="45.61076" lon="4.61308">
        <ele>588.46</ele>
        <time>2015-04-26T09:47:16Z</time>
      </trkpt>
      <trkpt lat="45.61069" lon="4.6132">
        <ele>587.02</ele>
        <time>2015-04-26T09:47:18Z</time>
      </trkpt>
      <trkpt lat="45.61065" lon="4.61324">
        <ele>586.54</ele>
        <time>2015-04-26T09:47:19Z</time>
      </trkpt>
      <trkpt lat="45.61061" lon="4.61326">
        <ele>586.06</ele>
        <time>2015-04-26T09:47:20Z</time>
      </trkpt>
      <trkpt lat="45.61057" lon="4.61327">
        <ele>585.58</ele>
        <time>2015-04-26T09:47:21Z</time>
      </trkpt>
      <trkpt lat="45.61053" lon="4.61328">
        <ele>585.58</ele>
        <time>2015-04-26T09:47:22Z</time>
      </trkpt>
      <trkpt lat="45.6105" lon="4.61329">
        <ele>585.58</ele>
        <time>2015-04-26T09:47:23Z</time>
      </trkpt>
      <trkpt lat="45.61047" lon="4.6133">
        <ele>585.58</ele>
        <time>2015-04-26T09:47:24Z</time>
      </trkpt>
      <trkpt lat="45.61044" lon="4.61331">
        <ele>585.58</ele>
        <time>2015-04-26T09:47:25Z</time>
      </trkpt>
      <trkpt lat="45.61041" lon="4.61332">
        <ele>585.58</ele>
        <time>2015-04-26T09:47:26Z</time>
      </trkpt>
      <trkpt lat="45.61038" lon="4.61332">
        <ele>585.1</ele>
        <time>2015-04-26T09:47:27Z</time>
      </trkpt>
      <trkpt lat="45.61035" lon="4.61333">
        <ele>585.58</ele>
        <time>2015-04-26T09:47:28Z</time>
      </trkpt>
      <trkpt lat="45.61032" lon="4.61335">
        <ele>585.58</ele>
        <time>2015-04-26T09:47:29Z</time>
      </trkpt>
      <trkpt lat="45.6103" lon="4.61336">
        <ele>585.58</ele>
        <time>2015-04-26T09:47:30Z</time>
      </trkpt>
      <trkpt lat="45.60998" lon="4.61348">
        <ele>586.54</ele>
        <time>2015-04-26T09:47:42Z</time>
      </trkpt>
      <trkpt lat="45.60953" lon="4.6134">
        <ele>587.98</ele>
        <time>2015-04-26T09:47:59Z</time>
      </trkpt>
      <trkpt lat="45.60927" lon="4.61316">
        <ele>588.46</ele>
        <time>2015-04-26T09:48:11Z</time>
      </trkpt>
      <trkpt lat="45.60905" lon="4.61281">
        <ele>588.95</ele>
        <time>2015-04-26T09:48:24Z</time>
      </trkpt>
      <trkpt lat="45.6088" lon="4.61243">
        <ele>589.43</ele>
        <time>2015-04-26T09:48:40Z</time>
      </trkpt>
      <trkpt lat="45.60858" lon="4.61205">
        <ele>590.39</ele>
        <time>2015-04-26T09:48:56Z</time>
      </trkpt>
      <trkpt lat="45.60854" lon="4.61189">
        <ele>591.35</ele>
        <time>2015-04-26T09:49:02Z</time>
      </trkpt>
      <trkpt lat="45.60853" lon="4.61187">
        <ele>591.35</ele>
        <time>2015-04-26T09:49:03Z</time>
      </trkpt>
      <trkpt lat="45.60844" lon="4.61139">
        <ele>593.27</ele>
        <time>2015-04-26T09:49:21Z</time>
      </trkpt>
      <trkpt lat="45.60837" lon="4.61097">
        <ele>594.71</ele>
        <time>2015-04-26T09:49:34Z</time>
      </trkpt>
      <trkpt lat="45.60836" lon="4.61055">
        <ele>596.15</ele>
        <time>2015-04-26T09:49:46Z</time>
      </trkpt>
      <trkpt lat="45.60833" lon="4.61016">
        <ele>598.08</ele>
        <time>2015-04-26T09:49:58Z</time>
      </trkpt>
      <trkpt lat="45.6082" lon="4.60983">
        <ele>593.75</ele>
        <time>2015-04-26T09:50:08Z</time>
      </trkpt>
      <trkpt lat="45.60799" lon="4.60944">
        <ele>587.98</ele>
        <time>2015-04-26T09:50:18Z</time>
      </trkpt>
      <trkpt lat="45.60774" lon="4.60902">
        <ele>582.22</ele>
        <time>2015-04-26T09:50:27Z</time>
      </trkpt>
      <trkpt lat="45.60769" lon="4.6089">
        <ele>580.29</ele>
        <time>2015-04-26T09:50:29Z</time>
      </trkpt>
      <trkpt lat="45.60765" lon="4.60884">
        <ele>579.33</ele>
        <time>2015-04-26T09:50:30Z</time>
      </trkpt>
      <trkpt lat="45.60761" lon="4.60877">
        <ele>577.89</ele>
        <time>2015-04-26T09:50:31Z</time>
      </trkpt>
      <trkpt lat="45.60757" lon="4.60867">
        <ele>576.45</ele>
        <time>2015-04-26T09:50:32Z</time>
      </trkpt>
      <trkpt lat="45.60754" lon="4.60855">
        <ele>575.01</ele>
        <time>2015-04-26T09:50:33Z</time>
      </trkpt>
      <trkpt lat="45.60751" lon="4.60842">
        <ele>574.04</ele>
        <time>2015-04-26T09:50:34Z</time>
      </trkpt>
      <trkpt lat="45.60738" lon="4.60788">
        <ele>569.72</ele>
        <time>2015-04-26T09:50:39Z</time>
      </trkpt>
      <trkpt lat="45.60736" lon="4.60777">
        <ele>569.24</ele>
        <time>2015-04-26T09:50:40Z</time>
      </trkpt>
      <trkpt lat="45.60735" lon="4.60767">
        <ele>568.28</ele>
        <time>2015-04-26T09:50:41Z</time>
      </trkpt>
      <trkpt lat="45.60731" lon="4.60738">
        <ele>567.8</ele>
        <time>2015-04-26T09:50:44Z</time>
      </trkpt>
      <trkpt lat="45.60727" lon="4.6073">
        <ele>567.8</ele>
        <time>2015-04-26T09:50:45Z</time>
      </trkpt>
      <trkpt lat="45.60722" lon="4.60723">
        <ele>567.32</ele>
        <time>2015-04-26T09:50:46Z</time>
      </trkpt>
      <trkpt lat="45.60716" lon="4.60719">
        <ele>567.32</ele>
        <time>2015-04-26T09:50:47Z</time>
      </trkpt>
      <trkpt lat="45.60711" lon="4.60717">
        <ele>567.32</ele>
        <time>2015-04-26T09:50:48Z</time>
      </trkpt>
      <trkpt lat="45.60705" lon="4.60717">
        <ele>567.32</ele>
        <time>2015-04-26T09:50:49Z</time>
      </trkpt>
      <trkpt lat="45.607" lon="4.60719">
        <ele>567.8</ele>
        <time>2015-04-26T09:50:50Z</time>
      </trkpt>
      <trkpt lat="45.60668" lon="4.60739">
        <ele>568.76</ele>
        <time>2015-04-26T09:51:00Z</time>
      </trkpt>
      <trkpt lat="45.60639" lon="4.6076">
        <ele>567.32</ele>
        <time>2015-04-26T09:51:08Z</time>
      </trkpt>
      <trkpt lat="45.60634" lon="4.60763">
        <ele>566.83</ele>
        <time>2015-04-26T09:51:09Z</time>
      </trkpt>
      <trkpt lat="45.60629" lon="4.60764">
        <ele>566.35</ele>
        <time>2015-04-26T09:51:10Z</time>
      </trkpt>
      <trkpt lat="45.60618" lon="4.60766">
        <ele>565.87</ele>
        <time>2015-04-26T09:51:12Z</time>
      </trkpt>
      <trkpt lat="45.60607" lon="4.60766">
        <ele>564.91</ele>
        <time>2015-04-26T09:51:14Z</time>
      </trkpt>
      <trkpt lat="45.60595" lon="4.60764">
        <ele>564.43</ele>
        <time>2015-04-26T09:51:16Z</time>
      </trkpt>
      <trkpt lat="45.60582" lon="4.6076">
        <ele>563.47</ele>
        <time>2015-04-26T09:51:18Z</time>
      </trkpt>
      <trkpt lat="45.60575" lon="4.60756">
        <ele>563.47</ele>
        <time>2015-04-26T09:51:19Z</time>
      </trkpt>
      <trkpt lat="45.60569" lon="4.60752">
        <ele>562.99</ele>
        <time>2015-04-26T09:51:20Z</time>
      </trkpt>
      <trkpt lat="45.60563" lon="4.60746">
        <ele>562.51</ele>
        <time>2015-04-26T09:51:21Z</time>
      </trkpt>
      <trkpt lat="45.60557" lon="4.6074">
        <ele>562.03</ele>
        <time>2015-04-26T09:51:22Z</time>
      </trkpt>
      <trkpt lat="45.60541" lon="4.60718">
        <ele>561.07</ele>
        <time>2015-04-26T09:51:25Z</time>
      </trkpt>
      <trkpt lat="45.60485" lon="4.60633">
        <ele>555.78</ele>
        <time>2015-04-26T09:51:35Z</time>
      </trkpt>
      <trkpt lat="45.60441" lon="4.6057">
        <ele>552.41</ele>
        <time>2015-04-26T09:51:42Z</time>
      </trkpt>
      <trkpt lat="45.60435" lon="4.60562">
        <ele>551.93</ele>
        <time>2015-04-26T09:51:43Z</time>
      </trkpt>
      <trkpt lat="45.60429" lon="4.60552">
        <ele>551.45</ele>
        <time>2015-04-26T09:51:44Z</time>
      </trkpt>
      <trkpt lat="45.60423" lon="4.60542">
        <ele>550.97</ele>
        <time>2015-04-26T09:51:45Z</time>
      </trkpt>
      <trkpt lat="45.60416" lon="4.60533">
        <ele>550.49</ele>
        <time>2015-04-26T09:51:46Z</time>
      </trkpt>
      <trkpt lat="45.60332" lon="4.6041">
        <ele>542.32</ele>
        <time>2015-04-26T09:51:59Z</time>
      </trkpt>
      <trkpt lat="45.60308" lon="4.6037">
        <ele>540.88</ele>
        <time>2015-04-26T09:52:03Z</time>
      </trkpt>
      <trkpt lat="45.60303" lon="4.60359">
        <ele>540.4</ele>
        <time>2015-04-26T09:52:04Z</time>
      </trkpt>
      <trkpt lat="45.60286" lon="4.60314">
        <ele>539.44</ele>
        <time>2015-04-26T09:52:08Z</time>
      </trkpt>
      <trkpt lat="45.60282" lon="4.60304">
        <ele>539.44</ele>
        <time>2015-04-26T09:52:09Z</time>
      </trkpt>
      <trkpt lat="45.60276" lon="4.60295">
        <ele>538.96</ele>
        <time>2015-04-26T09:52:10Z</time>
      </trkpt>
      <trkpt lat="45.60268" lon="4.6029">
        <ele>538.96</ele>
        <time>2015-04-26T09:52:11Z</time>
      </trkpt>
      <trkpt lat="45.60261" lon="4.60288">
        <ele>538.96</ele>
        <time>2015-04-26T09:52:12Z</time>
      </trkpt>
      <trkpt lat="45.60253" lon="4.6029">
        <ele>538.96</ele>
        <time>2015-04-26T09:52:13Z</time>
      </trkpt>
      <trkpt lat="45.60247" lon="4.60293">
        <ele>538.96</ele>
        <time>2015-04-26T09:52:14Z</time>
      </trkpt>
      <trkpt lat="45.60241" lon="4.60298">
        <ele>539.44</ele>
        <time>2015-04-26T09:52:15Z</time>
      </trkpt>
      <trkpt lat="45.60236" lon="4.60303">
        <ele>539.44</ele>
        <time>2015-04-26T09:52:16Z</time>
      </trkpt>
      <trkpt lat="45.60232" lon="4.60309">
        <ele>539.92</ele>
        <time>2015-04-26T09:52:17Z</time>
      </trkpt>
      <trkpt lat="45.60188" lon="4.60369">
        <ele>543.76</ele>
        <time>2015-04-26T09:52:29Z</time>
      </trkpt>
      <trkpt lat="45.60152" lon="4.60411">
        <ele>546.65</ele>
        <time>2015-04-26T09:52:41Z</time>
      </trkpt>
      <trkpt lat="45.60103" lon="4.60409">
        <ele>548.09</ele>
        <time>2015-04-26T09:52:54Z</time>
      </trkpt>
      <trkpt lat="45.60054" lon="4.60398">
        <ele>546.17</ele>
        <time>2015-04-26T09:53:07Z</time>
      </trkpt>
      <trkpt lat="45.60036" lon="4.60391">
        <ele>545.69</ele>
        <time>2015-04-26T09:53:12Z</time>
      </trkpt>
      <trkpt lat="45.60031" lon="4.60391">
        <ele>545.69</ele>
        <time>2015-04-26T09:53:13Z</time>
      </trkpt>
      <trkpt lat="45.60027" lon="4.60391">
        <ele>545.69</ele>
        <time>2015-04-26T09:53:14Z</time>
      </trkpt>
      <trkpt lat="45.60023" lon="4.6039">
        <ele>545.2</ele>
        <time>2015-04-26T09:53:15Z</time>
      </trkpt>
      <trkpt lat="45.60018" lon="4.60388">
        <ele>544.72</ele>
        <time>2015-04-26T09:53:16Z</time>
      </trkpt>
      <trkpt lat="45.60014" lon="4.60387">
        <ele>544.24</ele>
        <time>2015-04-26T09:53:17Z</time>
      </trkpt>
      <trkpt lat="45.60004" lon="4.60383">
        <ele>543.28</ele>
        <time>2015-04-26T09:53:20Z</time>
      </trkpt>
      <trkpt lat="45.60001" lon="4.60384">
        <ele>542.8</ele>
        <time>2015-04-26T09:53:21Z</time>
      </trkpt>
      <trkpt lat="45.59998" lon="4.60387">
        <ele>542.8</ele>
        <time>2015-04-26T09:53:22Z</time>
      </trkpt>
      <trkpt lat="45.59996" lon="4.6039">
        <ele>542.8</ele>
        <time>2015-04-26T09:53:23Z</time>
      </trkpt>
      <trkpt lat="45.59995" lon="4.60394">
        <ele>542.32</ele>
        <time>2015-04-26T09:53:24Z</time>
      </trkpt>
      <trkpt lat="45.59983" lon="4.60419">
        <ele>540.88</ele>
        <time>2015-04-26T09:53:30Z</time>
      </trkpt>
      <trkpt lat="45.5998" lon="4.60424">
        <ele>540.88</ele>
        <time>2015-04-26T09:53:31Z</time>
      </trkpt>
      <trkpt lat="45.59961" lon="4.60458">
        <ele>539.92</ele>
        <time>2015-04-26T09:53:41Z</time>
      </trkpt>
      <trkpt lat="45.59944" lon="4.60487">
        <ele>539.92</ele>
        <time>2015-04-26T09:53:49Z</time>
      </trkpt>
      <trkpt lat="45.59935" lon="4.60507">
        <ele>539.92</ele>
        <time>2015-04-26T09:53:54Z</time>
      </trkpt>
      <trkpt lat="45.59936" lon="4.6051">
        <ele>539.92</ele>
        <time>2015-04-26T09:53:55Z</time>
      </trkpt>
      <trkpt lat="45.59938" lon="4.60512">
        <ele>539.44</ele>
        <time>2015-04-26T09:53:56Z</time>
      </trkpt>
      <trkpt lat="45.5994" lon="4.60515">
        <ele>538.96</ele>
        <time>2015-04-26T09:53:57Z</time>
      </trkpt>
      <trkpt lat="45.59942" lon="4.60517">
        <ele>538.96</ele>
        <time>2015-04-26T09:53:58Z</time>
      </trkpt>
      <trkpt lat="45.59945" lon="4.6052">
        <ele>538.48</ele>
        <time>2015-04-26T09:53:59Z</time>
      </trkpt>
      <trkpt lat="45.59948" lon="4.60524">
        <ele>537.99</ele>
        <time>2015-04-26T09:54:00Z</time>
      </trkpt>
      <trkpt lat="45.59951" lon="4.60528">
        <ele>537.51</ele>
        <time>2015-04-26T09:54:01Z</time>
      </trkpt>
      <trkpt lat="45.59954" lon="4.60532">
        <ele>537.03</ele>
        <time>2015-04-26T09:54:02Z</time>
      </trkpt>
      <trkpt lat="45.59955" lon="4.60535">
        <ele>537.03</ele>
        <time>2015-04-26T09:54:03Z</time>
      </trkpt>
      <trkpt lat="45.59956" lon="4.60537">
        <ele>536.55</ele>
        <time>2015-04-26T09:54:04Z</time>
      </trkpt>
      <trkpt lat="45.59956" lon="4.60539">
        <ele>537.51</ele>
        <time>2015-04-26T09:54:15Z</time>
      </trkpt>
      <trkpt lat="45.59957" lon="4.60538">
        <ele>538.96</ele>
        <time>2015-04-26T09:54:48Z</time>
      </trkpt>
      <trkpt lat="45.59957" lon="4.60541">
        <ele>538.48</ele>
        <time>2015-04-26T09:55:16Z</time>
      </trkpt>
    </trkseg>
  </trk>
</gpx>